GFSCGP_925_thetae_000.txt.gz
Theta_e
323 323 325 328 331 334 336 339 340 340 347 350 349 348 349 354 353 353 355 356 354 352 351 351 353 353 353 354 356 357 356 356 358 357 353 353 352 352 351 351 355 354 353 353
323 323 325 326 329 332 336 338 339 341 347 349 347 349 349 350 355 353 353 355 356 354 352 353 354 353 353 355 357 358 359 358 358 355 354 352 352 351 352 353 354 354 354 353
324 323 324 325 327 331 335 338 339 343 347 348 347 350 348 347 352 353 351 351 354 355 354 354 353 353 353 354 357 359 360 360 359 353 354 356 355 355 354 354 355 356 356 356
323 324 323 323 326 331 335 335 337 341 346 350 348 349 344 346 352 353 354 352 351 355 354 354 353 353 353 353 356 359 361 361 360 358 355 356 355 352 349 351 349 353 356 355
324 322 322 323 325 328 333 334 336 337 344 346 349 350 344 346 347 351 354 353 351 349 352 354 353 351 352 353 355 357 360 361 361 359 359 358 358 352 350 350 353 354 354 354
326 324 323 323 324 327 331 333 335 337 339 346 346 346 342 342 345 343 348 352 352 349 349 351 350 350 351 352 353 355 358 362 362 362 361 361 357 355 350 352 351 347 347 349
325 324 323 323 324 325 329 335 339 341 341 343 343 345 342 338 338 340 338 345 352 350 348 349 351 351 351 352 352 354 357 361 362 362 361 361 360 358 356 355 351 346 345 345
327 325 324 323 323 327 329 333 337 342 339 339 339 342 340 338 337 337 337 341 349 351 348 348 350 350 351 351 352 354 355 359 361 361 361 361 361 359 358 356 350 347 344 341
328 327 325 324 324 325 330 333 333 336 336 336 335 338 337 337 339 339 340 343 346 350 349 347 349 349 350 351 353 355 357 359 360 359 360 361 361 360 355 354 355 350 348 341
328 329 327 325 324 325 327 330 333 335 344 340 337 337 339 339 337 335 339 344 346 349 350 347 348 348 349 351 352 354 356 358 359 358 359 359 360 360 358 357 356 350 350 347
328 328 326 326 324 325 326 329 332 334 335 338 339 337 336 336 337 336 335 344 344 348 350 349 348 347 349 349 350 353 356 357 359 358 358 357 357 357 359 358 359 356 352 347
330 330 329 324 325 324 326 329 332 335 340 336 336 335 333 335 335 334 335 335 336 345 349 351 350 348 348 350 349 351 353 356 358 357 359 358 357 356 358 359 358 352 349 343
329 330 332 330 324 324 324 326 329 332 334 343 337 336 333 334 334 335 341 341 341 347 349 352 352 352 351 350 351 351 354 355 355 357 358 358 356 357 357 357 352 348 343 329
332 328 330 330 329 326 325 324 326 328 334 335 335 335 334 332 334 333 336 341 344 349 351 353 353 354 353 352 355 355 353 354 355 356 358 358 357 356 357 353 346 344 330 326
337 338 333 329 328 328 327 325 324 326 327 333 333 333 334 334 333 333 333 336 343 350 351 353 354 361 362 357 356 355 355 355 355 356 357 358 358 357 352 348 344 339 321 327
330 338 336 335 331 330 329 327 325 325 325 327 329 331 332 333 333 333 333 334 343 351 351 353 355 357 359 357 357 356 356 355 356 357 358 358 358 354 347 345 341 334 323 328
333 336 341 339 334 333 333 331 328 326 325 326 328 329 330 330 332 335 335 340 344 349 351 352 354 355 357 356 357 357 356 356 356 358 358 359 357 352 346 344 343 338 334 331
335 341 340 339 339 340 331 331 330 327 325 327 329 330 330 332 336 339 341 338 343 349 350 351 351 354 353 353 353 353 354 355 356 357 358 358 354 350 347 344 344 340 336 334
332 336 339 338 338 336 334 335 330 329 327 326 329 331 332 333 338 343 342 341 344 348 350 350 348 350 351 349 350 350 352 353 355 356 356 354 352 348 347 346 344 343 339 337
332 335 338 338 338 339 342 340 339 341 339 329 329 331 332 337 339 334 343 340 341 345 347 348 345 347 347 346 347 349 351 353 355 355 355 352 350 349 347 346 345 342 342 339
338 339 335 337 340 338 342 338 339 345 336 330 337 339 340 342 344 345 343 343 344 347 348 346 345 345 346 345 347 349 350 353 353 354 353 350 349 350 348 346 344 343 342 340
340 339 335 338 342 341 337 339 346 346 343 342 343 343 344 344 346 347 347 348 348 347 345 343 346 349 348 348 349 351 352 354 354 354 352 349 350 349 349 346 343 341 341 341
337 334 335 337 335 338 335 338 338 340 342 342 343 343 343 343 344 345 345 344 344 343 344 342 347 350 351 352 352 354 358 356 355 352 350 349 349 347 346 345 342 341 340 340
336 335 338 340 338 337 336 335 335 336 337 338 338 338 339 340 340 342 342 344 347 348 346 344 345 349 353 353 354 356 352 353 353 352 351 348 349 347 344 343 342 342 342 340
336 336 339 339 337 334 333 332 332 332 333 335 336 336 338 342 345 347 349 348 348 348 346 344 346 350 352 352 352 351 351 351 351 350 349 347 345 344 345 342 339 341 336 336
328 337 339 337 336 335 328 326 326 328 329 331 332 332 332 335 338 341 345 347 347 349 348 349 349 351 352 352 351 351 350 350 349 346 346 345 345 345 344 339 332 332 331 328

GFSCGP_925_thetae_003.txt.gz
Theta_e
325 325 326 329 332 334 337 339 339 340 340 344 346 346 348 349 349 348 346 347 349 350 350 349 350 350 350 350 353 355 356 356 356 356 356 355 353 353 352 350 354 358 355 355
325 325 327 329 331 333 335 338 340 340 340 342 344 347 346 353 351 349 348 347 347 349 349 350 350 350 350 352 353 356 357 358 357 357 356 355 353 351 350 350 352 355 353 352
325 325 326 329 332 333 335 337 339 340 346 346 345 347 346 346 352 351 348 348 347 347 348 351 351 351 351 353 354 358 360 360 359 358 356 356 355 354 354 351 354 356 356 355
326 326 326 327 330 332 334 335 337 339 344 349 342 349 347 345 347 352 351 350 348 348 348 349 352 352 352 352 355 357 361 361 361 359 357 356 354 351 347 347 347 352 357 355
325 325 326 326 328 331 332 334 337 338 343 350 343 344 347 344 346 348 352 351 349 348 349 349 351 352 352 352 354 357 362 363 362 361 358 355 354 349 350 347 351 352 358 353
326 327 325 326 327 329 331 333 336 337 340 344 345 346 349 346 345 345 347 351 351 350 348 351 349 350 351 352 354 356 363 365 364 363 360 357 356 353 348 348 352 351 349 352
327 326 327 326 326 328 330 333 337 339 340 341 341 346 353 346 342 343 342 344 350 352 349 350 352 352 352 353 354 356 361 367 366 364 362 361 359 356 355 355 353 349 345 346
328 328 327 326 326 327 330 332 335 341 341 340 339 343 343 343 341 339 340 339 343 350 351 348 351 353 354 353 356 357 360 366 367 364 364 363 362 358 355 354 353 349 347 345
329 329 327 327 326 326 328 332 333 336 338 339 339 339 339 341 341 339 339 338 338 347 350 350 348 350 352 352 355 357 360 364 366 362 366 365 363 361 354 353 353 354 349 345
328 330 328 326 326 325 326 329 333 337 343 342 339 339 340 341 339 338 339 338 339 342 350 350 348 349 350 351 353 357 359 364 363 362 365 364 363 363 360 357 356 353 350 347
327 329 330 329 327 326 325 327 331 334 336 338 340 340 338 340 340 338 338 337 338 342 348 350 348 347 348 349 351 354 357 361 363 362 361 361 361 361 361 359 356 355 351 352
328 329 332 330 329 327 326 327 328 336 341 336 339 338 337 336 337 337 338 337 338 342 346 349 349 348 347 349 348 350 353 355 360 362 363 362 361 360 360 359 358 357 354 352
329 330 332 333 330 328 327 327 327 329 335 343 339 338 336 336 336 337 337 337 338 340 343 348 349 351 350 349 349 348 351 351 354 360 362 362 360 361 360 360 359 359 357 352
331 331 332 334 333 328 327 326 326 328 332 334 335 337 338 337 336 335 336 336 338 339 347 347 350 353 353 351 351 350 350 349 352 356 357 361 362 361 360 360 359 358 355 350
330 333 332 331 331 331 328 325 325 326 328 332 333 335 336 338 337 336 335 335 336 337 346 351 352 359 360 356 355 353 351 351 352 356 357 361 363 360 359 360 360 356 352 348
330 336 334 332 330 329 329 329 326 326 326 327 329 331 333 335 337 336 335 335 335 336 337 350 354 356 364 360 359 357 356 356 356 360 360 362 365 362 360 360 359 353 350 345
333 336 340 340 335 334 333 330 329 329 328 327 327 329 330 333 336 338 336 335 337 339 340 345 353 356 360 357 360 360 360 357 359 361 363 365 366 363 360 359 355 351 347 344
330 334 334 337 338 340 334 335 333 331 330 329 328 328 329 334 337 337 334 335 338 341 341 342 350 355 358 356 356 356 358 361 363 364 364 365 366 362 357 353 351 349 349 346
330 333 335 338 340 342 338 341 341 343 339 332 331 329 328 330 331 336 335 335 337 337 340 343 350 352 359 358 359 360 360 362 363 363 365 365 365 360 355 352 350 350 350 349
327 332 337 340 340 341 335 341 340 339 340 333 333 331 328 329 334 334 335 338 342 342 340 347 350 353 358 359 358 360 358 360 363 362 363 364 362 357 354 350 349 350 351 349
325 329 332 335 338 336 342 340 340 341 341 347 345 344 340 330 334 345 346 344 343 342 350 352 352 358 358 356 354 358 357 358 357 358 360 361 358 353 351 350 350 349 349 345
326 332 332 334 335 337 340 339 341 346 344 345 345 344 346 332 343 347 347 347 346 347 351 350 354 355 352 353 355 357 358 357 357 358 358 356 353 352 352 350 349 347 345 345
331 330 332 332 335 343 340 342 341 341 343 344 344 343 343 346 347 348 350 351 351 350 351 348 349 353 350 352 354 359 360 359 359 359 356 353 352 352 353 351 350 347 346 344
333 332 335 337 341 341 340 338 338 338 339 340 342 344 345 347 347 347 346 345 345 345 348 347 349 354 356 353 354 359 359 359 359 356 353 351 352 351 350 350 347 344 342 343
337 338 337 343 341 338 336 336 335 336 337 337 340 341 346 345 346 347 350 350 347 346 345 346 349 352 354 355 358 356 358 358 355 353 352 354 351 350 349 344 343 344 343 341
328 335 343 340 340 338 333 330 330 331 331 331 333 335 336 341 343 345 348 347 347 348 346 348 348 351 353 354 355 354 355 355 355 353 353 351 349 350 346 340 333 334 333 332

GFSCGP_925_thetae_006.txt.gz
Theta_e
328 327 328 330 329 331 332 337 337 338 343 340 346 353 349 344 347 343 346 345 348 349 349 348 348 349 349 352 354 355 354 355 359 360 357 355 354 354 351 349 350 353 356 354
326 326 326 329 331 331 333 335 338 339 342 343 343 353 348 351 349 347 344 345 345 345 348 350 350 349 350 351 353 357 357 357 355 358 357 356 355 352 353 355 353 353 353 353
326 326 326 328 330 332 333 334 337 338 341 341 340 343 349 350 347 346 346 344 344 346 346 352 352 350 351 352 355 357 359 359 359 357 357 356 355 356 354 354 353 357 355 354
327 327 326 326 329 332 333 333 335 336 342 345 343 345 351 347 352 348 347 346 345 346 347 349 353 353 352 352 354 358 360 360 362 356 359 357 356 356 353 354 352 354 353 355
325 327 326 325 327 330 333 334 334 335 338 346 348 348 348 350 352 353 350 348 347 347 346 347 352 352 352 353 356 358 362 362 363 361 359 358 357 353 348 346 350 354 354 354
327 327 327 326 327 328 331 333 333 334 337 342 344 346 346 349 348 346 350 350 349 349 348 348 350 351 353 353 357 358 364 365 364 364 358 359 355 354 353 353 352 355 355 354
327 327 327 327 326 327 328 331 337 337 339 341 340 347 350 349 347 346 345 349 351 351 350 350 351 354 354 354 356 359 363 366 366 365 363 357 358 352 355 354 355 355 351 355
328 328 327 327 326 327 327 329 336 340 340 339 340 342 345 348 346 345 346 347 349 351 350 350 352 353 355 354 356 359 363 366 368 365 365 362 358 357 356 356 352 354 348 347
327 328 329 327 328 326 327 328 330 333 335 338 338 339 338 341 346 344 342 343 344 350 352 351 353 353 355 355 356 358 364 367 369 368 367 366 362 360 359 357 355 354 349 349
328 329 329 329 328 327 327 328 328 331 339 342 339 342 344 344 347 347 346 344 341 342 352 352 351 355 354 355 355 358 360 367 369 368 368 367 366 362 359 354 354 352 354 348
327 329 329 330 329 328 326 327 328 330 334 339 343 342 343 349 349 348 345 342 341 341 350 350 352 351 354 356 356 358 360 365 368 369 367 367 366 365 360 363 360 356 352 350
329 328 331 329 330 328 328 328 327 329 338 335 337 340 338 344 344 341 342 341 341 341 345 349 352 351 353 354 355 357 360 363 366 367 367 367 367 366 365 361 363 357 359 353
329 330 333 329 330 331 329 327 327 326 329 337 338 338 337 339 341 344 342 342 344 343 350 349 351 352 352 352 353 356 358 361 365 366 366 366 366 366 366 365 361 361 358 355
329 329 334 333 333 331 332 329 328 328 328 331 333 339 338 342 342 342 343 343 343 347 356 351 351 354 352 352 353 354 357 358 362 364 364 365 364 365 364 364 363 361 360 358
328 333 332 330 329 331 331 329 328 329 330 332 331 333 340 340 343 341 341 343 344 346 353 354 356 357 355 354 353 353 353 354 356 361 364 365 365 364 364 363 363 362 362 361
326 333 332 333 331 331 332 331 329 328 329 330 330 331 333 337 337 344 341 342 344 344 344 355 356 362 364 357 354 352 352 352 353 356 361 363 364 366 364 363 364 363 364 362
330 329 337 336 332 332 333 333 331 330 327 328 329 331 333 334 338 341 346 342 343 343 343 348 358 358 360 359 355 353 352 353 353 357 359 360 364 367 365 364 363 364 363 359
334 333 334 338 338 338 332 331 330 330 330 329 330 331 332 333 335 335 335 338 340 343 342 343 339 357 358 358 356 355 354 354 354 362 361 362 365 368 366 364 364 364 361 357
329 336 336 340 341 337 335 334 335 334 335 334 332 335 331 332 332 334 333 334 337 337 346 343 338 343 356 357 356 360 357 356 363 361 366 365 370 369 367 365 363 361 358 355
327 337 335 339 338 343 341 340 339 339 341 344 345 344 341 338 333 332 336 336 335 334 337 348 345 346 360 360 358 360 363 361 360 365 367 369 371 368 364 361 357 355 353 352
328 332 334 337 336 335 340 339 338 343 343 345 345 345 344 344 345 348 348 354 351 338 342 344 352 360 363 361 361 362 363 365 363 367 368 371 369 365 359 355 352 350 352 354
327 326 331 338 343 344 339 340 343 345 343 342 342 343 344 346 346 345 345 348 350 350 345 352 369 369 365 363 365 367 368 366 367 367 368 369 363 358 354 352 351 352 350 348
325 326 328 331 334 336 342 346 343 341 342 345 348 344 342 342 343 347 348 349 350 349 355 353 363 366 363 364 364 366 365 363 364 365 366 363 357 354 352 353 350 348 348 347
326 332 329 332 335 341 341 339 339 340 345 345 346 348 350 349 347 347 349 351 355 357 359 357 359 363 365 362 362 364 363 363 363 364 359 355 354 354 354 353 350 349 348 347
336 334 341 335 347 343 341 340 340 340 340 341 339 339 341 347 348 351 355 356 357 358 358 359 362 364 364 366 363 363 364 364 361 357 354 353 352 352 353 348 347 345 343 343
330 335 341 348 343 342 340 337 333 334 335 335 335 335 337 339 341 342 347 347 349 352 353 356 358 359 358 360 360 361 361 358 356 354 352 353 351 350 342 338 335 340 340 338

GFSCGP_925_thetae_009.txt.gz
Theta_e
322 324 324 323 322 324 327 328 330 332 337 339 346 347 345 338 340 340 346 345 345 346 345 349 350 349 350 351 351 352 352 357 356 353 353 354 354 356 353 349 351 353 351 351
322 325 325 326 326 325 326 328 329 331 338 338 347 348 344 341 338 339 342 345 345 345 345 347 348 349 351 352 353 352 351 354 357 355 354 353 355 354 352 349 347 351 352 353
323 326 327 326 326 328 327 328 329 331 337 340 347 351 348 340 342 341 342 342 345 345 345 346 347 348 349 352 354 353 351 350 358 357 357 354 354 353 354 354 353 354 353 350
324 325 325 325 324 326 328 329 330 331 333 339 343 350 350 345 352 350 346 342 343 345 345 346 347 348 349 353 353 354 353 352 354 357 357 357 356 355 354 355 353 352 354 353
322 326 326 325 323 324 329 330 330 331 332 340 342 342 343 347 350 347 345 342 341 342 343 346 348 348 349 350 353 356 355 354 356 355 356 356 355 353 354 355 354 352 357 355
325 324 323 325 325 324 325 329 330 330 331 333 339 341 343 345 350 348 346 344 342 341 342 346 348 349 349 352 354 356 359 358 359 358 357 357 356 354 354 351 352 354 356 352
321 323 325 324 324 323 323 323 328 330 332 332 330 340 343 343 342 345 346 344 344 342 342 342 347 349 349 352 354 359 360 361 361 360 357 359 358 355 352 349 354 356 353 354
322 322 324 325 323 323 322 323 326 330 333 332 330 335 336 341 343 345 346 346 345 344 343 343 347 348 350 351 355 358 361 361 362 362 360 356 359 356 352 355 356 354 353 354
322 323 326 326 325 324 323 322 323 323 328 331 332 331 332 340 341 343 343 344 345 344 343 344 345 348 350 351 357 357 363 363 363 364 363 361 357 357 356 353 353 355 353 355
323 326 325 327 325 324 323 324 323 323 325 330 331 333 336 336 343 344 343 342 342 342 342 345 345 348 351 352 355 358 361 364 365 363 364 363 361 357 356 355 350 357 351 348
323 323 324 326 325 324 324 322 321 321 324 327 332 333 331 334 342 344 342 341 340 343 344 345 346 348 351 352 355 357 361 364 365 366 365 364 362 360 357 357 353 355 355 350
324 323 324 324 325 326 324 323 320 323 323 326 325 328 332 331 341 343 341 341 337 338 342 346 346 348 352 353 353 357 363 364 365 366 366 365 364 363 361 357 358 356 355 353
326 325 325 326 325 325 325 324 322 322 321 324 330 329 328 328 335 337 338 340 338 338 346 347 346 350 352 353 353 356 361 366 366 367 366 366 365 365 364 360 359 360 354 354
330 324 326 327 327 325 328 326 325 322 322 322 323 323 325 331 337 337 339 337 339 338 344 346 347 350 351 353 354 354 358 364 366 368 367 366 365 365 365 364 359 362 362 358
321 326 325 326 328 327 326 328 326 325 323 323 323 323 324 326 338 338 338 339 339 341 346 344 348 347 350 352 353 354 356 358 364 366 366 365 365 365 365 365 364 360 362 360
318 326 329 330 329 327 327 328 329 325 325 325 325 325 326 325 326 342 338 335 334 344 349 346 347 347 347 349 351 353 355 357 360 364 365 364 364 364 365 365 364 364 360 361
319 324 331 328 330 330 329 327 328 329 326 326 325 325 325 326 327 336 337 338 332 336 344 346 346 353 347 349 350 352 354 356 358 361 363 363 362 364 363 364 363 364 363 362
320 320 327 327 332 335 331 330 330 330 332 327 326 326 328 327 329 331 332 333 330 333 337 342 347 347 356 350 350 351 353 355 356 357 361 362 363 362 364 364 363 364 364 363
320 321 328 328 330 331 333 331 332 330 329 335 343 342 337 335 330 328 329 331 327 332 330 332 338 348 352 354 351 350 351 353 353 354 356 360 361 364 365 364 364 364 364 362
320 326 329 327 331 333 331 337 338 338 342 346 345 345 344 341 338 330 341 344 336 332 329 328 338 337 353 354 353 351 350 352 351 352 355 358 360 362 365 364 364 364 363 359
326 329 330 333 329 334 340 339 337 341 348 344 343 344 344 344 343 341 340 347 347 345 341 332 339 343 352 355 354 352 351 351 353 351 359 361 363 367 365 364 364 360 357 356
326 330 329 335 338 338 341 339 343 347 345 349 349 349 344 342 341 342 343 345 347 345 344 362 350 354 355 358 358 357 354 354 356 362 368 370 367 363 364 362 359 357 353 352
326 329 331 327 334 340 340 339 342 342 348 349 349 351 349 349 351 352 348 348 349 354 358 362 363 365 368 362 362 366 368 363 366 370 366 361 361 361 358 354 351 350 351 347
327 332 330 337 329 336 337 337 346 344 343 340 343 344 342 343 342 343 345 351 355 355 357 360 362 361 363 366 366 367 367 367 368 364 359 356 355 353 352 351 351 350 348 347
333 331 336 338 340 341 341 342 341 341 338 336 336 337 338 337 338 337 337 339 344 352 358 361 361 364 364 364 365 364 365 365 360 357 355 353 353 353 351 348 348 348 347 347
327 334 336 340 334 335 337 332 333 335 334 332 332 335 335 333 333 333 333 332 335 336 341 358 360 361 362 364 363 362 361 359 354 353 352 353 350 344 342 340 338 341 342 343

GFSCGP_925_thetae_012.txt.gz
Theta_e
320 320 324 321 320 321 322 323 324 326 327 339 339 339 340 348 352 353 353 352 351 350 347 348 347 348 349 352 354 355 355 351 350 352 354 351 351 350 348 354 351 350 352 351
320 321 320 322 321 322 322 323 324 325 327 337 340 341 341 344 346 349 349 350 350 350 348 347 347 348 349 352 354 355 354 352 352 352 352 350 350 350 347 354 352 349 351 350
320 321 322 324 324 323 322 322 323 325 327 336 343 345 343 340 341 343 345 345 347 348 347 347 347 348 350 352 353 353 354 354 353 353 349 351 351 350 354 354 352 351 350 351
321 321 323 323 325 323 322 324 324 326 327 329 342 344 348 343 341 339 344 344 344 345 345 346 348 348 349 351 352 352 353 354 355 355 353 353 353 354 355 354 352 352 352 351
322 322 322 325 325 324 323 324 326 327 327 328 333 341 342 345 344 346 342 342 344 343 344 344 347 348 348 350 352 352 351 354 355 356 354 354 353 352 352 352 352 353 352 354
321 321 323 324 324 324 323 322 324 326 326 329 334 341 337 346 345 344 344 342 342 344 343 343 345 347 348 349 351 352 351 352 354 356 356 356 355 354 352 352 353 354 354 353
324 324 322 321 321 321 320 318 321 325 327 329 326 335 337 340 344 343 345 341 341 342 343 343 344 345 346 347 351 353 353 352 354 357 357 356 355 355 353 352 352 355 354 354
322 323 320 321 322 320 318 319 321 323 326 327 326 330 333 337 342 344 343 342 341 340 342 343 343 345 345 347 351 353 354 354 355 355 356 355 355 354 353 352 352 352 353 355
316 319 320 321 321 322 322 317 319 318 323 325 327 328 327 329 337 343 344 342 342 340 340 342 344 345 346 347 350 353 356 355 356 356 355 355 355 355 355 354 355 351 352 353
317 319 319 321 320 321 320 319 320 315 321 323 324 327 331 329 331 336 341 343 343 341 340 341 342 345 347 347 351 354 356 356 357 357 356 355 356 356 356 355 353 356 355 354
318 318 321 320 320 322 322 320 317 317 318 322 322 324 324 327 328 333 342 344 343 343 342 340 341 345 347 348 352 355 356 356 358 359 358 358 357 355 358 357 355 353 354 352
318 318 320 322 320 322 323 322 317 321 319 319 322 324 328 326 326 333 338 341 345 344 341 341 341 343 346 349 352 354 357 357 358 359 359 359 359 358 356 356 355 355 354 355
321 322 323 320 319 319 321 322 321 314 315 320 323 322 322 322 323 336 338 337 338 336 337 338 341 343 345 349 351 354 357 359 359 360 360 361 360 360 359 357 356 354 354 353
315 318 319 324 323 321 321 323 321 320 322 321 321 323 323 323 328 328 334 338 337 338 337 338 342 343 346 349 351 354 356 360 360 361 361 361 362 361 360 358 356 356 355 355
314 316 319 321 323 323 324 323 323 321 321 321 322 318 319 319 320 323 326 334 335 338 340 339 343 344 347 350 350 353 356 359 361 362 363 362 362 362 362 360 358 357 356 356
312 316 318 323 324 324 325 325 325 324 323 322 319 319 317 319 320 325 330 335 335 335 340 342 343 346 348 349 350 352 355 360 361 362 363 363 363 363 363 363 361 359 358 359
314 314 317 321 323 325 326 326 325 324 323 323 321 320 319 321 322 323 325 327 332 335 341 343 344 347 347 350 351 351 355 359 362 362 363 363 363 363 363 363 363 362 359 359
315 316 315 321 322 328 327 326 325 324 326 324 322 321 322 322 322 322 327 328 330 330 334 343 344 344 347 350 351 352 352 356 361 362 363 364 363 363 362 363 363 362 362 359
316 317 319 323 325 324 330 329 326 324 326 335 326 330 324 324 324 326 328 325 326 328 330 330 339 344 345 347 350 352 352 354 356 359 361 362 363 362 362 362 362 361 362 360
320 317 319 323 327 330 326 333 333 330 348 343 342 340 337 330 326 327 335 341 327 325 326 327 330 342 350 346 348 350 351 353 354 356 358 361 362 361 361 361 361 361 362 361
326 326 323 326 331 327 338 337 334 336 335 341 341 340 338 339 333 334 338 342 341 339 333 329 326 329 342 350 347 347 350 352 353 355 356 358 361 361 360 362 361 362 361 361
328 331 334 329 337 342 326 336 334 335 348 349 351 348 349 348 349 346 343 341 343 340 339 351 329 328 334 343 349 347 348 350 351 353 354 354 358 359 361 362 361 361 360 357
329 327 330 327 334 326 325 338 343 341 343 344 345 345 345 346 344 344 347 350 351 352 352 356 354 348 356 347 350 349 348 348 349 350 353 355 358 360 361 360 358 355 354 351
326 327 327 330 329 332 341 342 339 337 340 339 338 338 338 340 339 338 338 340 340 339 340 339 344 355 358 359 353 350 349 349 352 359 362 361 359 357 357 355 354 350 349 347
327 328 332 330 329 331 334 338 337 335 335 335 334 335 335 335 334 334 334 334 335 336 334 333 332 331 329 354 363 361 360 363 363 360 359 356 353 353 348 348 347 347 347 349
325 330 335 337 331 331 330 334 333 332 331 331 331 332 332 333 333 331 331 330 332 334 333 329 328 327 328 330 337 363 363 360 357 354 354 351 340 335 336 338 341 346 347 346

GFSCGP_925_thetae_015.txt.gz
Theta_e
320 322 320 319 318 321 322 323 323 323 327 336 337 339 356 354 354 355 355 354 354 352 349 349 348 347 348 349 350 351 351 352 352 352 353 352 354 353 351 351 350 350 351 350
318 321 321 321 320 320 321 321 322 321 323 327 333 337 354 354 354 354 355 355 354 353 351 349 349 348 347 349 351 351 351 352 351 352 352 352 353 352 351 349 352 351 350 351
320 319 319 322 322 321 320 320 322 322 323 328 339 342 343 355 353 352 351 351 352 351 352 351 348 348 347 349 352 352 352 352 351 351 351 352 351 350 350 350 349 352 351 352
318 319 321 321 322 321 320 320 322 322 324 324 337 342 342 344 355 352 351 351 350 349 348 348 348 346 347 348 351 352 353 352 352 351 350 351 351 350 351 350 348 353 352 351
320 320 320 321 322 320 323 323 323 325 324 325 327 335 334 340 345 345 347 348 348 348 347 347 346 346 347 348 350 352 353 353 352 350 351 351 350 349 349 349 349 352 352 351
321 320 321 320 321 321 323 322 320 322 321 324 325 328 329 343 341 341 341 343 345 346 346 346 346 346 347 348 350 352 352 353 352 351 351 352 351 351 351 349 351 353 352 352
321 323 319 320 321 321 321 317 320 319 322 325 322 328 329 332 341 340 340 340 343 342 344 344 344 345 346 348 350 351 350 353 353 353 353 352 352 352 352 350 351 351 352 352
323 323 322 319 321 321 318 319 316 320 322 324 322 326 327 331 334 340 340 339 339 342 341 342 343 343 346 347 349 350 350 351 354 354 353 353 353 352 352 353 351 350 351 352
320 322 320 322 320 321 319 320 319 317 319 319 323 324 325 327 329 336 339 339 340 340 341 342 342 342 344 346 347 350 350 350 353 354 354 354 354 353 353 353 352 351 350 352
316 318 316 320 320 319 320 317 320 311 321 322 320 323 324 326 326 332 339 339 339 339 339 341 341 342 343 345 346 349 351 350 350 352 354 354 354 354 354 353 353 352 350 352
316 315 319 317 317 319 317 320 316 315 315 320 321 322 321 325 326 327 333 339 340 339 339 339 340 341 342 344 345 348 351 351 351 351 353 353 354 354 354 354 353 351 351 352
318 311 318 318 317 319 318 319 315 319 318 315 319 320 321 324 324 324 326 332 335 339 340 338 338 339 342 344 345 348 350 352 351 352 353 353 353 354 354 354 353 351 353 353
319 316 316 316 317 317 318 318 318 317 314 321 320 320 317 321 322 322 328 330 332 335 338 338 338 337 341 344 345 348 350 352 352 353 354 354 354 353 354 354 354 353 353 354
313 313 317 318 317 318 318 320 320 318 319 322 321 319 321 320 320 320 324 327 332 336 338 337 336 336 341 344 346 348 351 352 353 354 355 355 355 355 354 354 354 354 354 354
311 315 316 317 318 319 321 320 321 319 320 321 322 317 318 319 319 320 320 323 332 334 335 336 338 339 340 343 346 349 351 353 353 354 356 356 356 356 356 355 354 354 354 354
309 316 314 317 319 321 322 320 322 321 321 320 320 316 317 319 317 318 318 320 325 331 332 333 338 339 340 342 346 348 351 353 355 355 356 356 357 358 358 357 356 355 354 354
312 313 315 317 317 319 322 322 322 322 321 320 321 319 316 317 317 316 318 320 325 325 328 333 334 335 340 343 346 348 351 352 356 356 357 357 357 359 359 358 358 356 355 355
312 313 314 316 318 326 322 322 323 322 322 320 320 319 319 319 320 319 317 319 321 325 328 333 335 336 340 344 346 347 350 353 356 357 358 359 359 359 359 360 359 358 356 356
311 313 316 318 321 322 324 327 325 322 322 325 320 320 319 319 321 321 320 321 322 324 325 330 337 339 342 344 347 348 349 352 356 357 358 359 360 360 360 360 360 360 359 356
312 313 317 317 323 327 324 329 332 330 325 339 330 323 321 320 321 323 331 331 324 321 322 328 336 340 342 344 347 348 349 352 356 358 358 359 360 360 360 360 360 360 360 357
316 322 321 319 321 324 328 339 334 333 326 339 337 336 326 322 321 325 334 336 338 329 329 330 325 335 341 344 347 348 349 350 353 356 358 359 360 361 360 360 360 361 360 359
321 324 327 321 327 331 335 339 345 341 340 346 345 346 346 345 347 347 348 349 346 345 346 351 350 345 347 335 343 347 348 350 350 353 354 358 359 361 360 360 360 360 360 359
321 323 328 325 328 327 331 334 339 337 340 342 344 344 345 345 343 342 342 340 338 336 333 333 333 337 337 356 349 343 345 348 350 351 352 354 357 359 359 359 360 360 360 358
319 321 326 327 328 332 334 333 334 334 335 335 335 337 337 339 338 337 337 336 334 333 332 330 329 328 327 332 345 349 352 350 346 349 351 353 355 358 359 359 360 360 358 356
315 322 324 329 328 330 334 332 332 332 331 332 333 334 334 333 332 330 330 330 331 331 330 329 328 327 327 330 336 337 339 349 346 347 349 351 354 358 359 358 359 358 354 352
320 325 326 326 330 331 331 329 328 329 330 327 331 332 330 330 329 329 329 329 330 331 332 331 331 329 330 336 342 344 343 338 346 353 356 357 357 341 336 337 337 346 346 347

GFSCGP_925_thetae_018.txt.gz
Theta_e
318 319 320 316 317 321 322 322 324 323 324 331 335 342 355 353 353 353 353 352 351 350 348 348 348 349 348 350 350 350 350 349 348 347 349 349 352 352 348 351 349 350 349 350
316 322 320 318 318 320 320 321 321 321 322 323 322 329 353 354 354 353 353 353 352 351 349 349 348 348 348 349 349 350 350 350 351 350 349 350 351 351 352 351 348 348 349 349
321 319 321 322 320 320 319 320 321 323 322 323 331 335 337 353 353 353 352 351 351 351 350 349 348 347 347 348 348 349 350 350 351 351 350 350 351 351 353 352 350 350 350 350
317 318 321 320 322 320 319 318 321 321 320 322 331 332 339 350 356 354 353 353 352 351 350 349 348 348 347 347 348 349 349 350 350 351 351 350 351 351 351 352 351 349 350 350
319 318 319 320 320 319 322 320 320 321 321 321 326 326 326 345 357 354 352 351 352 351 351 350 349 348 348 346 347 349 350 350 350 350 351 350 350 350 350 350 350 349 349 350
320 318 319 319 319 319 320 322 317 317 318 322 322 324 324 340 352 354 351 351 350 349 349 348 349 349 348 347 346 348 350 350 350 350 351 350 349 349 349 349 348 348 349 350
321 321 319 318 319 319 320 318 320 320 321 325 319 323 326 327 338 341 349 348 348 348 348 347 346 347 348 346 346 348 350 351 351 350 350 350 349 349 349 350 348 349 349 351
322 321 321 318 319 319 318 316 318 322 320 322 319 323 324 324 331 337 337 341 343 346 347 347 346 345 346 346 346 348 350 350 351 350 350 350 350 349 350 350 349 349 346 347
320 322 320 319 318 320 317 320 316 315 317 317 319 321 323 325 325 332 336 337 337 340 343 344 345 345 345 346 346 348 349 350 351 351 350 350 350 350 350 350 350 350 348 348
317 322 317 321 319 318 316 315 319 311 321 321 319 320 325 324 327 327 334 337 337 337 338 341 342 343 344 345 346 347 349 349 350 351 351 351 351 351 351 351 351 351 351 350
315 313 317 316 319 322 317 316 314 316 313 318 319 321 317 323 324 325 327 334 336 337 337 338 340 341 342 343 345 347 349 349 349 351 352 352 352 352 351 351 352 351 351 351
318 311 316 318 316 319 322 320 315 319 317 312 315 320 320 319 322 324 325 329 335 336 336 337 338 339 340 341 343 345 348 349 349 349 352 352 352 352 352 352 352 351 352 352
317 314 315 315 316 316 316 318 317 316 313 319 319 320 321 318 321 321 323 323 327 333 335 336 336 337 339 341 342 344 346 348 349 349 350 352 352 352 352 352 351 352 352 351
313 312 314 318 317 317 318 318 315 317 320 321 320 320 320 319 320 320 320 322 326 327 330 331 335 336 338 340 342 343 345 347 349 349 349 350 352 352 352 352 352 351 351 351
310 315 314 316 316 317 318 319 319 316 318 319 320 320 319 318 318 319 320 320 323 326 329 334 335 336 336 340 342 343 344 347 349 350 350 350 351 351 351 352 352 352 351 351
308 315 313 316 316 317 318 319 320 319 318 317 319 317 316 318 317 319 319 320 321 324 329 333 335 336 338 340 342 343 345 347 349 350 350 351 352 352 352 352 352 352 352 352
309 312 314 316 316 316 319 318 319 319 318 318 319 319 318 317 317 318 319 319 319 320 326 331 333 336 337 339 342 344 345 348 349 350 351 352 353 353 354 353 352 352 352 352
309 311 312 315 316 321 317 318 323 320 320 319 320 319 319 320 321 319 318 320 319 319 322 326 328 332 333 337 340 343 345 348 351 351 351 353 354 354 354 355 354 353 352 352
309 308 313 317 317 317 318 327 334 333 331 321 320 320 318 318 318 320 317 316 318 319 319 322 326 329 333 335 339 342 346 349 351 352 352 353 354 355 355 356 356 355 354 353
308 310 311 313 319 322 322 330 332 332 335 338 330 320 320 317 319 321 319 322 319 320 320 324 328 334 335 337 341 344 346 349 350 353 354 354 355 355 356 357 356 356 356 354
310 312 313 315 319 319 323 332 336 335 336 341 341 342 319 319 321 327 341 346 345 348 346 325 329 329 332 340 344 345 346 348 350 352 354 355 356 357 356 357 357 358 357 356
313 315 316 315 320 321 325 335 345 339 338 338 341 341 334 336 345 346 343 341 340 341 346 346 345 347 349 340 344 345 345 347 349 352 354 355 356 357 357 358 358 358 359 359
312 317 320 318 319 318 327 328 333 334 336 336 336 337 341 344 344 344 340 337 335 333 332 330 330 333 338 347 345 344 347 348 346 349 352 356 356 357 358 359 359 359 359 359
313 316 318 319 320 323 330 331 330 331 332 331 333 335 335 338 338 335 333 333 332 331 330 328 327 328 329 335 337 336 337 350 354 347 347 351 355 357 359 359 359 359 360 359
311 312 315 318 319 325 331 330 328 330 330 330 331 331 331 330 330 331 331 331 331 330 329 329 328 327 329 336 338 338 335 337 339 353 349 346 351 355 358 359 359 359 359 359
311 312 316 318 319 324 327 327 327 329 331 329 331 331 329 329 331 333 333 333 334 336 336 338 339 339 337 338 334 333 335 335 335 337 349 348 348 352 357 346 346 358 359 359

GFSCGP_925_thetae_021.txt.gz
Theta_e
324 323 326 325 323 322 322 325 327 328 328 334 339 343 347 354 355 355 355 353 352 351 349 349 349 349 350 351 352 352 351 350 350 349 348 347 347 347 349 349 347 350 350 350
323 325 323 323 322 322 322 323 327 326 326 326 330 334 335 351 356 355 356 354 353 352 351 350 349 350 350 351 351 352 352 351 350 349 348 348 348 349 352 351 349 350 349 349
324 323 323 323 323 323 322 322 325 327 325 325 328 331 334 348 352 354 354 353 352 352 352 351 350 349 350 350 352 352 352 351 351 349 350 351 352 353 353 353 353 351 348 348
321 323 324 324 324 323 321 321 323 325 326 330 331 335 338 340 353 354 355 355 354 353 352 351 351 350 350 351 351 351 352 352 353 352 351 351 351 351 352 352 353 353 349 349
323 324 324 325 324 324 321 321 322 325 327 327 328 332 334 343 352 355 354 354 353 353 353 353 352 350 350 350 351 351 351 351 352 352 352 353 352 351 352 352 353 353 352 350
322 321 324 324 324 324 325 324 325 325 327 329 329 329 333 335 341 348 352 353 354 353 352 352 351 350 351 350 350 350 351 351 351 352 353 353 353 352 352 352 352 353 353 352
323 322 322 323 323 323 324 324 327 326 327 329 329 329 332 332 338 337 349 352 353 353 353 353 354 353 352 351 350 349 351 352 352 352 352 353 352 353 352 352 352 351 352 352
324 324 323 322 324 323 324 324 324 327 326 326 329 330 331 330 331 338 341 347 350 352 352 353 355 354 353 352 351 350 350 352 352 352 352 352 352 353 353 352 351 352 352 352
323 323 323 323 322 323 324 326 323 323 322 324 326 327 328 329 330 334 338 340 345 349 351 352 354 353 353 353 352 351 350 351 352 352 352 352 352 352 352 352 351 352 352 352
324 326 324 324 323 323 323 324 323 323 324 325 326 328 329 333 332 332 336 338 340 341 346 349 351 352 351 351 352 351 351 351 352 352 352 353 352 352 352 352 352 352 352 350
321 322 322 325 324 324 322 324 323 324 323 323 323 324 329 333 337 336 335 336 337 340 341 344 348 349 350 349 350 351 350 351 353 353 353 353 353 352 352 352 352 351 352 351
320 320 326 324 324 324 324 324 324 325 327 323 324 324 325 329 332 334 334 335 336 341 342 343 343 345 347 349 349 349 350 351 352 353 353 353 353 353 353 353 353 352 351 351
319 322 327 326 323 321 325 325 324 325 325 327 324 324 325 326 327 329 330 332 334 337 341 343 342 343 346 347 348 349 349 350 351 352 353 354 354 354 354 353 353 353 352 352
317 319 325 328 326 322 324 322 325 324 327 326 326 325 326 327 328 328 330 332 333 335 339 343 344 347 346 345 346 347 348 349 350 351 353 354 354 354 354 354 354 354 353 353
317 320 319 319 319 319 320 321 321 323 325 328 326 326 326 327 328 329 329 332 332 332 334 337 340 348 350 347 346 346 347 349 350 352 352 353 355 355 355 355 354 354 354 353
314 317 319 318 317 318 320 320 321 321 322 322 323 324 324 324 327 330 329 331 333 334 332 334 339 344 346 347 347 346 347 348 350 352 352 352 354 355 355 355 355 355 354 354
314 317 318 318 318 319 321 320 321 321 322 322 324 324 324 324 326 327 329 332 334 335 336 337 337 342 346 344 346 346 347 348 350 351 352 353 353 354 355 355 355 355 355 354
314 316 315 316 317 321 321 321 324 325 324 323 323 323 324 326 329 331 331 331 333 333 333 336 332 338 344 342 342 345 346 348 350 351 353 353 353 354 355 355 355 356 356 355
311 314 312 313 317 319 318 320 332 336 328 333 338 327 324 325 327 332 329 329 331 332 334 333 329 330 338 341 343 346 348 350 351 352 353 354 354 355 355 356 355 355 356 356
311 313 314 313 312 317 320 323 330 336 331 341 344 346 341 326 327 329 333 329 327 327 328 329 330 333 337 339 340 346 348 350 353 353 353 354 355 355 356 356 357 356 356 356
314 313 314 314 315 315 317 325 338 341 332 342 343 345 347 348 329 334 338 336 343 344 333 329 336 344 344 344 342 348 348 352 351 352 354 355 355 356 357 357 357 357 357 357
314 317 317 313 313 314 315 321 326 340 340 342 343 342 343 346 347 335 345 351 354 353 347 343 350 351 350 347 349 350 352 351 353 354 355 357 357 357 357 358 359 359 358 358
313 312 318 313 313 314 317 323 331 336 339 340 341 340 340 345 347 345 351 350 350 347 347 352 351 348 348 350 352 353 353 351 352 354 356 357 358 359 358 359 360 360 359 358
313 314 317 315 313 315 317 321 326 333 336 336 337 337 339 346 345 347 345 343 340 338 337 336 339 343 344 343 344 346 347 354 354 354 356 358 358 360 360 359 360 360 360 359
312 311 313 316 316 318 317 318 324 331 333 336 334 335 337 340 340 340 339 339 338 338 336 338 343 344 342 342 341 340 340 340 343 350 354 353 356 358 360 361 361 361 360 359
311 313 316 316 316 319 320 323 327 330 334 334 334 337 336 338 337 336 337 337 338 340 342 344 345 345 343 339 338 339 340 340 340 342 342 344 348 351 355 358 361 360 361 360

GFSCGP_925_thetae_024.txt.gz
Theta_e
324 324 325 324 326 328 331 332 334 334 336 335 338 338 339 344 351 351 356 356 355 353 350 348 349 349 350 351 353 353 353 353 354 353 352 349 347 346 346 346 349 352 354 356
325 326 324 324 324 325 327 329 331 333 333 332 336 337 338 341 350 351 355 356 355 354 352 350 350 350 349 351 352 354 353 354 355 353 350 348 346 346 347 347 350 353 355 357
325 325 324 323 325 326 326 327 329 332 333 331 333 336 336 335 340 347 351 353 354 354 354 352 351 349 349 350 353 354 355 354 355 352 351 350 348 348 348 349 352 354 356 357
324 325 325 325 325 325 326 325 326 328 331 336 335 340 340 338 340 343 348 351 353 354 354 353 351 350 349 350 352 354 355 356 356 354 350 350 349 350 350 351 350 352 356 356
325 324 325 325 325 325 324 323 324 325 327 331 334 337 337 338 338 340 344 348 352 353 354 354 353 349 348 350 351 354 356 357 356 356 351 352 352 351 351 351 350 353 355 357
324 324 325 325 325 325 324 323 323 324 326 331 333 336 338 338 339 339 344 348 351 353 353 354 352 349 348 349 352 353 356 358 357 356 356 355 355 353 352 353 352 353 353 354
324 325 324 325 326 325 325 325 327 326 327 329 332 334 336 336 336 337 339 342 351 352 353 354 355 353 350 350 351 353 355 358 358 357 357 357 356 356 355 356 355 353 352 352
326 326 324 325 326 326 326 326 326 328 326 327 330 334 335 335 335 335 336 337 346 352 353 353 355 354 353 351 353 353 355 358 358 357 357 358 358 356 356 356 355 355 352 352
327 327 324 325 325 326 327 329 325 326 327 328 328 330 331 333 334 334 335 336 339 350 353 354 353 353 354 354 354 355 356 359 358 357 358 358 358 357 355 355 357 356 355 353
328 329 326 324 325 325 327 327 325 325 328 329 327 330 331 333 334 334 335 336 338 344 351 352 353 352 353 354 354 355 356 358 358 358 358 358 357 358 357 357 357 357 355 356
327 328 329 326 326 326 326 327 326 326 326 328 328 328 330 331 334 334 335 337 338 341 345 349 350 351 351 353 355 356 356 357 357 358 359 358 357 357 358 358 358 358 357 357
326 328 331 327 326 325 326 327 327 327 330 327 328 328 327 329 330 334 334 336 337 339 341 343 344 348 350 351 353 354 356 356 356 356 359 360 359 358 357 359 358 358 358 357
326 327 330 330 328 327 327 327 327 327 328 331 329 326 329 330 331 333 334 335 336 338 341 344 343 345 348 350 352 352 353 355 355 357 358 358 358 359 359 360 359 359 359 359
320 327 329 331 330 328 329 328 327 327 330 328 330 329 328 328 330 330 330 331 332 337 338 340 342 343 345 347 351 354 351 352 353 354 356 358 360 360 360 360 359 359 360 360
321 327 327 329 326 325 328 327 328 329 329 330 329 330 329 329 329 330 330 330 330 332 335 337 343 346 349 348 350 354 353 351 351 354 355 358 360 361 360 360 361 360 360 360
317 325 324 327 324 323 325 325 326 328 329 329 329 330 329 329 329 330 330 330 330 331 331 331 334 343 345 347 349 349 353 351 352 355 356 357 360 361 361 361 361 361 361 361
317 320 323 327 324 324 326 325 325 326 326 327 329 329 328 328 328 328 329 329 329 331 332 333 335 338 341 340 345 349 351 351 353 355 358 358 360 361 362 362 362 362 362 361
316 317 320 324 325 328 326 326 326 326 326 326 327 327 328 328 329 329 329 330 330 330 332 333 333 333 333 337 337 345 349 353 353 357 358 359 360 361 362 362 362 362 362 361
313 316 317 321 323 325 324 323 324 326 327 326 328 329 328 328 328 328 328 329 331 333 333 333 332 332 334 335 337 341 349 352 353 358 359 359 359 359 360 362 363 363 362 362
313 315 317 317 320 323 323 322 327 326 332 329 335 335 338 341 338 331 330 329 331 331 333 333 331 332 333 335 338 343 348 350 355 357 357 358 359 360 361 362 363 362 362 362
311 315 316 316 317 319 320 325 332 331 343 340 340 341 344 347 344 346 346 343 339 338 338 335 334 334 336 340 341 342 347 350 353 355 355 357 359 360 361 361 362 362 362 360
312 313 313 314 316 317 316 318 325 334 337 336 338 341 344 346 347 348 348 349 343 341 343 345 339 339 344 348 348 347 354 351 353 354 355 358 360 359 359 362 363 362 362 362
311 311 314 314 315 315 316 318 320 322 325 333 332 333 338 342 346 349 351 348 346 347 350 350 346 351 353 354 354 355 354 353 354 355 356 358 360 360 359 362 363 363 363 361
312 312 313 313 313 315 316 316 318 320 323 325 329 330 336 339 344 349 350 349 350 347 348 348 351 352 354 358 359 360 359 357 358 359 360 360 361 362 361 360 361 361 361 363
312 313 314 316 315 314 314 316 318 319 323 327 328 333 337 340 342 348 349 347 345 344 344 347 348 349 349 348 347 346 347 350 358 359 359 360 360 361 361 362 360 360 361 360
312 313 315 315 314 315 316 317 319 322 323 326 329 333 338 338 341 342 342 343 345 346 347 348 348 348 346 345 347 348 348 349 348 347 346 347 349 351 356 357 360 359 359 359

GFSCGP_925_thetae_027.txt.gz
Theta_e
335 336 340 333 338 337 335 335 336 338 339 339 341 343 342 344 347 348 354 355 355 353 349 348 348 348 349 350 353 354 354 354 354 354 353 351 349 348 346 345 345 348 352 355
331 334 332 331 329 332 334 336 336 336 336 338 340 341 340 341 344 347 351 354 355 354 351 349 348 348 349 350 352 356 356 357 356 355 353 351 349 346 346 346 347 351 354 357
329 327 327 326 325 327 330 332 334 335 336 336 338 340 340 339 342 347 349 353 353 354 354 352 350 349 349 350 353 356 357 357 357 355 354 352 350 348 348 348 348 352 355 356
329 327 326 326 325 326 326 327 330 332 334 338 337 341 341 339 340 345 347 351 353 353 354 353 351 350 349 350 352 356 358 358 358 357 354 352 350 348 347 348 348 351 354 355
331 327 327 327 326 326 327 327 327 329 332 335 337 341 341 340 340 339 342 347 352 352 353 354 353 349 348 349 351 354 359 358 357 358 356 353 352 347 348 349 350 350 354 356
328 327 327 327 327 326 327 326 326 327 328 333 334 338 341 341 341 340 341 342 346 349 352 354 352 350 348 348 349 353 359 360 359 359 356 357 353 349 350 351 352 352 352 356
327 328 327 327 328 327 327 327 327 326 328 330 332 335 338 338 338 340 340 341 343 346 351 354 355 353 349 349 350 353 359 363 362 361 359 358 357 353 357 357 352 351 351 350
328 329 328 327 328 328 328 327 327 329 327 327 330 334 335 336 337 337 339 340 344 346 350 353 354 354 351 350 352 354 359 363 363 362 361 359 359 357 355 355 353 353 351 350
329 330 329 328 327 329 329 330 327 328 329 329 328 330 332 334 336 336 338 339 341 345 348 353 353 354 353 351 354 355 358 363 364 363 363 362 361 359 357 355 355 357 355 352
330 332 330 328 328 328 330 328 328 328 331 332 331 332 332 335 336 337 338 338 339 341 348 352 353 354 354 352 353 356 358 363 364 362 363 363 364 363 359 359 360 357 357 356
329 332 332 330 328 329 328 330 329 328 328 331 333 332 333 335 336 336 337 337 338 339 346 351 353 352 354 354 353 355 358 361 364 363 363 362 363 362 363 361 362 361 360 361
329 330 333 331 328 328 329 329 330 330 333 329 331 332 332 332 332 335 336 337 337 339 343 349 351 351 351 353 354 355 356 357 363 362 364 363 363 362 363 363 361 362 362 361
330 331 334 335 331 329 329 328 330 330 330 333 330 332 332 331 332 334 335 336 338 340 341 345 349 350 351 351 354 355 357 357 357 361 362 365 364 364 362 363 363 362 363 363
324 331 333 336 335 330 330 329 328 330 332 331 332 331 332 331 334 335 336 336 337 339 341 343 343 344 348 350 354 357 356 356 357 358 359 362 365 364 364 363 364 364 364 364
325 332 332 332 333 332 330 329 329 330 331 331 331 332 332 332 333 334 334 334 334 337 339 340 341 344 347 352 356 356 354 355 356 359 360 361 364 365 365 365 364 365 364 365
323 328 331 333 331 331 331 331 330 329 330 330 331 332 332 332 332 332 332 332 332 332 333 335 337 340 346 347 352 354 358 355 354 359 360 361 363 365 366 366 366 367 365 366
321 325 331 333 331 331 332 331 331 331 330 331 332 332 332 332 332 332 332 332 332 331 331 333 334 334 340 343 345 349 355 356 355 357 361 360 363 365 367 368 367 367 367 367
318 323 327 330 332 335 331 330 329 330 330 330 331 332 332 332 332 332 331 332 332 332 333 333 333 334 334 335 336 344 346 356 358 359 359 362 362 366 367 368 368 368 368 367
315 318 324 328 331 330 329 329 330 329 330 329 330 330 329 329 330 331 330 331 332 332 333 333 332 332 334 334 334 337 346 352 359 360 362 361 363 365 367 368 368 368 368 368
314 316 319 324 329 333 329 327 326 328 331 329 329 329 331 331 334 336 345 345 342 335 336 336 332 333 334 334 335 336 339 347 358 361 362 363 364 365 367 368 368 368 368 368
314 316 318 320 324 326 327 329 328 331 347 342 333 334 336 340 344 348 347 347 346 346 345 340 342 341 337 337 338 342 343 347 352 356 359 364 364 366 366 366 367 369 369 367
315 316 318 319 321 324 322 323 330 332 331 334 337 336 338 340 342 342 345 348 349 349 345 339 342 345 341 339 343 349 352 350 354 356 359 363 364 364 364 367 368 368 369 369
315 316 316 317 319 320 320 321 321 322 324 327 330 331 332 333 338 339 343 350 351 349 349 348 349 347 348 354 354 353 356 354 356 360 362 364 365 365 364 367 368 368 367 365
315 315 314 315 316 316 317 318 318 319 320 322 323 325 331 333 338 340 344 352 351 350 350 348 351 354 356 361 360 361 364 360 358 360 361 362 363 364 364 363 365 364 363 364
314 314 314 314 315 316 316 317 317 318 318 320 324 328 330 331 336 341 345 352 351 349 347 351 353 355 355 355 354 354 356 362 362 363 363 363 363 363 365 365 361 362 363 362
312 313 315 316 316 316 317 317 317 317 319 322 324 325 326 330 335 341 344 347 350 351 351 353 353 352 351 352 352 353 353 354 355 361 362 361 360 362 363 362 364 361 360 360

GFSCGP_925_thetae_030.txt.gz
Theta_e
335 337 336 333 336 338 340 339 337 338 340 342 340 343 345 347 349 355 354 355 352 352 350 350 349 348 349 351 352 351 352 353 354 354 354 354 351 351 348 347 346 349 352 355
337 338 335 333 334 336 338 338 336 335 336 338 341 340 343 348 348 350 353 355 354 351 351 352 350 349 349 351 354 353 353 353 356 355 355 353 353 351 349 346 348 351 350 355
338 337 334 335 336 333 337 338 336 336 335 337 340 341 342 345 346 345 351 352 353 354 352 352 352 350 349 353 355 357 356 358 357 357 357 354 353 351 348 348 348 348 352 353
337 334 334 335 334 334 333 335 334 335 336 337 337 340 345 343 343 344 345 349 353 355 354 352 353 351 350 353 356 359 359 359 358 357 357 356 354 352 351 349 349 350 350 356
338 334 332 330 332 330 328 328 331 331 334 335 336 338 339 344 343 342 347 350 352 354 354 353 352 351 351 351 357 360 361 360 361 356 359 356 354 353 349 350 350 349 351 352
335 334 330 328 328 327 326 326 327 328 330 336 335 337 341 341 345 342 345 345 352 351 355 355 352 351 351 352 355 359 361 361 360 360 355 359 355 353 351 349 350 354 357 354
332 335 333 328 328 327 326 326 328 329 330 330 333 335 340 339 343 342 342 343 347 352 354 357 356 354 352 353 355 357 362 362 360 361 358 357 358 351 354 352 350 355 353 358
331 331 332 328 328 329 327 327 329 332 331 328 330 333 335 337 337 341 342 342 345 348 351 356 357 355 353 352 353 356 362 363 362 361 362 357 361 357 350 358 354 352 354 353
330 331 329 329 328 329 328 328 328 327 328 328 328 329 331 335 336 338 338 342 343 345 347 354 357 356 354 352 353 355 360 363 363 361 363 361 357 362 355 354 357 356 352 354
329 331 329 329 329 328 329 329 328 329 333 333 330 335 333 335 337 338 340 338 342 345 347 353 356 357 354 352 353 354 359 363 364 364 362 363 361 360 360 353 356 355 357 351
325 329 330 330 330 329 329 331 329 328 329 331 334 332 336 338 339 340 339 340 341 346 348 351 356 356 356 353 353 354 356 362 365 365 364 364 364 360 359 360 357 359 354 360
327 326 331 332 331 329 329 330 331 332 336 331 334 333 334 337 338 338 338 340 341 343 349 350 353 356 357 355 354 355 356 360 364 366 366 365 364 365 363 359 360 360 363 355
327 331 333 334 333 331 331 329 330 331 330 336 332 332 333 334 338 340 339 341 343 346 346 349 353 355 357 357 356 355 356 358 363 365 366 366 365 365 365 364 359 361 361 364
324 329 334 336 335 334 333 330 330 330 332 332 332 333 333 333 333 338 340 341 342 347 347 350 352 355 356 357 358 357 356 357 359 364 366 366 366 365 365 364 364 361 363 363
326 332 332 331 333 333 330 330 330 332 333 334 333 332 336 337 337 338 339 343 343 346 348 351 352 355 357 357 358 359 358 357 358 359 364 365 365 366 365 365 365 365 363 363
322 330 332 334 333 333 334 330 330 330 330 331 332 332 334 337 339 339 340 338 339 341 342 344 346 348 353 361 360 359 359 360 359 359 361 363 364 365 367 366 366 366 366 365
320 326 331 335 334 334 336 333 331 330 330 330 333 335 335 337 338 338 337 336 336 333 334 336 341 347 350 348 359 361 359 359 361 361 362 362 363 365 366 368 367 367 367 367
317 322 327 332 334 338 334 333 332 331 330 331 332 335 338 339 339 337 335 334 334 333 337 341 335 340 338 339 344 351 359 359 359 360 361 365 365 366 367 368 368 368 368 368
315 319 324 332 334 334 334 333 332 332 333 332 332 333 333 333 333 335 332 332 332 337 339 339 335 335 336 339 341 346 349 361 362 360 362 361 366 367 368 369 369 369 370 369
314 317 320 327 332 335 333 331 330 331 333 342 334 331 332 331 331 347 349 348 348 347 348 350 345 344 340 341 337 341 350 357 361 361 362 363 362 366 367 369 370 370 370 370
315 317 319 323 327 331 330 329 329 333 344 340 340 338 336 342 348 346 343 345 347 349 349 346 345 347 347 346 341 349 346 350 359 360 361 362 365 364 366 367 370 371 371 371
316 317 319 320 325 329 324 327 335 337 331 331 334 335 337 337 338 340 341 344 347 351 349 345 347 345 345 345 343 346 353 348 349 353 361 364 365 366 367 368 370 371 370 370
317 318 318 319 322 328 322 323 322 323 325 325 327 326 329 333 335 338 342 345 353 354 353 351 352 353 353 351 357 361 359 357 354 362 363 362 367 368 365 369 370 370 370 370
315 316 317 318 319 320 319 319 319 320 320 322 321 323 330 332 332 335 341 344 351 356 354 348 352 357 365 366 366 364 365 361 360 366 367 366 369 369 368 368 369 369 369 369
313 314 316 317 317 317 317 317 318 318 318 319 320 321 327 327 328 331 338 343 346 352 355 358 359 358 359 358 358 357 358 362 364 363 365 367 367 367 369 368 365 369 367 366
312 312 313 315 317 320 321 318 317 317 318 318 319 321 324 324 328 329 339 343 344 348 349 353 356 354 356 355 355 356 357 358 361 367 366 365 364 365 365 367 366 364 363 362

GFSCGP_925_thetae_033.txt.gz
Theta_e
329 329 328 328 329 332 339 341 339 338 338 341 342 338 349 352 356 356 354 351 351 350 347 347 348 347 347 348 347 348 350 349 347 348 349 348 346 349 350 347 349 346 345 347
331 332 330 330 330 331 334 338 340 337 335 338 341 338 352 350 349 351 351 348 350 349 348 348 347 347 348 350 350 348 351 350 349 349 348 352 351 348 351 346 349 347 348 350
333 334 333 335 331 331 332 335 337 337 335 333 337 341 351 350 347 346 345 346 350 349 349 348 347 347 349 351 350 350 348 351 349 349 348 349 353 352 351 348 347 351 348 351
333 333 335 335 334 332 332 333 335 337 336 335 332 343 340 347 347 345 346 349 351 349 348 348 347 347 349 352 351 350 350 351 352 350 354 353 351 354 353 349 346 352 350 350
334 336 336 335 334 333 334 332 333 335 335 330 333 336 339 344 348 348 348 352 352 351 348 349 348 348 348 352 353 351 352 352 356 354 354 353 354 353 352 350 347 347 348 348
330 335 335 335 333 333 333 332 328 331 331 331 329 331 332 340 342 346 348 352 352 345 347 347 349 348 348 352 355 355 354 356 356 355 356 356 356 354 353 350 347 349 350 349
329 330 335 332 332 331 330 327 326 325 329 329 325 329 330 334 340 339 347 350 346 342 342 349 349 348 349 353 356 358 358 359 359 355 356 357 356 355 351 351 350 349 353 351
330 330 330 333 329 327 327 325 321 324 325 325 324 327 329 331 333 337 342 346 343 347 348 350 349 348 349 350 355 360 359 359 360 359 355 354 359 356 352 352 350 349 352 354
328 328 329 331 330 327 325 324 321 322 326 324 324 323 324 326 329 330 336 340 348 351 351 350 349 349 348 351 354 358 361 359 360 360 359 355 355 360 356 350 354 355 354 353
322 324 329 331 331 328 325 323 323 322 325 326 326 325 325 324 326 329 331 335 342 351 348 351 349 349 349 349 353 355 361 360 359 359 359 358 354 355 361 354 349 355 353 353
321 321 322 327 331 331 325 325 323 322 323 325 330 328 326 325 327 330 330 334 338 344 352 353 351 350 350 349 353 355 358 361 361 360 359 359 357 355 359 360 353 349 357 356
321 323 322 323 327 329 326 325 324 325 324 324 324 327 330 330 328 330 330 333 336 341 350 354 352 352 351 350 352 354 356 361 361 361 359 360 360 359 355 360 360 348 354 354
320 322 325 323 323 325 327 325 325 323 325 326 325 327 332 332 328 332 332 331 334 341 349 352 353 353 351 350 350 352 354 359 361 362 362 361 361 362 359 357 357 360 351 352
317 322 324 327 325 326 327 327 326 325 327 326 327 328 332 333 336 336 334 337 335 342 347 351 352 353 352 351 350 351 352 355 361 362 363 363 362 362 362 360 358 356 360 358
313 321 326 329 329 329 330 328 327 326 326 328 326 331 335 337 338 339 339 338 340 341 346 349 352 353 353 352 351 351 352 354 356 362 363 364 364 363 363 363 363 361 356 358
311 318 324 333 331 330 331 329 328 327 327 328 327 327 332 336 336 335 335 335 333 339 344 344 348 352 353 354 353 352 353 354 355 359 363 364 364 364 364 364 363 364 363 358
311 316 322 333 333 334 335 333 328 328 327 327 329 328 335 337 335 333 334 332 332 331 331 336 340 344 350 355 355 355 355 354 355 356 360 363 364 364 364 364 364 363 363 364
312 313 320 330 332 337 333 332 333 328 329 327 327 334 333 336 339 336 332 331 331 333 335 334 331 332 338 352 357 356 357 357 356 357 358 359 363 364 364 365 364 365 364 364
311 313 319 329 333 333 333 331 330 332 338 338 342 336 336 344 347 348 347 346 346 345 344 344 344 346 343 338 347 358 359 359 360 358 359 359 362 363 364 364 366 365 365 365
312 313 319 323 334 339 326 326 330 331 343 335 339 341 335 345 352 348 344 346 347 347 345 345 345 342 347 345 343 353 359 359 359 361 364 363 362 363 364 364 365 366 366 366
314 316 318 321 327 333 324 326 331 340 339 330 328 334 339 344 344 341 341 344 347 349 348 345 345 344 344 347 342 344 350 357 359 357 357 360 362 365 366 365 365 367 367 367
317 319 319 321 327 333 321 322 332 330 323 324 325 326 333 334 337 342 342 344 347 353 350 351 350 351 349 344 343 347 355 352 355 358 360 360 359 361 364 367 368 368 369 369
319 317 320 320 325 319 320 320 320 320 322 320 321 321 329 329 329 333 341 340 341 349 353 355 355 354 367 364 363 360 362 357 357 354 358 359 360 362 364 366 368 370 370 370
312 313 314 317 317 316 317 319 318 319 318 317 317 319 325 326 326 325 327 340 341 342 346 350 355 358 359 357 357 357 360 363 364 357 369 365 365 365 367 366 368 371 371 369
311 311 313 313 317 317 316 318 318 317 318 319 318 319 323 324 324 323 323 339 338 338 341 345 347 353 356 356 356 356 356 358 361 365 371 368 367 368 368 366 370 368 368 367
311 311 312 313 311 315 314 315 315 317 318 319 320 321 321 322 321 320 319 334 339 339 340 341 345 349 353 352 351 350 354 355 357 364 365 367 367 368 368 367 359 364 365 363

GFSCGP_925_thetae_036.txt.gz
Theta_e
320 320 322 321 322 325 332 335 339 338 338 337 341 352 359 355 353 356 354 353 351 350 347 348 347 346 346 346 346 345 345 345 349 346 346 346 344 345 347 349 348 347 343 345
326 325 322 325 324 325 329 331 337 339 338 334 338 351 356 356 355 355 354 353 352 350 349 348 348 347 347 346 347 346 346 344 346 345 343 345 344 344 346 350 348 347 345 344
328 330 327 328 327 328 328 329 331 337 337 333 336 352 352 353 353 353 352 351 351 350 348 348 348 348 348 347 347 347 346 345 345 344 344 345 343 343 345 350 348 348 346 346
324 329 329 330 329 328 328 328 330 333 334 337 331 349 355 355 354 349 347 349 349 349 348 347 347 348 347 348 347 348 348 346 346 346 346 346 347 350 348 349 349 347 348 349
324 327 331 330 332 331 329 328 329 331 332 332 334 332 354 354 355 347 345 344 346 348 348 347 345 346 347 348 348 348 349 349 349 348 347 346 349 351 352 351 350 347 349 350
321 328 329 331 331 333 331 330 329 330 329 333 333 330 328 357 353 349 345 344 344 348 348 347 347 346 347 348 349 349 351 350 349 349 349 348 348 349 351 352 352 348 350 350
323 323 326 332 333 332 332 329 334 332 331 332 331 325 329 348 349 348 345 344 346 348 348 347 347 346 347 349 349 350 350 353 351 351 351 350 350 350 348 351 351 348 350 351
323 324 324 328 332 334 332 330 332 336 329 330 322 323 325 326 342 343 344 345 348 348 346 347 347 346 346 350 350 349 351 352 353 352 352 352 352 351 350 352 352 350 347 349
320 323 324 326 330 333 328 332 321 318 319 320 323 321 321 322 323 334 346 348 350 349 347 346 347 347 347 350 352 351 351 351 355 354 354 355 354 353 352 353 351 351 349 349
316 321 322 324 328 329 330 322 324 316 322 323 322 321 324 322 322 322 343 348 350 350 347 345 346 347 347 349 352 353 352 352 354 355 354 354 356 355 354 354 353 350 351 350
313 318 321 321 327 329 327 326 322 321 317 321 323 324 321 321 321 322 338 345 349 349 347 343 346 347 347 348 351 355 355 354 355 357 356 354 353 353 358 356 354 351 351 355
314 318 323 322 320 323 329 323 320 322 319 318 321 325 326 323 323 322 323 346 346 346 346 345 347 347 347 348 350 354 357 356 356 357 357 357 356 353 353 357 358 354 351 349
315 320 321 322 318 319 321 328 321 316 317 320 323 324 323 323 325 327 325 329 343 344 346 348 348 347 347 347 349 353 357 358 357 357 357 357 357 356 354 353 356 358 356 352
314 311 317 322 322 321 322 323 323 322 322 321 322 324 325 324 327 324 324 327 333 345 349 348 348 347 348 347 348 352 353 358 358 358 357 356 357 357 356 354 353 356 358 356
311 310 312 315 318 322 325 326 327 323 322 324 323 324 322 324 331 329 328 328 337 348 349 349 350 349 348 348 348 351 352 356 358 358 358 358 357 358 358 358 356 353 355 356
309 309 311 315 326 328 328 328 328 324 324 322 321 323 321 328 330 332 333 336 339 348 351 351 351 350 350 349 348 350 351 354 358 359 359 359 359 358 358 359 359 357 356 354
309 308 311 320 325 330 333 329 329 324 323 324 324 323 331 334 343 342 328 330 335 344 350 352 351 350 350 350 349 349 350 352 356 358 359 360 360 361 360 360 360 360 360 358
309 309 309 319 324 335 327 324 327 335 333 331 337 336 341 348 347 346 346 338 340 340 337 334 342 347 351 351 350 349 350 351 352 355 359 360 361 361 362 361 361 361 361 362
309 309 311 321 327 329 327 324 324 328 332 326 330 343 347 345 346 346 343 347 344 341 340 340 341 338 348 352 352 351 350 351 352 352 354 359 361 362 362 362 362 362 362 361
312 311 310 315 329 335 325 323 327 329 332 324 330 341 343 338 351 345 342 349 351 344 340 338 338 344 342 343 353 353 352 352 352 352 354 354 359 361 362 362 362 363 362 362
315 314 317 321 331 327 322 321 324 333 331 323 325 328 333 343 341 340 340 342 349 350 348 349 353 348 341 341 345 353 354 355 355 354 354 355 356 358 361 362 362 362 363 363
320 321 320 324 328 332 321 321 321 319 319 318 322 325 325 324 325 334 339 339 341 345 349 355 359 358 358 351 350 357 356 356 356 357 358 358 358 358 359 361 361 362 363 364
317 316 319 319 323 318 321 320 317 317 317 320 318 320 322 322 321 321 336 336 336 338 342 346 352 354 356 356 357 356 357 361 358 357 358 359 361 363 363 362 362 362 364 364
312 311 315 314 316 313 319 317 315 314 316 319 318 316 320 320 319 318 320 335 335 335 338 342 345 352 352 353 354 355 355 357 361 361 358 359 358 360 362 363 364 365 365 366
309 309 310 311 310 312 315 313 312 312 314 317 318 318 320 317 316 316 316 321 334 335 337 340 343 347 350 350 350 349 350 352 355 359 365 367 364 363 363 364 364 367 367 367
309 310 311 310 308 307 308 310 310 311 312 317 317 317 317 316 315 320 320 322 333 335 337 339 342 347 349 349 348 348 349 352 353 355 361 366 367 366 365 362 353 359 367 368

GFSCGP_925_thetae_039.txt.gz
Theta_e
315 315 317 316 320 323 328 334 338 338 337 341 348 349 359 355 354 354 352 352 350 349 347 347 347 346 345 345 343 343 344 344 346 346 344 347 347 346 348 349 349 346 350 353
318 318 317 317 319 322 322 326 332 334 334 334 336 347 358 355 355 354 353 352 350 348 347 346 346 347 345 345 344 342 343 344 345 347 346 348 347 345 345 348 349 347 349 351
323 323 320 321 320 322 322 323 327 332 333 334 339 350 350 357 355 354 352 350 350 349 349 347 345 345 346 345 345 343 343 343 344 346 347 347 346 345 344 345 348 348 347 346
322 323 324 321 324 323 323 324 327 329 332 334 332 358 362 358 357 355 354 352 351 349 347 346 346 346 345 345 345 345 344 344 344 346 347 346 345 345 344 343 346 348 347 346
322 324 325 325 324 325 326 324 327 328 328 330 332 335 352 357 360 357 354 353 352 350 348 347 346 346 346 345 345 345 345 344 344 346 346 346 345 343 343 342 343 349 347 347
316 318 323 325 327 326 327 326 326 327 326 331 330 332 329 353 357 356 354 352 351 350 349 347 347 347 348 347 346 346 346 345 345 345 345 344 345 345 343 344 344 348 349 347
320 319 320 324 326 327 329 325 329 330 330 334 329 329 332 342 349 351 352 351 349 345 348 347 347 347 348 347 346 346 346 346 346 345 345 345 345 344 342 344 346 349 349 348
318 323 322 321 327 329 329 328 330 333 334 335 325 329 327 331 345 347 348 347 345 341 345 347 345 345 347 347 347 346 348 347 347 346 347 347 347 345 346 345 346 350 351 350
318 320 316 322 322 329 329 332 326 323 317 324 330 320 320 323 336 345 347 346 344 341 343 346 346 345 345 346 347 347 348 348 347 347 348 348 348 347 347 347 347 346 350 351
315 317 316 320 322 325 330 326 330 320 328 328 322 321 326 322 325 332 346 346 344 342 342 345 346 346 345 346 347 348 348 349 349 349 349 349 349 349 349 349 349 347 351 350
314 315 319 320 321 323 325 328 329 328 320 329 320 325 318 321 321 322 338 342 342 343 344 345 345 346 346 346 348 348 348 348 350 351 350 350 351 350 350 350 349 349 350 350
312 317 323 323 319 318 324 325 319 333 327 316 319 325 322 319 319 321 328 337 341 345 345 346 345 344 346 346 348 349 348 348 349 351 351 351 352 352 352 351 351 350 351 351
312 320 317 320 318 318 320 326 321 322 317 320 330 329 318 320 323 318 320 332 338 345 346 346 345 344 345 346 347 350 350 350 349 351 352 352 352 352 353 354 354 353 352 352
313 315 313 319 319 315 319 320 324 320 319 322 322 326 323 321 321 321 322 325 334 343 346 347 345 343 345 346 346 349 352 352 351 351 353 354 354 353 352 352 353 354 354 353
311 313 309 311 312 312 314 316 319 319 321 322 321 318 320 320 321 327 328 324 323 338 346 346 345 343 345 346 346 349 352 354 353 353 354 355 355 355 354 353 352 352 353 352
310 313 309 311 313 313 315 321 325 325 321 320 319 320 319 327 340 343 331 325 331 340 343 344 345 344 345 345 346 347 352 355 355 355 355 355 355 355 355 355 354 353 353 353
310 311 309 313 318 323 328 325 328 328 327 326 321 326 327 344 348 348 348 331 329 338 342 343 345 345 345 346 346 347 350 354 356 355 355 356 355 355 355 355 355 354 353 352
310 310 307 311 318 335 323 322 324 329 327 327 332 336 342 348 347 348 346 349 340 338 341 344 346 346 346 346 346 346 350 351 355 356 356 356 356 355 355 356 357 357 356 354
307 310 309 314 323 327 325 323 324 324 328 324 329 336 347 349 349 349 343 349 345 338 337 341 346 347 347 347 347 347 349 350 353 355 356 357 357 357 358 357 357 357 358 358
310 310 315 311 331 334 325 323 320 323 328 321 326 326 342 347 356 349 340 343 350 352 345 337 342 348 349 348 347 347 348 348 350 353 355 356 357 358 358 359 359 359 359 359
316 316 316 316 332 327 321 321 319 325 323 319 322 324 324 335 339 339 335 337 342 348 355 353 344 339 339 349 348 348 348 348 349 350 351 354 357 358 359 359 359 360 360 360
317 319 323 326 329 331 319 320 321 317 318 318 320 322 322 321 322 331 335 335 338 341 346 352 353 353 353 347 350 350 353 352 350 350 351 351 353 357 358 360 361 360 361 361
317 313 318 319 321 318 320 320 314 313 313 314 319 318 321 320 322 323 326 333 336 338 341 346 350 350 352 354 355 354 355 360 354 354 354 352 352 354 355 358 359 360 360 360
312 311 313 313 312 312 317 315 312 312 312 312 315 318 318 319 321 325 325 333 334 336 339 342 347 347 346 348 349 350 352 356 358 358 358 356 357 356 355 356 358 358 359 360
310 310 311 311 310 312 313 311 310 311 311 312 311 316 318 321 325 328 328 330 330 331 334 337 341 345 345 347 347 349 349 349 354 357 359 364 361 357 359 360 360 360 360 361
309 310 311 312 309 310 310 310 310 311 312 311 311 315 316 318 321 324 325 325 327 328 328 333 336 340 344 345 346 348 349 349 350 353 354 360 364 361 356 350 347 354 362 364

GFSCGP_925_thetae_042.txt.gz
Theta_e
314 314 315 315 320 324 327 332 336 336 336 345 346 348 359 355 351 353 351 347 344 344 344 346 346 345 345 345 344 344 341 339 340 343 343 343 344 345 346 346 346 346 347 350
315 315 315 314 314 320 322 323 327 331 335 338 339 347 357 356 354 352 351 350 348 346 345 346 347 345 344 343 344 344 343 341 341 342 343 343 344 346 346 347 348 348 346 349
317 316 316 316 317 316 318 322 323 331 331 333 336 341 357 356 353 352 351 349 349 348 346 346 346 346 345 343 342 343 344 342 342 342 345 344 345 347 345 346 347 348 347 348
319 319 320 316 317 318 316 320 324 324 329 333 335 342 353 358 357 354 352 351 349 348 347 345 346 346 345 345 344 343 343 343 342 342 344 345 345 346 345 344 346 347 347 347
320 321 321 321 317 318 318 319 321 324 327 329 330 334 342 356 360 356 354 352 349 348 347 346 345 345 345 345 344 344 344 343 343 343 343 344 346 347 345 344 344 347 347 346
315 315 317 322 322 319 322 323 322 324 323 330 328 332 331 357 359 356 353 352 351 349 347 346 346 345 344 345 344 344 344 343 343 343 343 344 345 346 345 344 343 343 345 346
318 318 315 317 321 321 324 323 326 327 328 332 329 331 331 329 354 353 353 352 351 349 348 347 346 345 345 344 344 344 344 343 343 343 344 345 344 345 345 343 342 342 343 347
317 320 318 317 318 323 324 324 326 330 329 330 325 331 329 329 341 351 350 350 350 350 349 348 347 346 345 345 345 344 344 344 344 344 344 345 345 345 344 342 343 340 340 344
315 318 314 316 318 321 324 327 322 324 319 325 327 324 323 325 330 344 347 349 349 349 349 348 348 347 346 346 346 345 345 344 344 344 344 345 345 344 344 343 344 341 341 344
314 317 314 316 319 319 324 324 328 323 334 326 326 320 333 323 326 332 340 345 347 347 345 345 346 346 346 346 346 345 345 345 344 345 345 345 345 345 344 344 345 344 343 344
312 316 315 315 320 321 322 329 328 326 323 332 322 322 322 324 326 327 332 343 344 345 343 341 343 346 345 346 347 346 345 345 345 345 345 346 346 345 345 345 346 346 346 346
313 316 318 317 317 318 318 322 326 332 328 319 322 329 321 320 321 323 325 338 342 343 342 340 340 345 345 344 346 346 346 346 347 346 346 346 347 347 347 347 347 347 347 347
311 313 318 317 316 314 318 320 321 318 328 330 334 330 321 318 319 318 320 323 336 342 342 341 340 343 345 344 345 346 346 346 347 348 347 347 348 348 348 348 348 348 348 348
312 314 315 316 317 313 314 314 319 319 327 331 331 329 327 325 320 320 318 319 325 338 340 341 342 343 345 345 345 347 346 347 347 348 349 348 349 349 349 349 349 349 349 348
309 314 313 312 312 312 313 313 314 316 319 328 325 325 325 323 322 318 319 320 321 328 340 343 344 344 344 345 345 347 347 347 347 348 350 349 350 350 350 350 351 350 350 350
310 312 314 312 311 311 312 314 315 316 319 318 319 319 326 319 331 345 345 343 331 326 328 341 344 344 344 344 345 347 348 348 348 348 350 351 350 350 350 350 350 351 351 351
310 313 312 310 312 314 317 318 325 328 328 327 321 326 332 336 349 347 347 348 349 336 324 329 343 344 343 344 345 346 349 350 350 349 350 351 352 352 351 351 350 350 351 351
310 311 311 312 311 328 324 323 326 325 322 326 328 328 341 341 347 345 341 345 347 347 336 334 343 343 342 344 345 345 349 352 352 351 352 352 353 353 353 353 353 352 351 351
308 310 312 312 315 327 325 322 323 325 325 320 324 326 330 342 344 347 339 339 345 351 338 338 341 342 342 344 345 345 349 353 354 353 353 353 353 353 353 353 354 353 353 352
309 309 312 315 320 338 324 320 320 321 328 319 320 324 325 342 351 348 337 339 344 350 348 340 342 343 343 344 344 347 349 351 354 354 354 354 354 354 353 354 354 354 355 354
313 312 311 316 321 328 320 321 317 328 324 317 320 321 322 329 329 328 337 340 343 348 351 345 345 344 344 345 344 347 348 349 350 353 354 354 355 355 355 355 354 355 355 356
316 317 322 322 331 334 320 317 320 316 314 314 316 319 321 326 332 330 334 337 339 344 347 350 350 349 343 345 345 346 347 348 348 350 353 354 355 356 356 356 357 357 357 357
315 313 314 316 320 313 317 314 312 312 313 314 313 317 322 327 330 330 331 331 333 336 339 345 345 347 348 349 347 350 354 351 348 348 350 351 354 355 356 357 358 358 358 359
311 310 313 314 312 313 315 313 311 311 313 313 312 314 318 325 327 327 325 327 328 329 334 337 343 343 344 347 350 352 354 355 352 352 349 349 350 352 355 356 358 358 359 359
311 310 310 312 311 312 314 311 311 311 312 313 313 313 316 319 322 322 320 321 322 324 328 335 337 340 341 345 347 348 348 353 356 358 359 354 353 351 351 353 355 357 358 359
311 311 312 314 311 311 311 311 311 312 311 312 313 313 313 316 319 321 319 318 319 320 324 332 338 338 340 343 346 348 348 346 347 352 354 360 357 354 354 351 347 352 355 357

GFSCGP_925_thetae_048.txt.gz
Theta_e
320 323 324 323 324 324 326 329 330 336 341 350 352 351 353 356 355 356 355 354 351 349 345 343 343 343 343 344 346 345 346 346 346 344 343 345 347 347 349 349 352 354 353 354
321 321 322 323 322 323 323 330 334 334 337 345 351 351 349 357 356 355 354 353 351 348 347 344 343 344 345 345 346 347 346 348 348 343 342 344 346 346 348 351 354 354 354 355
323 323 321 320 321 322 323 323 326 333 335 336 346 352 351 351 356 355 353 351 350 348 348 347 345 345 345 347 347 348 348 348 348 342 343 346 347 349 351 352 351 353 354 355
322 322 322 321 321 321 322 322 322 324 331 340 340 352 351 349 356 356 356 353 351 349 347 347 347 346 346 347 348 348 349 349 348 345 342 345 347 346 346 349 349 352 355 354
326 325 325 325 323 322 323 322 321 321 323 333 339 346 348 349 351 357 356 355 352 350 348 348 348 347 346 346 348 349 350 350 347 347 343 344 344 341 344 347 350 352 356 355
323 323 323 325 325 324 323 323 322 322 322 323 332 342 347 348 350 349 353 353 354 353 350 348 347 348 348 347 347 349 350 351 349 347 347 345 343 341 344 347 348 349 350 353
319 320 323 323 326 327 325 325 328 327 325 323 325 331 341 342 344 347 349 352 353 353 353 351 349 348 349 349 347 347 350 353 351 349 350 347 346 346 347 350 348 347 346 348
315 316 318 320 323 327 326 326 331 333 328 324 324 326 331 336 339 341 346 348 351 353 353 353 352 349 349 349 348 348 349 352 352 350 351 351 349 348 348 350 349 348 346 346
315 314 318 318 321 324 327 328 327 330 330 330 326 324 324 331 336 338 340 345 348 352 353 354 353 351 349 350 350 350 351 351 352 350 351 353 351 350 349 349 350 349 349 347
315 311 312 314 315 320 325 326 329 328 333 334 331 330 326 329 336 337 338 340 345 350 353 354 353 352 350 350 350 350 350 352 352 350 350 351 351 351 350 350 351 351 350 351
312 311 312 310 311 316 322 325 326 328 329 333 334 331 329 328 329 335 337 339 341 348 352 353 353 352 351 350 350 351 351 351 352 352 351 350 350 350 352 352 352 353 353 352
312 313 315 311 310 311 313 322 325 329 331 331 332 333 329 329 329 330 334 338 340 344 349 352 352 352 352 351 350 350 351 351 352 352 353 351 351 351 351 353 352 353 354 354
312 312 313 310 310 311 312 314 320 324 328 332 334 334 331 331 332 331 331 333 339 341 345 350 351 352 352 352 351 350 350 350 351 351 351 351 351 351 351 353 353 354 354 355
309 309 311 311 311 310 314 316 318 323 327 329 330 331 333 332 331 332 333 334 334 337 342 345 349 351 352 352 355 353 351 350 350 351 351 352 352 352 352 352 353 354 354 355
312 315 311 310 310 310 310 309 314 320 323 327 327 329 330 334 332 332 333 333 333 334 338 345 347 350 355 355 356 355 352 352 351 352 351 353 354 353 353 354 354 354 355 356
312 314 311 311 310 310 309 308 309 312 317 321 323 326 327 332 334 333 332 334 335 339 338 336 343 347 351 352 356 357 356 354 353 355 354 354 356 355 355 355 356 356 356 356
313 314 313 311 309 308 309 309 311 311 315 319 323 325 329 334 336 337 337 337 342 344 345 347 344 343 346 349 353 355 357 355 354 356 356 356 357 358 357 357 358 357 357 357
313 314 314 312 309 312 310 310 311 313 314 318 321 324 327 335 338 349 348 348 349 348 349 349 349 348 342 345 348 352 353 356 356 358 358 358 359 359 359 359 359 359 358 358
311 313 313 314 312 311 311 313 318 314 316 318 324 325 326 331 338 351 347 346 347 349 350 351 350 349 349 343 345 350 352 355 357 358 359 359 359 359 359 359 359 359 359 359
310 313 315 313 313 314 315 311 310 321 325 328 330 332 330 334 343 344 343 342 343 346 348 350 352 354 352 351 344 348 352 354 358 358 359 359 360 360 360 360 360 360 359 359
315 316 315 313 313 312 310 310 310 326 331 325 326 330 341 341 340 334 331 334 336 341 346 351 353 354 352 349 344 352 354 355 357 356 356 358 359 360 360 361 361 360 359 358
313 314 314 313 314 314 311 310 318 325 319 318 319 326 328 325 324 323 324 324 328 336 349 354 351 347 345 342 349 357 358 356 357 357 357 359 360 359 359 361 362 361 360 360
314 312 315 313 315 312 307 308 316 316 318 317 318 322 321 320 321 321 322 321 322 326 339 353 354 351 349 350 350 355 358 357 357 358 360 360 360 360 360 362 363 362 362 361
309 306 310 310 311 307 311 312 315 316 315 315 316 316 319 321 321 321 322 323 322 323 325 342 352 357 357 353 353 354 357 359 359 360 361 361 362 361 360 362 362 361 361 361
308 309 310 309 307 309 312 311 315 314 314 314 315 316 316 319 321 320 323 324 324 323 324 327 340 349 350 351 353 358 359 358 360 361 361 362 362 361 362 362 357 361 360 360
310 310 311 312 309 309 309 312 313 314 313 313 314 315 317 318 319 321 323 324 324 324 324 326 328 337 343 344 347 349 354 360 356 358 359 360 360 362 362 362 354 353 348 356

GFSCGP_925_thetae_051.txt.gz
Theta_e
326 328 328 330 330 328 327 327 330 334 340 349 352 356 364 354 355 357 357 356 353 352 348 346 345 344 343 343 343 345 346 347 347 347 348 347 347 347 348 349 353 354 352 353
325 325 326 326 326 326 326 327 331 332 338 349 352 353 353 354 354 357 357 356 353 352 349 347 346 345 343 343 343 345 347 349 347 346 346 347 347 347 347 347 352 354 354 354
329 326 324 325 326 326 326 327 329 335 337 340 348 353 353 356 354 355 355 354 353 351 351 349 347 345 344 344 344 346 348 350 349 345 344 345 347 347 347 351 352 353 355 355
325 325 325 325 324 326 327 326 325 328 337 343 342 354 354 354 356 356 355 354 354 351 350 349 348 346 344 345 345 347 348 350 350 347 342 345 347 346 345 348 348 352 354 355
327 324 324 325 325 324 326 326 325 324 327 333 339 347 351 352 358 356 356 354 352 352 349 350 348 347 346 345 347 347 350 351 349 349 344 345 347 345 345 344 352 351 355 355
325 326 325 325 325 325 325 325 326 325 324 326 332 343 347 351 351 354 353 355 353 352 350 349 347 347 347 346 347 348 352 353 352 351 345 347 345 345 342 344 350 349 351 353
319 322 325 325 326 326 326 327 330 330 327 326 327 336 343 343 348 348 352 353 354 352 351 351 350 349 349 348 348 350 353 356 354 353 349 349 348 345 347 348 346 346 346 347
318 319 319 323 324 327 328 328 330 334 332 328 325 329 334 339 342 345 350 351 352 353 351 351 351 349 351 350 350 350 354 357 356 353 351 349 349 345 342 345 347 346 345 345
316 318 320 322 322 325 328 330 328 329 331 333 330 327 327 332 336 341 343 348 350 352 353 352 351 350 351 351 352 351 354 357 356 352 352 352 350 345 343 341 347 352 347 346
317 320 319 318 320 321 325 328 330 329 332 335 334 333 328 328 331 335 341 344 348 350 353 353 353 351 350 351 352 352 353 356 357 353 354 353 354 353 348 349 353 350 350 348
314 316 316 315 317 317 318 322 327 329 329 331 335 335 332 330 329 330 334 340 343 346 351 352 353 352 351 351 351 352 352 354 355 355 355 352 352 352 352 354 353 353 353 353
313 314 316 315 315 315 315 318 320 327 333 332 331 333 332 332 330 329 332 337 339 342 347 351 352 353 353 352 351 352 352 352 354 354 356 354 353 352 352 352 354 355 356 355
314 315 315 316 316 315 313 315 321 324 325 332 333 331 332 332 331 332 331 332 337 339 343 350 351 353 353 353 353 352 352 351 352 355 356 355 353 354 352 354 354 355 356 357
311 314 316 317 317 314 316 313 315 320 325 327 330 332 331 333 332 333 333 332 334 339 344 346 351 351 352 354 356 355 352 351 350 352 353 355 356 355 354 353 355 355 357 358
312 313 314 314 313 313 313 314 315 317 319 322 326 329 332 333 334 333 333 334 335 335 340 344 348 355 359 356 358 357 354 353 351 352 352 355 357 355 355 354 356 357 358 358
312 315 314 317 314 312 312 312 313 312 313 319 323 326 327 328 329 332 334 334 335 336 337 339 344 347 354 358 359 359 357 355 353 354 353 353 356 356 356 355 357 358 359 360
315 315 316 317 315 313 313 313 312 312 312 312 315 320 322 324 327 329 333 335 334 336 337 340 338 344 346 349 356 357 359 356 356 357 355 356 358 358 358 358 359 360 360 361
316 318 320 319 314 316 313 312 311 311 312 313 313 314 317 321 324 327 336 347 349 347 344 345 346 344 342 345 348 353 356 359 359 358 361 357 360 361 360 361 361 361 361 361
313 318 320 320 317 313 311 311 310 317 316 317 319 319 316 318 321 325 330 348 348 349 349 349 348 348 347 344 344 351 354 361 360 362 361 361 361 362 363 363 363 363 363 363
313 315 318 317 316 316 313 312 315 314 319 315 318 320 318 317 321 326 344 349 348 347 347 349 350 350 351 350 347 346 353 357 362 362 362 362 362 363 364 364 364 365 364 364
316 319 319 320 317 315 312 312 312 315 316 319 324 323 318 321 324 328 339 341 341 345 348 349 352 352 353 353 351 350 351 357 359 361 362 364 363 365 365 365 365 366 365 362
316 317 318 316 317 318 314 313 314 315 313 310 321 322 325 331 336 333 331 334 336 338 340 346 357 357 356 355 357 357 355 355 358 361 362 364 365 364 363 366 366 366 366 365
317 316 317 317 316 315 313 311 311 308 311 312 322 329 332 332 331 329 328 329 331 330 335 339 354 358 350 351 356 360 353 359 360 361 362 363 365 365 363 366 367 366 366 363
311 309 310 310 312 312 311 308 309 310 312 316 317 321 324 326 325 325 325 324 326 326 327 331 344 361 360 359 352 352 363 360 363 364 363 364 365 366 364 364 365 363 362 363
309 308 310 310 308 306 309 310 309 312 314 316 316 318 320 322 324 324 325 324 323 324 325 327 333 342 346 351 356 360 360 361 362 364 365 364 363 363 364 365 363 363 357 358
309 309 309 311 306 309 308 308 311 314 314 315 318 317 316 319 322 324 325 323 322 323 324 325 328 332 333 335 337 341 354 362 362 364 363 364 361 363 364 356 352 356 353 354

GFSCGP_925_thetae_054.txt.gz
Theta_e
331 332 332 331 329 331 329 328 327 331 334 349 352 358 353 351 349 357 357 355 354 351 348 347 345 344 345 343 346 348 347 350 348 348 351 350 348 348 348 349 351 352 353 353
328 331 331 327 330 330 331 330 328 329 332 342 358 358 353 350 355 356 356 354 353 351 350 349 346 344 345 345 346 348 348 350 348 350 350 349 347 347 349 349 354 353 352 353
327 327 326 327 327 329 328 329 328 329 332 337 341 356 352 347 350 352 352 352 352 352 352 351 348 346 345 346 347 348 349 351 348 350 347 349 349 350 348 354 353 354 353 353
329 328 327 325 327 327 328 327 327 327 330 337 339 348 359 359 359 351 348 353 352 352 352 352 349 347 345 347 347 348 350 353 348 348 347 348 349 350 345 354 353 351 353 353
326 327 328 327 326 326 327 328 328 327 327 331 339 343 344 361 361 354 357 356 352 352 351 352 350 348 346 347 348 348 350 354 351 347 348 345 348 348 348 345 354 353 353 355
323 326 325 325 325 325 326 326 327 328 326 327 329 335 340 350 356 351 354 354 353 352 352 351 350 349 347 348 347 350 350 352 353 346 350 346 347 348 348 345 353 355 354 354
321 323 326 327 325 325 326 326 328 329 329 327 326 327 333 340 355 354 349 348 348 354 352 353 352 351 349 348 349 350 352 352 354 354 348 353 346 346 349 347 352 353 355 352
319 317 320 325 327 326 326 326 328 331 330 329 329 327 328 331 341 351 349 350 351 354 353 352 352 351 350 349 349 350 354 354 354 356 350 349 351 343 346 349 345 347 349 351
317 319 321 320 324 325 327 330 327 328 329 330 330 329 328 329 334 345 348 351 351 352 353 352 353 351 351 350 350 352 354 356 356 353 355 349 353 351 347 346 346 349 346 348
318 319 320 321 322 323 324 326 329 329 333 336 331 334 331 331 334 340 347 346 348 352 350 353 353 352 352 351 352 352 355 356 357 355 355 353 349 351 347 341 343 345 351 347
315 316 317 320 320 320 321 322 325 329 331 333 333 332 335 339 333 336 348 348 344 347 352 350 349 352 352 352 353 353 354 357 358 358 355 354 352 349 345 349 339 351 347 354
316 314 317 317 318 319 318 319 318 321 333 332 332 331 332 335 333 332 331 335 350 351 352 349 342 342 353 354 353 354 354 357 359 359 356 355 354 351 350 343 353 348 355 350
316 316 316 317 317 317 316 316 316 317 319 327 333 332 331 333 336 333 332 332 339 352 342 341 346 349 354 354 354 355 354 354 358 360 357 357 355 355 354 351 348 355 353 356
313 315 317 318 318 317 318 317 316 316 321 323 323 329 334 333 336 337 338 339 336 341 347 347 353 354 356 354 354 355 355 355 355 358 358 358 356 355 354 355 351 356 357 356
313 314 315 315 315 315 316 316 316 316 316 322 323 325 329 330 331 334 336 337 339 340 339 344 347 353 360 357 356 355 355 354 354 355 357 358 359 357 355 354 356 352 355 358
313 314 315 316 315 316 316 315 315 316 315 316 318 321 323 326 327 331 333 334 334 335 340 343 341 359 358 360 359 357 356 355 354 354 356 357 358 358 357 355 356 357 356 358
316 316 316 317 314 316 317 317 315 315 316 316 316 319 320 320 322 326 327 327 329 332 333 343 346 348 353 357 360 359 357 356 356 355 355 356 358 359 358 358 356 358 358 358
315 318 320 320 317 322 317 316 316 314 315 315 315 316 317 318 318 319 321 323 326 331 334 354 343 349 350 348 345 360 359 358 358 357 358 356 358 359 360 359 359 357 359 359
313 316 320 321 319 316 314 315 315 317 315 314 316 317 317 316 317 319 320 321 324 328 334 350 348 349 351 352 351 357 361 360 359 359 358 358 357 359 360 359 359 359 360 361
314 315 321 320 319 317 314 313 314 314 316 314 314 314 315 316 318 321 321 320 327 347 347 348 348 349 349 350 351 352 358 363 360 359 360 361 358 360 360 360 360 360 361 362
318 320 322 321 320 315 313 313 314 315 314 317 317 318 318 319 323 326 326 322 339 343 344 347 348 351 352 352 354 355 354 358 363 359 360 361 361 360 363 362 362 363 363 363
316 322 320 321 320 319 316 316 317 316 316 315 314 314 316 316 319 324 326 332 338 340 340 343 347 350 355 358 355 356 359 355 358 363 361 365 364 362 364 365 366 365 365 366
318 314 314 315 318 314 313 314 313 313 313 313 313 313 315 317 320 321 332 335 335 333 334 337 344 352 363 360 363 358 359 359 359 363 363 364 365 365 364 366 367 367 367 367
310 308 311 311 312 311 311 309 308 309 310 309 310 312 315 317 320 330 329 328 327 327 328 329 337 344 344 344 350 363 360 360 358 364 366 364 367 367 365 367 367 368 368 368
310 310 309 310 309 307 309 308 308 309 310 310 311 315 317 319 326 325 325 324 324 325 326 328 332 333 334 337 345 350 352 361 357 366 366 365 366 367 367 365 367 367 366 367
309 310 309 310 307 305 306 307 305 307 312 313 315 317 317 319 324 322 322 322 323 324 325 324 325 326 326 328 336 341 345 351 367 366 366 366 366 366 367 365 358 365 367 363

GFSCGP_925_thetae_057.txt.gz
Theta_e
331 333 332 328 327 327 329 330 328 326 328 346 357 365 363 353 356 360 358 353 351 349 347 345 343 344 345 343 342 346 349 348 346 347 347 349 349 349 349 351 353 350 352 351
329 332 331 330 329 329 327 328 328 329 327 330 353 362 355 357 354 358 354 353 351 349 348 345 343 345 347 344 342 345 347 348 349 349 346 349 348 349 348 349 351 352 351 350
327 328 329 330 330 327 327 327 328 328 327 336 354 358 354 351 353 353 354 350 349 348 347 346 343 343 346 348 344 346 348 348 347 349 345 349 347 347 347 351 351 352 352 352
326 327 327 327 328 326 324 326 327 326 325 326 351 362 355 352 357 358 351 348 347 348 346 345 344 344 344 346 347 345 350 348 347 346 346 349 352 352 349 348 352 353 352 349
324 324 327 328 326 324 324 326 325 326 324 323 324 326 352 353 359 355 356 345 343 344 347 346 344 343 344 346 346 347 349 348 347 349 345 347 349 349 349 349 352 351 351 352
318 320 323 326 327 325 325 324 323 323 323 325 323 324 330 359 357 351 345 343 343 345 348 346 345 345 346 346 347 348 350 349 346 346 348 346 347 348 350 351 350 352 353 353
318 320 321 322 324 322 323 322 322 324 324 326 323 322 321 354 354 350 347 345 347 354 348 348 346 345 345 347 347 349 351 353 348 346 349 346 345 346 347 348 353 353 352 354
315 315 315 321 324 326 322 320 322 326 327 326 324 325 323 324 353 347 345 348 353 350 343 348 347 346 346 347 347 349 349 352 353 348 345 349 344 344 348 351 355 353 354 352
316 317 318 319 322 325 325 325 321 322 323 325 325 325 325 324 339 349 348 350 348 348 351 348 349 347 347 347 347 348 349 349 353 351 346 346 350 343 344 347 351 352 353 352
315 314 316 317 319 323 323 323 322 322 326 328 327 327 328 327 325 347 349 348 353 352 352 350 349 349 347 347 347 348 350 350 352 353 350 346 349 347 342 343 346 349 344 346
315 313 313 314 317 319 321 320 321 321 325 328 326 326 326 331 332 347 348 347 352 349 351 350 348 349 346 348 347 349 352 351 351 351 353 349 347 350 347 344 343 345 347 349
314 313 312 313 314 315 315 318 317 318 322 326 330 331 327 329 333 339 347 346 350 350 350 349 346 346 346 347 348 349 351 353 353 353 352 354 349 347 350 348 342 343 343 347
312 313 314 313 313 315 316 315 313 312 311 314 318 326 327 327 328 332 334 337 347 347 349 340 344 348 347 345 348 350 351 354 355 355 353 354 353 348 349 347 346 340 339 342
313 312 313 314 315 314 315 315 315 313 310 312 315 318 319 326 326 327 331 329 335 349 346 342 342 343 343 345 345 350 351 353 355 356 356 354 353 353 347 347 344 348 346 345
312 312 312 312 313 313 314 314 315 314 313 314 314 316 324 322 322 325 324 324 325 329 343 342 341 339 348 344 348 351 352 351 355 357 357 356 355 353 353 349 348 341 353 347
314 315 312 313 313 313 314 315 316 316 315 314 314 314 314 314 315 316 315 316 318 319 326 327 331 334 348 344 343 340 349 353 352 357 358 358 356 355 354 354 353 351 343 358
316 316 317 316 314 315 316 314 315 315 316 313 313 313 314 315 316 315 315 317 318 317 319 327 330 344 345 341 340 339 342 353 353 353 358 358 357 356 355 354 353 355 352 349
313 316 318 316 316 318 316 314 315 316 316 315 315 314 315 315 315 314 315 316 319 322 325 341 337 348 345 347 346 348 349 351 354 354 355 357 357 357 357 356 354 354 356 353
313 313 316 314 316 315 314 313 313 314 315 315 315 315 316 317 316 314 318 319 320 321 323 336 329 339 350 346 345 346 342 339 347 354 354 356 357 357 358 357 357 355 356 357
313 315 319 318 316 316 312 312 312 312 313 313 316 317 316 315 317 316 316 315 318 320 321 333 330 339 342 350 338 337 339 342 343 345 356 356 356 358 358 358 357 358 355 356
313 315 317 319 322 319 314 313 315 317 316 315 315 314 314 314 313 313 314 315 317 318 320 333 340 342 345 349 352 348 340 341 348 354 357 358 356 357 358 359 358 357 358 357
313 315 318 317 320 317 311 312 316 313 310 310 311 312 312 311 311 311 314 316 318 319 323 336 337 338 342 350 349 354 353 353 353 360 359 357 358 357 359 359 359 358 358 358
312 313 312 311 313 310 310 309 308 308 308 308 308 309 310 310 311 311 313 316 318 328 330 332 331 333 340 343 342 349 353 358 356 356 361 361 361 358 360 360 359 359 359 359
311 309 310 308 310 309 308 307 307 306 307 306 306 308 309 309 310 311 313 316 325 327 326 327 329 334 335 333 335 342 347 352 356 361 361 360 363 362 359 363 361 362 362 362
310 309 310 309 309 308 308 306 305 305 304 306 308 307 308 309 311 314 316 321 324 325 325 325 326 327 327 327 331 335 337 343 350 357 363 364 362 365 362 364 364 364 364 363
308 310 310 309 308 308 307 306 305 304 305 306 307 311 311 314 315 314 317 322 324 324 323 323 323 324 324 323 325 328 333 335 342 352 361 365 362 365 365 364 361 366 366 365

GFSCGP_925_thetae_060.txt.gz
Theta_e
324 327 331 330 326 326 327 327 327 327 327 331 359 364 364 359 358 356 352 351 348 349 346 343 343 347 347 346 344 343 342 348 350 349 345 347 348 351 351 350 350 350 349 345
327 330 329 329 327 327 328 327 326 326 326 329 361 364 361 357 358 357 354 352 350 349 347 345 342 344 345 345 344 346 344 346 348 347 344 348 348 347 350 350 352 349 350 349
328 328 329 331 330 330 327 326 326 326 326 352 358 363 361 354 353 357 356 354 351 349 347 346 343 344 343 343 345 346 345 345 345 345 344 348 349 348 348 349 352 351 351 349
327 328 327 328 329 327 326 323 325 327 323 329 349 363 355 358 356 356 346 349 349 349 348 345 343 344 343 342 346 347 346 347 345 345 342 347 349 348 347 349 349 351 351 351
321 323 326 327 326 325 326 324 323 323 323 321 324 322 345 355 359 360 346 345 346 349 347 346 342 345 343 343 345 347 347 347 346 344 343 345 350 348 346 349 349 351 353 351
314 316 319 321 324 325 324 322 320 318 319 321 321 321 345 355 358 358 355 352 351 347 345 345 342 344 345 344 344 347 347 347 346 346 345 343 347 349 350 347 350 350 353 352
313 315 316 320 320 320 321 317 319 321 320 321 320 320 319 350 348 354 355 353 351 347 344 344 343 342 344 345 346 349 349 348 347 346 344 342 346 348 349 348 348 350 353 352
311 313 314 315 320 323 321 316 319 323 323 322 321 323 323 334 347 348 350 350 344 344 343 345 344 342 343 345 346 349 349 348 347 347 346 342 345 346 347 349 350 353 352 350
313 315 315 316 314 320 323 322 316 318 319 321 321 322 324 329 329 349 346 343 344 344 347 348 345 343 344 345 345 347 349 348 348 347 346 345 343 345 345 348 350 351 351 350
313 313 312 314 313 316 322 320 322 317 322 324 323 324 324 329 336 343 347 345 344 350 349 350 346 344 344 345 345 346 347 349 348 347 346 345 345 344 344 344 350 354 352 351
310 309 311 311 310 312 311 313 317 316 319 323 324 323 327 331 333 334 347 345 347 350 350 350 348 346 345 346 345 346 346 347 350 349 348 346 345 347 343 342 344 347 351 353
310 308 311 312 311 312 312 311 309 315 319 318 323 324 325 327 328 326 329 345 348 348 349 348 348 348 347 347 346 346 347 347 347 350 350 348 345 345 346 343 342 343 345 349
310 309 311 311 309 310 312 312 311 307 306 310 312 314 320 325 326 324 325 342 348 350 349 347 342 339 340 345 346 346 347 348 347 348 350 350 348 345 345 347 344 342 342 345
310 307 310 311 312 311 312 312 312 308 307 309 310 312 314 316 317 317 322 328 348 347 347 343 341 340 341 343 344 345 347 350 349 348 349 350 351 347 344 345 347 345 344 342
308 309 310 310 311 312 312 313 313 313 312 312 311 311 312 313 314 313 316 318 336 345 346 333 333 330 332 339 338 342 346 349 351 350 350 349 351 351 348 344 345 345 344 344
309 313 312 313 313 313 314 314 314 313 313 314 313 311 310 312 313 314 316 317 320 322 327 326 332 339 343 341 333 338 341 348 352 353 352 352 350 352 351 349 345 345 343 344
311 312 312 314 313 313 313 313 313 313 313 313 314 312 311 312 313 313 318 321 322 322 322 323 329 343 346 345 344 343 343 345 350 354 354 354 354 352 352 351 350 346 345 342
309 311 311 313 313 314 310 311 312 312 313 313 314 315 315 315 315 316 315 315 315 317 319 318 319 329 341 338 345 346 343 340 344 350 355 355 356 355 353 352 351 350 349 346
307 308 310 315 310 311 312 312 314 314 312 316 315 315 315 313 313 313 313 313 314 315 315 316 318 327 338 336 338 341 347 350 346 348 348 353 357 356 354 353 352 352 352 352
308 309 311 314 315 314 313 310 311 313 311 311 311 311 311 312 313 312 310 312 314 313 314 314 316 327 342 347 345 345 344 344 341 341 347 347 349 356 355 355 354 353 352 353
309 310 311 316 317 316 309 310 312 314 312 309 308 308 308 310 309 309 309 310 311 312 313 314 320 334 338 338 346 341 344 341 342 337 338 343 341 349 356 356 355 355 354 353
311 309 312 310 315 316 309 310 311 309 307 307 306 306 306 306 307 309 308 308 309 311 312 323 329 333 334 334 343 346 346 349 345 337 338 340 341 349 354 356 356 355 355 354
309 307 307 311 308 307 306 307 305 306 306 305 305 304 305 306 307 307 308 307 309 311 314 323 327 328 331 339 338 338 343 347 346 343 352 348 351 354 354 355 356 356 355 356
310 306 308 308 306 306 307 307 306 305 305 303 303 305 307 307 308 307 307 307 309 312 315 324 327 328 329 330 332 333 335 340 342 338 346 353 356 357 355 355 356 357 356 356
306 308 308 308 307 307 307 306 307 306 305 304 304 305 306 309 308 307 308 308 311 314 317 325 326 326 326 326 326 328 328 330 331 336 341 349 357 357 357 356 357 357 357 356
307 307 309 306 305 306 306 305 307 306 305 305 304 305 305 307 310 311 311 310 311 314 319 324 323 324 324 324 324 323 325 327 326 329 336 347 357 359 360 357 358 358 358 357

GFSCGP_925_thetae_063.txt.gz
Theta_e
319 320 323 325 326 328 327 327 327 326 325 326 357 357 361 358 358 357 353 351 347 346 343 341 344 344 344 345 345 345 347 348 347 347 346 347 348 347 348 346 347 348 346 347
324 326 326 329 327 326 327 327 327 325 325 324 333 358 360 359 358 355 353 350 348 345 344 342 343 347 347 345 345 344 345 347 348 346 345 346 349 348 347 348 348 349 348 345
326 328 328 330 331 330 327 326 326 326 325 354 357 363 363 358 354 355 353 350 348 346 347 343 344 347 347 345 344 344 345 345 348 347 346 347 348 348 348 349 349 351 349 348
326 326 328 327 329 328 328 325 327 325 323 322 349 356 362 358 355 354 356 353 350 347 346 344 342 345 347 345 344 344 342 344 348 349 344 347 348 348 348 349 349 351 351 350
325 322 328 327 325 325 326 325 323 323 321 320 324 330 337 356 358 355 357 355 352 349 347 344 341 343 345 344 344 344 343 344 346 347 345 345 347 347 347 348 348 351 351 350
313 314 318 321 323 323 324 324 318 315 315 319 319 320 335 359 357 354 353 354 352 350 348 345 343 343 343 343 344 345 345 344 345 345 344 343 345 348 347 347 347 349 351 351
312 314 315 318 319 318 319 316 320 320 319 320 318 319 320 344 351 350 351 353 345 345 346 347 342 343 342 342 344 346 346 346 345 345 345 342 342 347 349 348 346 349 350 351
309 312 314 315 317 319 317 316 317 322 320 321 318 322 323 327 335 345 348 348 348 346 346 346 341 344 342 342 343 347 347 346 346 346 345 343 342 345 348 348 349 347 349 350
312 314 312 314 313 315 320 320 315 315 316 319 319 321 323 330 331 332 347 350 350 349 348 347 342 342 343 343 343 346 347 346 346 346 345 344 343 342 346 347 347 349 347 350
311 314 311 312 312 311 314 317 320 315 320 322 320 322 330 329 327 329 345 349 350 349 348 344 344 341 343 344 343 345 346 345 345 345 345 344 344 342 343 345 346 347 349 351
309 309 311 310 310 311 310 310 309 314 315 319 322 326 326 327 323 324 332 343 347 342 342 344 343 343 342 343 344 345 346 346 346 346 345 345 344 343 341 344 345 345 350 352
309 306 311 311 309 311 311 310 307 312 316 314 319 323 314 320 319 319 344 341 341 344 344 348 347 345 343 343 343 344 346 347 346 346 345 345 344 344 343 341 342 344 344 348
311 307 309 310 308 308 310 310 309 305 303 308 312 314 313 312 313 315 337 347 349 348 344 341 340 341 340 343 344 344 344 345 347 346 346 345 344 344 343 342 341 342 343 343
309 304 308 309 311 309 311 311 310 307 309 309 309 310 309 311 312 313 316 326 341 345 335 335 336 339 337 337 343 345 345 345 345 347 348 347 345 344 344 341 341 340 341 341
306 309 311 309 309 311 311 313 312 312 312 313 311 311 310 309 309 311 318 322 324 329 323 325 332 334 340 343 343 338 344 345 346 345 347 348 348 346 344 344 342 339 339 340
307 312 311 312 312 312 312 312 312 312 311 312 312 313 309 311 310 317 317 318 317 318 319 322 321 322 330 341 344 342 337 344 346 347 346 347 348 348 347 345 344 343 340 339
308 309 309 313 311 311 311 312 312 312 313 312 313 312 313 314 314 315 313 313 314 314 314 315 318 320 319 334 337 344 342 340 346 348 347 347 348 348 349 348 346 344 344 343
308 308 308 311 310 310 309 310 312 312 316 315 315 315 313 312 312 313 311 311 312 313 312 312 313 315 316 326 338 343 343 342 343 350 350 349 349 348 349 350 349 347 345 345
304 306 308 309 306 310 312 311 310 312 314 311 311 311 310 310 310 312 310 309 309 310 311 311 312 313 318 328 340 340 343 343 344 342 348 352 352 352 350 350 350 349 347 346
306 305 307 311 311 314 312 309 308 310 314 308 308 308 308 308 311 311 308 308 308 309 310 310 311 314 323 326 334 340 343 342 344 344 344 346 352 353 353 352 351 350 350 349
305 304 306 314 318 315 309 308 308 315 311 306 306 305 305 306 308 306 305 306 307 308 309 309 310 315 323 325 334 337 342 344 346 345 340 338 342 348 354 354 353 352 351 351
308 306 299 308 310 309 307 308 308 306 305 306 305 305 304 304 304 305 306 306 306 307 308 308 310 312 320 318 329 334 338 338 341 347 348 344 341 340 341 347 354 353 353 351
310 303 302 304 304 305 305 305 306 306 305 304 304 304 304 304 304 307 307 307 307 306 307 308 309 312 319 322 322 336 336 333 335 337 340 342 344 350 345 341 348 354 354 353
309 304 302 304 304 305 305 305 305 306 306 305 304 305 304 304 305 307 309 308 307 307 307 308 310 313 318 324 325 327 330 332 332 332 334 337 341 345 352 353 352 351 354 355
303 307 308 307 304 304 305 305 305 305 306 305 304 305 304 305 306 306 309 310 309 310 310 310 312 313 318 324 327 326 329 329 329 330 331 333 337 343 352 355 355 354 354 355
306 305 306 304 303 303 303 304 305 306 307 305 305 304 304 304 305 305 306 307 308 309 309 311 311 313 317 324 325 326 329 327 325 326 330 331 332 337 346 354 355 355 355 355

GFSCGP_925_thetae_066.txt.gz
Theta_e
318 319 321 322 325 328 328 327 327 325 329 331 331 349 358 354 358 357 353 349 347 343 341 343 341 342 343 344 344 345 346 348 345 345 348 348 346 347 347 347 346 347 346 346
320 319 321 323 326 327 326 327 327 325 325 322 332 346 355 353 359 356 354 349 347 344 340 340 342 340 342 344 344 345 345 347 347 347 347 347 347 347 347 347 346 347 348 345
322 326 324 329 329 328 327 327 326 327 326 337 355 356 361 359 355 354 354 350 348 345 342 340 343 342 343 344 344 344 344 345 348 347 346 346 347 347 347 347 347 348 348 347
325 325 328 327 329 328 331 325 326 327 323 321 345 345 357 358 358 354 354 351 348 345 343 341 342 345 345 344 344 343 344 343 347 347 346 346 346 348 348 347 348 348 350 349
325 325 327 327 326 325 329 323 325 324 322 319 323 344 332 354 357 356 354 352 349 346 344 343 342 346 345 344 344 343 343 343 346 347 346 345 347 347 347 347 348 348 350 350
318 313 321 325 325 323 323 321 314 313 314 318 318 334 320 355 354 351 352 353 351 348 344 344 342 345 346 345 344 343 343 343 345 347 348 345 346 346 346 347 347 348 350 350
311 314 315 316 318 318 318 317 319 319 318 320 316 319 320 327 327 335 348 351 353 349 347 345 341 342 344 344 344 343 343 343 344 345 348 346 344 346 346 345 346 346 348 349
309 312 312 313 314 314 316 316 318 322 319 320 317 320 323 327 326 325 341 348 350 351 348 347 342 341 342 343 343 344 344 343 342 343 346 347 344 344 345 345 345 345 346 347
311 313 311 312 311 314 316 317 315 314 314 317 317 321 324 324 322 322 325 344 349 347 347 346 344 342 342 342 342 344 344 344 343 343 344 345 344 343 344 346 346 347 348 347
310 312 310 311 311 309 314 312 318 313 320 322 319 327 328 323 321 321 326 336 345 345 343 344 344 342 342 341 341 344 344 344 343 343 344 344 343 343 341 345 347 347 347 348
308 308 311 309 309 309 311 310 308 312 313 318 323 327 319 319 319 317 342 348 338 347 347 345 345 341 342 342 341 343 345 345 344 345 345 345 344 344 342 342 345 346 346 347
308 307 310 310 308 308 309 310 306 315 318 309 318 321 311 310 311 317 334 347 345 342 345 346 344 343 341 342 342 342 344 345 344 344 345 345 344 344 344 341 341 344 345 345
311 306 307 311 307 307 309 309 307 303 303 309 316 314 310 310 312 319 329 326 325 333 337 337 339 342 342 342 342 343 344 345 345 344 344 345 344 344 344 344 341 341 343 345
307 304 307 308 310 308 311 311 310 307 310 310 310 312 310 310 312 317 319 319 320 321 321 324 328 332 340 341 341 343 343 344 346 345 345 344 344 344 344 343 342 342 340 341
305 311 309 308 310 311 311 312 312 311 310 311 309 313 310 311 312 315 314 315 315 315 317 318 319 320 320 328 340 343 341 343 344 345 346 345 344 344 344 343 343 342 342 340
304 311 310 311 311 311 312 311 312 311 311 311 310 312 312 312 313 314 312 313 314 314 313 314 315 316 317 320 325 337 341 340 343 344 344 346 346 345 344 344 343 343 343 341
307 306 306 309 311 309 311 311 311 311 312 313 312 313 312 312 312 312 311 311 311 311 312 311 312 313 313 316 321 334 341 342 340 342 344 345 346 347 346 346 344 344 343 343
306 306 305 308 306 305 307 309 310 313 315 312 313 311 310 309 308 308 310 309 308 308 309 309 309 311 311 312 321 337 339 341 343 342 345 345 345 346 347 347 346 345 344 343
302 305 306 307 303 308 312 310 309 311 312 309 310 308 307 307 307 309 309 306 306 306 307 308 308 309 310 312 321 328 337 336 342 344 343 348 346 346 346 347 348 347 345 344
304 302 306 304 310 312 311 308 307 308 314 306 307 306 306 306 308 309 306 305 305 305 306 307 307 308 309 310 317 324 329 334 338 344 346 343 347 349 348 347 348 348 348 346
302 303 306 309 311 312 308 307 308 312 310 305 306 305 305 305 306 305 304 304 304 305 306 307 307 308 308 309 312 322 324 328 337 336 341 344 339 341 351 350 349 349 349 348
302 299 298 309 310 306 307 306 307 305 304 305 304 304 304 304 304 304 304 304 304 306 308 308 307 307 307 309 311 318 325 320 335 333 332 335 342 343 340 348 353 351 350 349
306 301 300 301 302 302 305 304 304 304 305 305 305 303 304 305 305 304 304 304 305 307 309 307 307 307 308 309 311 315 322 328 331 330 331 331 333 338 343 346 341 353 353 352
307 302 300 302 303 303 303 303 304 304 304 304 304 304 304 305 304 304 304 304 306 307 309 308 308 308 309 310 311 313 318 326 327 329 331 332 332 336 338 343 348 344 350 353
302 305 308 307 303 303 303 303 304 304 304 305 306 305 303 304 304 305 305 305 305 306 307 308 308 308 309 311 312 312 315 324 326 327 329 330 331 332 335 341 346 350 347 349
303 304 305 304 302 302 302 304 304 304 305 305 306 304 304 304 304 303 303 303 303 305 306 307 307 307 307 309 311 312 314 322 323 323 324 327 330 331 332 335 340 348 353 354

GFSCGP_925_thetae_069.txt.gz
Theta_e
318 325 330 336 337 332 332 332 333 330 337 338 331 333 346 359 359 355 353 351 350 349 347 348 346 347 346 344 344 345 347 347 346 346 346 349 349 349 347 347 346 345 346 346
319 322 325 330 334 331 333 334 333 330 328 330 331 336 358 355 359 358 353 350 350 349 348 346 347 346 346 344 345 346 348 346 347 347 348 349 350 349 350 347 346 346 347 346
319 320 323 330 332 333 333 335 332 331 329 338 353 354 360 358 357 358 356 350 349 348 348 347 346 345 345 345 346 346 347 346 347 348 347 347 347 347 349 348 347 348 348 345
324 324 326 333 335 334 337 330 331 330 331 330 339 335 354 359 359 359 358 355 351 349 347 346 345 345 345 346 346 347 346 346 348 347 348 349 349 350 350 350 350 350 349 348
327 328 328 334 334 332 336 329 331 330 330 326 331 339 343 353 361 358 360 357 352 349 348 346 345 345 344 345 346 347 347 347 348 348 348 349 350 349 350 351 349 349 350 349
323 319 329 332 329 328 329 325 322 322 325 329 327 336 332 340 339 337 353 356 354 351 348 347 345 345 345 345 346 346 346 345 347 346 347 347 350 350 350 350 351 352 353 348
316 317 317 321 325 325 327 328 329 330 330 331 323 328 334 330 329 330 335 343 355 352 350 348 347 345 346 346 346 346 347 347 347 347 348 346 349 348 347 347 350 352 352 353
324 323 315 315 319 322 326 328 328 331 330 329 323 328 333 323 327 333 343 343 350 354 351 349 347 346 347 347 347 347 347 347 347 348 348 346 348 349 348 349 349 350 350 351
317 316 313 313 314 317 321 324 323 324 321 327 326 328 325 322 329 336 349 349 348 352 353 350 347 346 347 347 347 347 348 348 347 347 348 348 348 348 348 348 346 349 347 350
314 316 313 313 314 315 320 317 323 324 329 329 329 333 328 322 330 338 347 349 345 348 352 351 348 346 346 347 347 347 348 348 347 347 347 347 347 348 348 346 345 347 345 347
312 315 316 315 314 315 319 320 320 323 323 327 331 330 316 323 333 335 331 339 348 350 348 350 349 347 346 346 346 346 347 348 348 347 347 346 346 347 347 347 345 346 345 347
311 314 316 315 312 311 313 314 315 326 328 322 329 323 317 325 329 325 325 326 330 337 343 347 348 346 346 345 345 345 346 347 347 347 347 347 345 345 347 346 345 344 347 346
313 313 317 316 314 313 315 314 312 311 315 323 327 319 317 325 323 321 319 318 318 320 321 325 327 330 343 346 345 344 345 346 347 346 346 347 347 347 347 347 344 343 344 347
312 313 315 316 316 314 316 315 314 315 319 318 319 318 319 323 321 318 318 315 315 315 315 316 317 318 322 329 340 345 345 345 346 346 345 346 345 346 347 348 347 344 342 342
315 317 314 314 313 314 314 314 314 315 315 318 317 317 319 321 319 317 316 316 316 315 314 314 314 314 315 317 326 336 342 343 345 346 347 347 347 345 344 345 347 346 346 344
312 317 315 316 314 314 314 313 313 313 313 314 315 317 317 316 317 318 317 316 316 315 313 312 312 311 312 313 315 327 335 340 343 343 347 347 348 348 347 346 344 347 347 345
314 316 315 315 314 313 313 314 313 314 317 316 316 319 316 316 315 315 314 315 314 313 312 312 311 310 310 311 311 320 330 338 342 344 343 346 348 349 348 347 347 347 347 347
313 316 316 315 312 313 314 312 312 316 316 317 317 315 313 312 311 311 313 313 312 311 311 311 310 311 311 310 310 313 322 328 337 346 344 345 347 348 349 349 348 347 347 347
310 314 317 318 314 312 313 312 312 315 315 311 312 311 310 310 311 314 311 310 309 309 308 308 309 310 311 311 310 310 315 323 326 339 346 347 347 348 349 350 350 349 349 348
311 312 317 318 317 316 315 309 309 311 315 310 309 309 309 309 314 314 310 307 307 307 307 307 309 311 311 311 311 310 312 317 324 328 337 343 347 346 351 350 350 350 351 349
314 316 318 318 318 316 312 309 311 317 315 308 308 308 307 309 308 307 306 306 306 306 306 307 309 311 311 311 311 311 312 313 318 323 336 336 339 344 344 347 353 352 352 351
313 317 318 315 316 317 311 309 313 311 308 308 307 306 306 306 306 307 307 307 306 306 306 307 309 310 310 311 311 312 313 312 315 321 331 332 334 338 343 345 345 352 352 352
314 312 316 314 315 310 310 309 308 307 308 307 306 305 305 305 306 306 307 306 305 305 306 307 308 310 310 310 311 312 313 313 313 318 328 329 331 335 338 343 346 346 348 353
311 307 313 310 311 309 309 308 308 308 307 306 306 305 305 307 306 305 305 304 304 304 304 305 306 308 308 309 309 310 311 313 314 314 322 326 328 332 335 337 342 345 346 349
311 310 312 311 311 308 308 309 309 308 307 307 307 307 307 307 306 305 305 304 303 303 302 303 304 306 308 308 308 308 309 311 314 314 319 325 325 329 333 335 337 344 348 348
310 312 314 318 312 311 310 309 308 309 308 309 309 309 308 307 307 305 305 304 303 303 303 304 304 305 305 305 306 307 308 311 315 316 318 323 323 326 330 333 334 334 335 341

GFSCGP_925_thetae_072.txt.gz
Theta_e
321 326 326 329 331 335 335 340 342 338 348 346 343 337 352 357 359 358 352 353 353 350 347 346 349 349 349 346 343 345 346 349 348 349 348 349 350 350 350 351 352 352 352 352
322 324 326 329 333 337 336 339 340 335 333 338 334 335 349 350 357 359 355 353 354 351 349 347 349 349 348 345 342 345 346 350 349 346 347 348 349 350 351 351 352 351 352 350
323 323 326 332 336 338 336 337 340 339 334 334 339 342 354 353 353 357 355 354 353 352 350 350 350 349 346 345 343 345 348 350 349 346 349 352 352 352 349 353 352 352 354 352
322 323 324 330 336 335 336 335 335 336 336 338 336 346 349 358 357 360 357 355 353 352 351 350 349 349 346 345 345 346 349 350 350 351 349 351 349 348 349 350 351 353 353 352
325 323 325 330 334 334 336 335 335 335 338 335 332 339 350 350 359 360 359 357 353 350 349 351 349 348 347 346 346 347 350 351 351 352 349 351 351 348 350 350 351 353 354 352
327 324 326 331 334 335 335 333 332 333 335 337 334 335 340 344 340 341 356 358 356 353 350 349 348 348 347 347 347 348 350 353 352 354 354 352 351 351 348 350 351 350 353 352
325 327 328 331 335 334 334 333 333 332 333 334 333 334 339 335 336 340 342 341 357 354 353 351 350 348 347 346 347 348 350 352 353 353 353 353 353 353 352 351 347 351 352 350
325 326 327 328 333 334 334 333 332 333 332 332 331 332 333 333 341 349 350 344 344 356 353 352 350 349 348 347 348 349 350 352 352 352 353 354 353 351 351 350 347 350 350 351
326 323 318 319 320 324 332 334 330 329 330 331 331 334 329 331 344 344 349 349 349 355 354 352 350 349 349 349 349 350 350 353 353 352 352 354 354 352 349 349 351 349 349 350
321 323 319 318 319 321 325 328 330 328 332 333 332 334 333 335 345 344 344 347 351 351 354 353 351 350 349 349 349 350 350 352 353 352 352 352 353 353 352 352 352 350 349 352
318 321 320 320 322 324 323 325 326 328 329 331 333 333 325 336 339 339 337 334 338 342 348 347 352 350 350 350 350 350 350 351 353 352 352 352 352 352 353 352 352 352 351 352
317 320 321 321 317 317 321 324 326 328 331 330 331 328 328 333 332 328 326 325 325 327 329 330 330 330 341 349 349 350 350 350 351 351 352 352 352 351 350 352 351 352 352 352
316 318 321 320 319 318 321 320 322 323 326 331 329 327 330 331 333 322 320 319 319 319 318 318 317 319 323 334 340 349 349 349 349 351 351 351 352 351 351 350 351 350 351 351
317 318 319 320 321 321 321 319 320 323 327 329 329 327 330 329 329 328 319 316 316 316 316 315 315 316 316 319 324 337 346 349 349 350 350 350 350 350 351 351 351 351 351 351
321 322 320 318 317 318 318 318 318 321 324 327 326 327 328 327 325 323 323 321 317 316 316 316 314 313 314 314 315 323 334 341 346 349 350 350 350 351 351 351 352 352 352 351
318 322 321 320 317 318 318 317 316 316 318 322 323 324 322 323 323 322 321 321 320 318 317 315 314 314 313 314 313 315 318 332 336 347 348 350 351 351 352 352 351 352 352 352
318 320 321 320 317 316 317 318 316 317 318 320 322 324 321 321 320 319 319 320 319 318 317 317 315 313 314 314 315 313 314 323 327 333 347 348 349 351 352 353 353 352 351 351
317 320 318 318 317 316 319 316 316 318 319 320 321 320 318 318 317 317 318 317 316 315 315 315 314 314 315 315 314 314 314 315 321 326 336 346 346 348 351 352 352 353 353 353
316 317 317 319 317 317 315 315 316 319 319 317 318 317 315 315 316 319 316 314 313 313 312 312 312 313 315 316 315 315 314 314 315 320 324 335 337 349 350 350 352 352 352 353
314 316 319 318 322 319 320 314 314 315 319 315 315 315 315 315 315 320 314 312 312 311 311 311 311 312 314 316 316 316 317 316 315 314 318 323 335 336 345 348 350 350 351 352
319 320 322 320 322 319 316 313 314 316 320 314 313 313 313 314 314 312 311 311 311 310 310 310 311 312 313 314 315 316 317 318 318 316 316 318 329 333 331 340 348 349 352 351
318 322 323 321 322 325 315 314 318 317 313 312 312 311 311 310 310 310 310 310 310 310 310 310 310 311 312 313 314 315 316 316 317 318 317 316 320 331 329 336 339 348 349 353
320 318 322 320 321 316 315 314 313 312 313 311 311 309 308 309 310 309 309 309 308 308 307 307 307 307 308 310 312 313 314 314 315 315 317 318 317 322 328 331 337 338 347 349
315 314 318 317 314 314 315 312 312 311 311 310 309 309 309 310 309 309 309 308 307 307 307 306 306 306 307 308 309 311 312 312 313 313 315 317 318 319 324 327 329 334 338 344
316 315 316 317 315 313 313 313 312 311 311 310 309 309 310 310 309 309 309 308 308 308 307 306 306 306 306 306 307 308 308 309 310 312 313 316 318 319 322 325 327 331 335 340
315 316 320 322 316 316 313 313 312 312 311 310 310 310 309 309 310 309 309 308 307 307 306 306 306 305 305 305 306 306 306 306 308 310 312 315 318 319 320 322 324 326 331 333

GFSCGP_925_thetae_075.txt.gz
Theta_e
324 326 330 331 331 330 334 338 342 342 346 348 350 359 358 359 356 357 353 352 351 349 347 347 344 347 347 346 345 346 347 349 348 348 347 347 348 350 349 350 353 352 353 351
325 327 329 329 329 330 334 335 341 341 345 346 342 341 353 355 359 359 355 352 353 350 348 347 345 349 348 347 345 346 347 351 349 348 348 347 347 348 349 352 352 352 352 352
326 325 327 327 330 333 337 338 341 341 337 342 339 341 349 347 352 359 356 353 353 351 349 348 348 349 349 346 344 346 347 351 350 347 349 350 351 351 353 353 350 352 352 352
324 325 325 328 333 336 336 333 337 338 340 341 339 344 349 350 350 362 357 355 353 352 349 348 348 349 349 345 342 345 347 351 350 348 347 350 349 349 347 350 350 352 353 353
324 323 325 329 334 334 334 332 335 339 338 338 340 342 350 353 357 362 358 356 355 353 350 350 350 349 348 344 344 347 350 351 349 350 352 351 351 348 349 350 354 354 354 353
326 324 325 326 330 334 335 336 335 335 337 337 337 336 355 353 358 359 357 356 355 353 352 349 349 349 348 344 344 348 352 353 353 353 353 353 352 352 351 349 353 351 350 351
328 328 326 326 330 335 337 338 338 338 337 337 334 335 345 341 342 343 353 352 355 354 352 352 350 349 348 347 344 347 353 355 355 354 355 354 354 353 356 353 350 350 351 348
328 329 326 327 332 336 337 336 334 335 334 333 335 336 341 342 349 350 349 347 355 354 353 351 351 350 349 348 345 346 351 355 356 355 356 356 356 352 350 352 349 349 351 350
329 328 328 328 332 334 335 337 333 332 332 332 336 336 337 345 347 349 354 351 345 355 353 353 350 351 349 349 346 346 351 355 356 355 356 357 357 355 349 350 352 351 350 350
326 327 325 324 324 328 329 332 335 334 336 334 335 338 338 346 347 347 346 349 351 349 347 344 348 351 350 349 348 346 349 354 356 355 356 356 356 357 355 351 352 350 350 351
322 327 325 324 324 326 328 331 333 333 331 334 336 338 338 346 345 343 334 335 336 335 337 339 335 340 345 347 350 349 349 351 355 355 355 355 356 356 356 354 353 353 351 353
320 323 326 324 324 323 325 327 330 333 334 331 333 334 337 340 338 333 327 326 327 324 322 328 327 329 330 335 340 349 350 350 352 353 355 355 355 355 355 356 354 354 354 352
321 321 325 325 323 324 324 326 327 328 329 333 333 338 336 336 331 327 324 322 322 321 321 319 321 319 321 326 336 340 346 350 350 351 353 354 354 355 355 354 355 354 354 354
321 321 325 324 324 324 325 324 325 327 329 331 333 339 336 336 330 323 321 320 321 320 319 319 317 317 317 318 322 330 335 344 348 350 352 353 355 355 355 355 354 355 354 354
322 320 322 321 320 322 324 324 323 325 326 328 335 337 335 333 332 327 322 320 319 319 318 318 318 317 317 318 317 317 325 333 338 344 351 353 354 355 354 354 355 355 355 354
321 323 321 320 320 320 320 320 320 322 324 327 331 334 330 328 328 328 328 325 321 319 319 318 317 317 317 317 318 317 319 323 330 334 343 352 353 353 355 355 355 355 355 355
323 321 323 323 320 319 319 319 320 320 321 325 330 330 328 327 326 325 326 324 322 321 319 319 318 317 318 318 317 318 318 318 321 324 331 338 347 352 351 354 354 355 356 356
322 324 323 323 323 324 320 320 319 319 321 326 327 326 326 325 322 322 322 321 320 319 319 319 318 317 317 318 318 318 319 319 318 320 321 325 331 342 348 351 352 354 355 355
317 322 323 323 324 322 320 318 318 322 322 322 324 322 321 320 321 322 319 317 317 317 317 316 316 316 317 319 319 318 320 321 321 319 319 317 325 333 338 342 350 353 354 354
317 320 322 322 323 322 322 318 318 319 324 319 320 320 319 318 320 324 318 316 315 315 315 315 315 315 316 318 318 319 320 320 322 321 321 320 319 326 335 336 337 345 352 355
320 320 323 324 324 323 320 317 316 319 323 318 317 317 317 318 319 317 315 314 314 314 314 313 314 315 316 316 317 318 319 320 321 321 321 322 322 320 326 332 334 339 344 350
322 325 326 324 325 331 319 317 319 322 319 317 316 316 316 315 314 314 313 313 312 312 312 312 312 312 312 313 314 316 317 318 318 319 319 320 321 323 320 324 331 333 339 342
323 320 328 323 326 322 319 318 319 318 318 315 315 313 312 312 313 312 312 312 311 311 311 311 311 311 311 311 312 313 314 315 316 317 317 318 319 321 323 322 327 330 334 337
317 317 321 319 318 318 317 316 315 313 314 314 312 312 311 313 312 312 312 311 311 311 311 310 310 311 311 310 311 310 311 312 312 313 314 315 317 318 320 322 321 324 326 332
319 318 318 319 317 316 316 316 315 314 313 313 312 312 312 312 312 312 312 311 310 310 310 309 309 309 310 310 309 309 310 310 310 311 311 312 315 316 318 320 322 322 324 329
320 320 324 324 319 319 317 316 315 315 313 313 312 313 312 312 312 311 311 311 310 310 309 308 308 308 309 308 308 308 307 307 308 308 309 311 312 314 316 319 322 322 323 323

GFSCGP_925_thetae_078.txt.gz
Theta_e
327 328 329 331 331 333 337 338 341 349 347 347 361 362 363 357 356 354 351 353 349 348 347 347 344 343 342 346 346 346 351 348 350 347 349 348 350 349 349 350 353 352 349 352
327 326 327 330 331 331 332 334 337 345 348 357 354 356 359 358 356 354 354 354 352 349 347 347 345 346 346 347 347 348 351 349 349 347 349 348 350 350 349 351 353 354 352 349
326 325 326 329 330 330 330 331 338 347 347 349 350 361 362 360 356 356 354 352 352 351 349 348 346 349 347 348 347 349 350 351 348 350 347 351 348 350 347 348 352 352 353 351
324 326 325 327 329 329 331 333 337 344 344 344 344 350 355 356 361 360 354 352 353 353 348 347 350 350 349 347 348 349 351 351 347 350 349 348 351 351 351 353 353 353 351 352
325 325 325 326 328 330 333 334 335 341 342 339 339 341 348 351 367 365 358 353 353 352 350 349 347 350 350 349 347 350 349 354 348 349 350 350 349 349 349 352 352 352 353 349
324 324 325 326 328 332 334 335 333 336 341 339 339 339 360 359 354 359 360 355 356 353 351 350 347 349 350 348 343 349 350 354 353 348 351 351 351 349 347 351 343 353 351 352
328 327 324 325 327 331 334 337 336 337 341 340 336 339 352 354 353 351 354 359 357 357 354 351 349 350 351 346 345 351 354 356 354 350 353 355 354 353 350 347 348 353 352 352
330 329 329 327 326 330 334 336 337 338 336 335 334 338 348 349 354 353 350 352 356 356 353 354 350 351 350 346 348 353 356 357 356 356 355 352 353 353 353 349 353 350 347 350
331 330 328 327 326 329 334 337 336 334 334 334 338 346 349 350 353 355 354 350 352 351 347 350 352 352 350 348 348 352 357 358 358 357 357 356 354 352 353 348 347 352 350 350
327 331 328 326 327 330 332 334 336 336 337 340 340 347 352 351 351 351 347 343 340 340 342 343 345 348 347 351 347 352 357 359 358 358 358 359 358 356 352 353 351 355 353 350
324 329 329 328 328 331 334 337 333 334 335 339 344 346 347 351 349 344 339 334 330 332 332 337 334 336 343 347 348 348 357 358 359 359 358 358 359 359 356 354 354 349 353 354
323 324 331 327 325 327 329 331 332 336 340 336 343 346 344 342 339 335 334 331 325 322 325 328 328 327 329 336 340 342 347 350 358 358 358 358 359 358 359 357 355 354 352 353
324 323 328 327 326 325 325 327 328 329 333 340 340 343 341 337 335 330 330 329 326 321 321 324 325 324 324 324 331 336 338 342 346 353 358 358 358 358 359 358 357 356 356 355
322 321 327 330 327 325 326 326 327 327 330 332 339 346 342 337 334 329 327 325 324 323 322 322 323 321 322 321 323 327 334 342 339 344 351 355 358 357 357 357 357 356 356 357
320 321 322 325 323 322 325 325 326 326 328 335 341 344 340 337 332 328 325 324 323 322 321 322 322 321 320 321 321 321 323 328 333 337 343 347 344 356 357 355 355 356 356 356
320 323 326 324 323 322 322 324 324 325 325 328 336 338 335 332 328 328 326 325 324 324 321 320 321 320 320 320 321 321 319 322 325 329 334 339 346 348 353 353 354 355 355 355
321 322 326 326 322 322 322 322 322 322 323 336 339 334 331 331 330 330 328 325 324 322 322 321 320 320 321 320 320 321 321 320 320 320 321 328 336 342 348 353 355 355 355 355
323 327 325 327 323 325 322 321 321 320 323 330 333 332 330 329 326 327 324 322 322 321 321 320 319 319 320 321 321 321 322 323 323 322 322 321 321 331 338 344 347 352 353 354
318 321 324 326 327 325 323 321 321 320 323 327 329 328 327 325 325 323 320 319 319 319 319 318 318 318 319 321 321 321 322 323 325 325 324 324 322 319 328 339 338 340 348 352
318 319 325 324 325 325 324 319 319 320 325 324 325 325 324 322 326 324 319 318 318 317 317 317 317 317 319 319 319 320 322 322 324 323 323 323 324 325 323 322 331 333 338 343
319 320 323 324 325 326 323 319 318 322 323 322 322 322 320 321 323 320 318 317 316 316 315 315 315 316 316 316 316 318 320 321 321 321 321 322 322 323 324 323 322 331 333 336
323 327 328 322 326 331 320 319 320 324 321 319 319 318 318 318 317 316 316 315 314 314 314 313 314 314 314 314 315 316 317 317 317 318 319 320 320 321 322 323 326 322 327 333
325 323 332 325 330 325 320 321 322 321 320 318 318 316 316 315 315 315 314 314 313 313 313 313 313 313 313 313 313 314 314 313 314 315 316 316 317 317 319 321 324 327 325 331
320 318 322 323 322 322 322 319 319 318 319 317 316 314 313 314 314 313 314 313 313 312 312 312 311 311 312 312 312 312 311 312 312 313 313 314 314 314 315 317 320 322 324 323
322 320 319 320 319 318 317 318 316 314 314 315 313 313 313 314 314 313 313 313 312 312 311 311 310 310 311 311 310 310 310 310 309 309 310 311 312 313 315 316 318 321 322 324
320 321 326 327 320 321 320 318 317 316 314 314 314 313 313 313 314 313 313 313 311 311 311 310 310 309 309 309 309 308 308 307 307 307 307 308 308 310 311 312 314 315 317 318

GFSCGP_925_thetae_081.txt.gz
Theta_e
324 324 325 326 327 329 333 338 340 347 349 354 353 350 351 353 353 353 350 348 346 345 345 345 342 343 342 345 345 349 349 347 347 344 350 348 350 345 348 349 348 349 348 350
325 325 326 326 328 330 329 329 335 347 354 356 353 351 346 343 352 351 349 349 347 346 344 345 343 344 344 346 345 347 346 348 347 343 349 349 349 349 349 349 350 350 348 351
324 326 327 325 327 330 328 328 331 348 348 354 356 362 354 351 356 351 350 351 347 347 346 344 343 343 346 346 345 347 348 348 348 343 347 350 349 349 348 349 350 352 350 349
323 324 325 324 325 327 326 327 329 347 347 355 356 361 359 362 357 354 351 351 348 347 346 345 345 347 347 347 346 346 350 348 346 350 351 350 349 349 347 346 351 352 352 350
323 322 322 323 324 326 326 327 332 343 343 344 354 355 359 360 362 358 356 352 349 347 347 346 348 348 348 347 348 346 349 349 344 349 351 350 347 349 351 350 352 352 351 351
323 323 322 323 324 324 327 329 333 338 340 344 337 343 358 365 360 360 353 348 351 351 349 345 347 348 348 348 349 347 350 351 348 346 350 351 349 348 347 351 350 351 351 348
325 323 322 322 323 325 327 331 334 333 341 345 338 341 359 358 358 355 353 348 345 350 349 346 347 350 350 348 349 350 349 353 350 346 349 349 351 348 341 348 348 350 351 352
325 327 325 322 323 325 327 329 333 337 337 338 332 356 355 348 346 346 341 348 347 349 350 350 348 349 349 348 349 350 347 351 352 352 348 348 349 348 351 348 347 350 350 351
329 329 327 325 324 324 327 329 329 332 329 331 346 353 351 344 346 348 346 348 348 350 349 350 348 348 349 347 347 350 349 349 353 351 348 350 351 351 350 348 347 350 345 348
327 327 326 328 326 323 323 331 331 332 339 337 357 357 361 356 351 340 335 335 336 337 345 344 341 342 347 348 348 352 352 351 353 354 353 352 351 351 351 353 351 352 350 349
322 323 329 328 323 322 332 333 334 330 332 334 351 353 348 350 340 334 330 327 330 330 331 335 336 337 343 343 346 350 351 352 349 352 353 353 353 352 349 351 350 353 351 350
323 320 329 329 326 326 326 332 333 331 333 339 348 349 344 340 335 331 329 325 324 326 327 327 327 329 334 339 342 343 344 346 348 352 352 351 355 355 352 350 349 355 351 352
321 322 324 329 326 324 324 325 324 324 326 335 345 348 336 335 334 329 326 324 322 322 323 325 324 324 327 331 339 339 343 346 344 347 349 353 355 356 353 353 352 354 353 351
321 319 322 329 329 324 322 322 323 324 324 340 341 345 338 332 330 327 325 324 323 321 321 323 323 325 323 325 328 329 333 341 341 338 344 348 351 353 353 354 356 353 354 354
319 321 321 325 326 323 321 322 323 323 326 339 345 344 337 332 328 326 324 322 322 323 322 321 322 323 324 322 320 328 330 335 336 340 341 342 344 345 349 350 353 356 356 356
317 322 324 323 323 322 322 322 323 324 335 340 341 341 333 328 325 326 325 323 321 320 322 322 322 322 321 322 322 319 323 327 327 332 335 343 342 336 338 338 343 353 354 355
321 323 324 324 326 324 322 322 320 332 335 335 341 334 329 328 327 325 324 323 322 321 319 319 320 322 321 321 323 322 323 321 319 320 329 337 338 339 341 343 344 349 353 354
320 324 323 325 325 326 322 321 321 321 331 332 332 331 330 330 326 323 321 320 321 320 319 318 320 321 321 321 321 323 324 325 325 325 325 323 323 325 328 339 341 342 346 351
316 320 322 325 326 325 324 322 321 321 330 331 330 328 326 323 320 319 319 318 318 317 317 317 318 321 319 319 321 322 322 324 323 323 323 324 325 326 323 320 326 334 335 340
316 318 321 326 329 326 323 319 319 320 328 330 328 325 324 323 323 319 317 316 317 316 316 316 317 316 315 316 317 319 321 321 321 321 321 321 322 321 322 326 326 323 326 332
319 319 322 324 327 327 322 318 318 323 327 324 324 323 322 320 319 316 315 316 316 314 314 315 314 314 314 314 315 316 316 315 315 316 316 317 318 319 320 320 320 321 325 323
325 326 326 323 325 326 321 320 325 324 319 318 318 318 318 317 316 315 314 314 314 314 313 314 314 314 313 313 313 314 313 313 313 313 314 314 315 314 315 316 318 320 321 326
321 324 324 325 326 323 321 323 322 319 318 319 316 316 315 315 315 313 313 312 313 313 313 312 311 312 313 312 312 312 312 311 310 311 312 311 311 312 312 313 314 317 319 321
321 318 322 321 324 323 321 320 319 319 318 317 315 314 314 314 312 312 311 312 312 312 311 310 310 311 311 311 310 310 310 309 308 308 308 308 310 310 310 311 312 315 318 319
322 322 320 320 319 319 319 319 317 315 316 316 314 313 313 313 312 312 311 312 312 312 310 310 310 309 309 309 309 308 307 306 306 306 306 306 305 306 307 308 310 311 312 313
320 323 323 323 323 323 321 319 316 315 314 315 313 313 314 314 313 313 313 311 311 311 310 310 309 309 308 308 307 307 306 305 304 304 304 304 304 303 305 305 306 308 309 310

GFSCGP_925_thetae_084.txt.gz
Theta_e
324 321 322 323 323 326 327 330 337 351 356 356 360 355 355 355 356 353 349 346 345 345 341 342 348 349 349 347 346 346 345 344 346 349 347 347 347 347 347 347 345 346 345 349
322 322 322 323 325 326 327 328 330 356 353 352 356 359 354 353 356 354 350 347 345 344 342 340 344 347 347 348 348 345 342 344 344 348 349 348 348 345 347 348 348 346 347 347
322 323 325 326 325 325 325 326 329 350 354 352 354 357 351 348 348 354 350 346 345 345 345 340 342 343 346 345 349 347 346 346 345 345 348 349 349 348 348 347 348 348 348 347
322 322 325 325 326 323 323 324 328 349 347 351 351 349 360 352 350 354 349 347 345 345 345 342 342 343 345 344 346 349 347 346 346 344 346 350 349 348 348 348 349 350 350 350
320 322 322 322 324 321 323 324 327 341 342 355 355 357 352 356 361 356 352 349 346 346 346 344 341 344 345 345 345 347 346 346 346 347 345 349 349 349 348 346 347 350 351 349
320 320 319 319 321 321 323 327 337 336 339 343 347 353 353 362 359 357 355 352 349 346 346 346 344 345 345 346 346 347 348 347 347 349 350 350 349 347 349 347 349 350 352 349
322 323 321 320 320 319 323 325 330 331 341 343 337 352 347 355 357 355 356 353 350 347 348 345 346 347 346 347 347 348 349 348 347 345 348 350 350 348 349 350 349 351 350 350
322 324 323 322 319 320 322 324 330 335 337 338 340 353 351 351 353 351 350 349 344 345 349 346 346 347 347 347 348 348 349 348 348 347 346 349 351 348 345 347 349 349 350 349
322 326 326 325 322 321 322 325 324 329 328 329 352 351 344 346 342 340 341 342 344 349 348 349 346 348 348 347 349 348 348 348 347 347 346 348 349 348 346 349 348 346 350 349
321 325 322 325 324 321 320 324 329 325 336 335 356 355 352 349 339 335 334 337 336 336 338 343 343 345 348 347 348 349 348 348 348 348 348 348 348 348 344 347 348 344 349 347
317 318 320 325 324 322 325 327 328 325 327 332 351 352 350 343 335 332 330 331 330 333 334 333 337 342 346 347 347 349 349 348 348 350 350 349 346 348 348 345 350 350 350 349
320 314 319 328 324 324 327 328 326 331 332 339 343 354 340 336 333 329 327 326 327 328 329 330 329 334 341 342 345 347 346 346 347 347 349 349 347 346 349 350 352 351 352 350
317 316 320 323 323 321 319 319 318 321 324 337 336 346 334 334 332 327 325 324 325 326 325 325 327 328 331 336 340 345 344 342 343 342 346 347 347 347 347 349 349 350 351 351
317 313 319 322 327 323 320 319 319 318 320 337 340 341 334 331 328 325 323 322 323 323 323 324 325 325 327 329 333 340 343 344 344 342 342 342 346 347 348 350 349 348 349 352
315 319 320 321 320 321 320 320 321 320 322 335 340 339 332 328 326 323 322 323 322 321 321 322 324 324 323 326 328 331 338 341 340 341 342 340 343 342 342 346 346 347 351 351
312 321 321 321 325 322 320 320 326 333 339 340 337 335 327 324 323 322 321 322 323 322 321 322 322 323 323 322 324 327 330 333 336 339 341 341 342 339 340 338 340 339 339 350
319 317 318 322 323 323 321 320 321 333 338 338 340 333 326 325 325 324 321 321 321 321 321 321 321 321 322 323 323 321 320 320 326 330 334 337 339 339 339 341 341 338 337 346
314 317 316 320 320 324 321 319 319 329 333 331 329 328 326 325 323 320 320 319 319 318 319 319 320 320 321 322 324 325 325 326 325 326 325 326 329 334 337 333 335 336 339 341
310 313 315 320 320 320 322 319 319 320 329 331 329 327 326 322 320 318 317 316 315 314 315 317 317 316 317 319 322 324 322 321 321 321 322 322 321 321 323 326 326 324 329 331
311 310 314 319 325 323 320 318 318 320 327 326 326 324 321 320 321 319 315 315 314 314 315 314 315 315 315 316 318 317 315 315 315 316 316 317 317 318 319 319 318 319 322 325
318 312 315 320 322 324 321 318 317 322 322 321 323 321 320 318 316 313 314 313 313 314 314 314 314 314 314 314 314 313 313 313 313 313 313 313 313 314 314 314 313 314 316 318
320 316 313 316 318 320 320 320 320 318 316 317 318 316 315 315 315 314 312 311 312 313 313 313 313 313 312 312 312 311 311 310 310 310 310 310 310 311 312 313 314 316 317 319
315 317 317 318 318 317 318 320 317 315 315 316 317 316 315 314 313 312 311 310 310 311 311 312 312 312 312 310 310 309 308 308 308 307 306 307 308 308 308 309 310 311 311 313
318 314 314 316 321 319 318 318 316 315 315 313 313 312 312 312 311 311 308 310 310 310 310 310 310 310 309 309 308 307 306 306 305 305 305 304 304 304 304 305 307 308 309 310
315 316 314 314 315 316 319 317 314 313 314 313 311 311 312 310 310 309 309 309 309 310 309 310 310 309 308 307 307 306 305 305 303 303 303 303 302 303 303 304 305 305 306 307
315 316 316 317 316 314 314 316 314 312 313 312 311 311 311 310 310 310 309 309 310 309 310 309 308 308 307 307 306 305 305 304 302 302 303 302 302 302 302 302 302 302 303 303

GFSCGP_925_thetae_087.txt.gz
Theta_e
322 321 322 322 323 325 327 328 329 353 358 360 360 358 358 355 356 349 346 344 343 342 345 346 347 348 348 348 348 347 344 344 343 347 347 346 346 347 346 346 346 348 346 346
320 322 320 321 323 325 326 328 338 356 354 357 358 359 355 354 356 352 348 345 343 341 345 348 348 348 347 347 348 348 347 347 346 345 346 346 346 346 347 346 346 346 346 344
322 323 323 324 325 325 324 326 328 355 354 352 356 357 356 354 351 354 353 348 344 341 344 347 348 348 347 347 347 348 346 345 347 347 347 347 348 346 345 347 348 347 346 346
322 322 324 324 325 323 323 322 328 355 350 358 350 358 354 352 350 350 354 349 345 341 341 345 347 347 346 346 346 346 344 342 345 347 348 347 347 348 347 348 347 348 349 348
322 322 322 323 324 322 323 322 325 350 342 348 354 349 346 349 351 350 354 348 346 344 340 343 345 346 345 346 346 345 343 344 343 343 347 347 348 347 347 347 347 348 350 348
319 319 319 320 321 320 322 323 328 331 335 347 345 346 348 356 351 351 354 349 346 345 343 342 343 343 344 345 348 347 345 345 345 344 344 345 347 348 348 347 345 349 351 349
320 322 320 319 320 318 321 323 329 343 343 345 338 349 343 349 352 353 353 351 348 346 345 342 343 343 344 345 348 348 348 346 345 346 346 347 349 348 347 348 347 348 350 350
321 323 321 319 319 319 318 319 326 336 339 339 342 348 349 345 350 350 350 349 347 349 345 345 343 344 344 345 347 347 347 346 347 347 349 348 347 349 348 348 348 348 348 349
319 323 323 324 320 318 321 324 322 325 325 329 350 348 347 343 338 343 345 344 342 344 347 346 345 345 345 345 346 348 347 347 347 346 345 348 348 350 348 345 347 348 348 348
319 323 321 324 323 319 319 320 325 323 333 334 353 354 349 351 341 339 341 340 339 339 338 341 344 347 346 346 347 347 349 349 348 347 347 345 347 348 348 346 348 347 345 348
316 316 318 323 322 320 321 326 325 323 325 334 352 349 345 343 337 334 335 333 335 335 336 336 336 345 347 346 347 348 348 349 349 348 348 348 347 348 347 347 346 348 345 347
316 311 318 325 320 319 317 320 324 327 332 334 339 346 337 334 331 330 329 330 331 331 331 332 333 336 343 346 347 347 348 346 346 347 349 350 350 349 347 346 347 346 350 350
317 314 320 324 321 320 318 317 317 318 325 336 337 340 336 333 330 327 326 326 328 329 327 329 331 332 334 340 344 346 345 344 344 344 345 347 347 349 349 348 349 347 349 350
315 312 317 325 325 321 320 318 318 316 319 329 331 343 338 332 328 324 322 324 325 326 326 326 327 328 332 335 338 340 342 344 343 344 341 341 343 344 344 345 347 349 349 350
313 318 319 320 319 320 319 319 323 320 321 331 336 339 337 330 326 323 321 323 322 322 324 325 325 325 327 331 333 338 338 341 343 343 342 343 340 340 341 340 341 341 343 348
312 320 318 321 326 321 320 321 320 334 337 335 333 332 325 323 321 321 322 322 321 321 322 322 323 323 324 327 329 331 334 336 339 339 339 338 337 340 339 341 339 338 340 339
316 315 317 323 319 328 328 321 319 330 335 334 337 330 325 323 323 321 320 321 322 322 322 322 322 322 323 322 322 323 326 330 331 331 332 334 336 337 338 338 337 339 339 338
312 315 313 319 319 327 324 321 324 332 331 329 328 326 325 323 320 319 319 321 321 321 321 320 320 319 322 323 324 325 325 324 324 323 324 324 324 325 330 330 333 332 335 337
308 310 315 317 319 319 321 318 319 326 331 327 327 325 324 321 319 318 318 317 317 315 316 315 316 318 320 322 321 320 319 318 318 317 318 318 319 320 320 321 320 322 325 324
310 307 313 317 322 319 317 317 316 319 327 326 325 324 322 320 322 319 315 313 314 314 314 314 315 317 318 316 317 316 314 314 313 313 313 314 314 315 314 314 315 315 315 317
314 310 312 319 319 320 319 318 318 324 320 324 324 323 321 322 317 314 312 312 313 313 313 313 314 314 313 313 314 312 311 310 310 311 311 310 311 312 312 312 314 315 316 317
317 313 310 313 315 319 318 318 319 315 316 318 321 321 320 313 314 313 312 311 312 312 312 312 312 311 311 311 311 310 309 308 308 308 307 308 308 309 309 310 311 311 312 314
316 316 316 316 315 313 315 318 316 313 315 316 314 314 314 315 315 312 311 310 311 311 312 312 312 310 310 310 310 308 306 307 306 305 305 305 305 304 305 306 307 308 309 309
315 312 312 316 319 317 318 316 314 314 315 314 314 315 316 316 314 311 309 309 309 310 311 311 310 309 309 308 308 307 305 304 303 303 303 303 303 303 303 304 304 305 305 306
314 312 312 312 313 314 317 316 313 314 313 312 312 313 314 313 311 309 308 308 308 309 310 310 309 308 307 307 306 305 304 303 302 302 302 302 302 302 302 302 302 302 302 303
312 313 315 315 311 312 311 315 314 313 312 311 310 310 311 312 310 309 308 308 308 308 309 308 308 308 307 306 306 305 303 302 301 302 302 302 302 302 302 301 300 301 300 301

GFSCGP_925_thetae_090.txt.gz
Theta_e
320 323 325 327 322 324 331 333 337 349 356 360 361 357 356 352 353 348 349 348 348 346 345 343 344 346 347 348 348 347 348 347 345 345 346 345 346 346 346 346 346 346 345 344
320 324 322 325 322 324 326 327 352 356 358 356 353 358 354 354 355 349 345 345 345 346 344 345 346 347 347 348 348 347 347 345 346 346 345 345 345 346 346 346 346 347 345 345
322 323 320 322 323 324 324 325 328 354 354 354 355 359 357 353 353 353 351 344 341 342 345 346 346 347 347 347 347 348 344 343 343 347 346 345 345 345 346 346 347 345 347 345
322 322 322 324 325 322 324 321 330 356 354 357 354 362 358 354 355 352 354 349 342 341 346 347 346 346 346 346 346 348 345 346 345 345 345 346 346 347 345 345 347 347 347 346
322 321 322 323 323 322 324 321 326 351 345 350 355 349 341 354 357 354 351 352 343 339 345 347 347 347 346 346 346 347 347 346 346 346 346 347 346 346 346 346 347 347 349 348
320 318 319 320 320 321 323 322 327 332 338 348 347 347 344 353 353 352 350 350 346 340 342 347 347 347 346 345 345 346 347 345 344 346 347 347 346 347 347 347 346 346 349 348
321 321 320 318 319 317 319 318 328 342 345 344 338 346 341 349 348 347 348 350 347 342 341 345 346 346 345 344 346 346 345 345 343 343 344 345 346 347 348 347 346 345 348 350
320 321 320 318 319 318 317 317 326 344 343 342 343 346 343 343 344 350 349 348 346 345 342 343 344 345 345 345 346 347 346 344 344 344 344 344 345 348 348 347 348 346 348 349
319 321 320 318 316 318 320 318 317 323 323 337 344 347 345 344 345 347 346 345 347 348 346 344 343 344 344 344 345 347 347 345 345 345 346 347 347 347 348 347 346 347 348 348
318 321 320 321 318 319 320 319 325 321 331 333 350 349 344 350 346 346 343 342 342 342 342 344 344 343 343 344 344 347 347 347 346 345 347 348 348 348 348 347 346 345 347 347
314 316 320 321 320 318 322 326 321 321 323 338 348 347 343 344 343 342 339 340 339 339 338 338 338 345 344 344 344 346 348 348 346 345 346 345 346 347 348 348 347 346 347 345
315 311 319 321 318 317 317 319 321 325 332 333 336 338 335 335 333 336 336 337 335 334 334 335 336 340 345 345 346 347 347 347 347 346 347 347 348 347 348 348 347 347 346 346
315 314 320 319 318 317 317 316 315 317 326 337 336 332 334 331 329 328 329 331 332 330 331 332 334 335 339 345 347 345 346 346 346 346 344 345 348 349 349 348 346 345 347 348
315 313 319 321 320 317 319 318 319 314 322 328 329 337 339 333 329 324 324 326 329 329 329 329 330 332 334 340 342 343 343 343 342 343 342 341 341 342 344 345 345 346 346 348
314 319 319 320 319 318 320 319 322 331 319 329 328 336 335 331 327 323 322 325 326 326 327 328 328 329 331 334 338 341 341 342 343 342 343 342 341 339 340 339 341 342 341 343
314 321 318 321 321 325 325 321 326 335 336 335 334 336 327 324 322 322 322 322 324 324 324 325 325 326 328 329 331 334 337 338 340 340 340 339 340 340 339 339 338 338 339 339
315 315 318 322 318 327 328 323 330 332 333 333 336 329 324 323 324 322 321 321 321 321 322 323 323 323 323 323 326 328 330 333 334 334 334 334 336 336 336 336 335 337 336 336
313 313 313 319 319 329 323 320 328 331 330 329 327 325 324 322 319 318 319 320 321 321 321 320 319 321 323 324 322 322 323 323 323 321 322 323 325 327 326 326 329 329 331 330
306 311 315 316 318 317 320 317 318 321 328 326 325 323 321 319 318 319 317 318 317 319 317 317 319 321 322 320 319 319 317 317 317 315 315 316 317 317 317 317 318 318 320 321
308 307 315 315 318 319 314 318 319 318 321 325 324 323 322 320 323 320 316 315 316 315 316 317 317 317 318 316 317 316 313 313 312 312 312 312 313 313 313 313 314 315 317 319
311 310 313 317 317 318 316 317 317 323 320 323 324 323 321 322 321 315 313 314 313 313 315 315 316 315 314 314 315 312 310 309 309 309 309 310 310 310 310 311 312 313 314 315
314 311 308 311 315 316 316 317 318 315 315 318 322 321 320 314 314 314 314 312 312 312 312 313 312 311 312 312 312 309 308 307 306 306 307 307 307 307 307 308 309 310 310 311
315 314 315 313 313 311 312 317 316 312 315 317 319 317 315 315 315 313 312 312 312 311 311 311 310 310 310 309 309 308 306 305 305 304 304 303 304 304 304 305 305 306 306 307
313 310 314 315 316 317 316 315 314 314 315 314 314 315 316 318 315 313 312 311 310 310 310 310 309 309 308 308 307 306 305 303 303 303 303 302 302 302 302 302 302 303 303 303
312 311 311 312 311 313 314 315 314 314 313 314 314 314 316 315 314 313 312 310 310 310 310 310 309 308 307 306 306 305 304 301 301 302 302 302 302 302 301 300 300 301 301 301
311 312 313 314 311 313 312 313 313 313 313 313 313 313 313 313 312 311 311 309 309 309 310 309 309 309 307 306 305 304 302 301 301 302 302 302 301 301 300 300 300 300 300 300

GFSCGP_925_thetae_093.txt.gz
Theta_e
324 335 341 334 328 330 348 350 349 349 355 357 358 360 357 354 353 353 352 351 350 349 347 347 347 348 348 349 349 349 349 346 346 347 349 349 348 347 347 343 345 345 344 342
328 336 333 329 326 328 333 341 339 358 355 357 357 358 354 355 353 352 352 351 350 350 349 346 347 348 348 349 350 350 349 347 346 348 349 349 348 348 348 346 346 346 345 344
327 331 326 328 327 328 329 332 355 354 355 351 353 355 354 354 355 351 350 350 350 350 349 348 347 348 348 349 350 350 347 346 345 347 346 345 345 346 348 347 347 345 345 345
331 324 326 325 328 328 331 327 337 357 355 361 352 359 353 354 357 356 350 349 349 349 349 348 348 348 348 348 349 350 346 346 344 346 348 345 348 347 349 350 349 348 346 345
327 326 326 327 327 326 331 325 333 354 353 356 353 356 350 355 358 359 355 350 346 346 348 349 348 349 348 348 349 349 347 345 344 344 347 348 346 350 349 348 347 347 346 346
325 321 325 326 325 326 326 331 337 345 348 347 353 351 349 359 358 355 354 353 350 345 346 348 347 348 348 348 348 348 349 345 346 345 345 346 347 345 349 349 350 350 352 352
324 323 322 321 323 323 324 325 336 340 344 335 343 355 346 352 351 352 352 353 352 345 346 349 348 348 348 348 347 346 349 350 346 347 349 347 347 347 347 347 350 349 351 351
325 326 324 322 324 324 325 326 332 339 344 342 345 346 347 347 347 350 351 350 352 349 345 348 349 347 345 345 347 346 348 349 349 346 346 346 346 349 350 348 350 350 348 348
324 323 322 321 322 323 323 324 327 334 333 340 347 349 349 348 351 352 351 350 352 350 345 347 349 348 347 345 346 348 348 349 348 348 347 345 344 344 349 347 347 348 347 351
324 325 323 324 320 321 324 324 327 328 339 341 352 353 351 354 352 350 350 349 349 349 346 346 347 348 348 345 345 346 346 349 348 347 347 344 344 344 347 347 346 344 346 348
321 324 324 324 325 325 325 326 327 329 333 336 342 348 349 352 351 348 345 345 343 344 344 344 346 346 346 345 344 344 344 348 348 346 345 345 345 345 346 348 347 347 346 346
319 323 326 324 320 320 322 328 330 328 337 342 340 343 341 344 348 346 344 344 342 341 340 340 343 346 346 345 344 344 344 348 347 346 345 344 346 345 344 346 347 347 347 347
320 322 327 325 323 323 327 323 324 330 337 343 334 338 339 339 342 339 341 340 337 337 337 337 339 342 347 346 346 344 344 347 346 345 345 344 344 345 346 347 347 347 345 344
319 321 327 328 326 324 329 330 322 326 329 338 336 342 342 342 342 336 334 335 335 335 336 335 336 336 339 346 347 347 345 345 345 345 345 344 343 344 346 347 347 346 346 347
321 324 324 324 324 325 327 335 336 326 326 332 334 336 342 343 341 338 335 332 332 334 334 333 333 333 334 338 343 344 344 343 343 343 343 341 340 341 343 344 342 341 342 343
321 327 323 326 324 328 325 330 338 337 337 337 338 338 332 338 333 332 334 331 332 333 331 330 329 330 330 332 335 339 341 342 342 342 342 341 341 340 339 339 340 340 340 341
322 322 327 328 325 329 330 327 329 333 336 337 336 337 335 334 334 334 333 333 331 330 329 327 326 325 325 328 330 331 333 336 336 335 336 336 337 337 338 337 336 336 335 335
323 323 322 326 329 329 325 323 327 330 333 333 334 333 335 334 332 330 329 330 330 328 328 327 326 324 322 323 324 325 325 327 329 325 325 327 330 328 330 331 333 332 330 332
318 322 323 328 327 323 323 321 322 325 328 332 332 331 330 328 328 327 325 326 327 326 325 325 325 323 319 321 321 321 319 318 317 317 317 318 318 318 318 319 319 320 324 326
317 321 323 324 324 325 322 321 321 322 327 331 330 332 330 328 339 335 324 323 323 321 321 321 320 318 317 316 317 317 315 314 312 312 312 312 313 314 314 315 316 317 322 325
320 321 322 325 323 321 321 321 321 327 327 326 329 330 329 332 330 326 323 323 321 320 319 318 319 317 315 314 314 313 312 310 309 309 309 310 310 310 311 312 312 313 316 317
321 324 324 322 324 325 320 321 323 323 322 323 329 328 327 323 322 322 322 321 320 320 319 319 318 317 315 314 313 311 310 308 307 307 308 307 307 308 308 309 309 310 311 311
328 323 331 323 324 320 320 322 320 320 322 323 325 327 326 322 322 321 321 320 319 318 317 316 315 314 312 312 312 311 309 308 307 307 307 307 306 306 306 307 308 309 308 309
319 317 326 325 324 323 322 320 318 319 320 321 320 324 323 323 320 320 319 318 317 316 315 314 314 313 311 310 310 309 307 306 306 306 306 305 306 305 305 305 305 306 306 306
320 318 322 323 319 320 321 320 320 318 319 320 319 321 323 322 321 320 319 317 316 315 314 313 313 313 311 309 308 307 305 305 305 305 305 305 305 305 304 303 304 304 303 304
318 322 324 326 322 324 323 321 319 319 320 320 321 320 320 320 321 319 318 316 315 314 313 313 313 312 310 309 307 306 304 304 304 304 304 304 304 304 303 303 302 299 301 300

GFSCGP_925_thetae_096.txt.gz
Theta_e
325 338 347 341 337 336 351 354 358 358 358 359 359 358 358 355 354 351 349 349 347 347 346 346 346 347 347 346 348 350 350 352 352 351 349 349 349 350 348 350 352 352 352 351
325 333 340 341 332 336 346 354 355 356 357 357 358 359 357 356 355 353 348 347 347 347 347 347 347 347 348 349 348 349 351 353 352 351 350 349 349 350 350 350 352 352 351 352
324 327 337 336 332 335 341 349 348 358 356 354 357 358 355 352 354 353 349 347 348 349 349 349 348 348 348 350 351 351 351 353 352 351 351 349 352 351 351 352 352 351 352 351
323 327 333 336 339 335 339 335 348 358 356 361 351 361 352 350 355 356 352 351 348 350 349 349 348 349 348 349 351 352 352 353 353 353 350 349 350 350 349 351 351 351 352 350
325 328 332 334 338 335 336 332 340 347 352 356 357 355 354 351 353 358 356 351 348 348 348 349 349 349 349 349 351 352 353 353 351 352 351 349 347 349 348 351 353 353 353 352
327 328 329 331 333 333 330 332 337 345 349 356 350 349 351 352 353 351 355 353 350 348 348 348 348 349 350 349 350 351 353 354 352 352 352 352 351 348 349 351 351 352 352 353
326 328 327 329 331 331 332 335 339 342 345 344 349 349 346 345 353 351 355 354 352 349 348 348 350 350 350 350 350 351 353 353 352 352 351 352 351 350 350 350 348 351 351 350
327 327 327 326 328 331 334 334 339 345 346 342 342 350 347 349 350 351 352 352 353 352 348 348 350 348 350 351 351 350 352 353 353 352 353 353 353 347 349 350 350 349 351 350
325 326 325 325 326 326 331 334 334 337 339 341 343 342 350 350 352 354 354 352 352 354 351 349 350 350 351 350 350 348 346 351 353 352 352 352 353 352 349 350 349 350 349 353
326 326 324 324 324 325 326 329 335 334 342 341 342 343 342 356 355 355 355 354 352 353 353 351 349 351 349 347 344 343 351 349 352 351 351 350 348 348 348 350 349 350 353 354
326 325 325 325 325 325 326 327 327 332 335 337 340 343 350 352 355 356 353 352 354 354 353 351 351 351 351 348 344 343 346 347 352 351 351 349 349 349 349 348 349 350 352 354
326 326 329 325 325 326 325 326 327 328 336 334 337 346 348 351 353 353 349 349 347 348 347 348 350 350 351 350 346 344 344 344 344 351 349 347 349 349 349 349 349 351 350 350
325 326 329 328 327 327 326 326 328 328 328 336 336 338 347 350 352 350 350 349 345 344 343 344 347 348 349 347 346 345 345 346 349 347 348 348 345 347 348 350 349 350 351 350
322 326 329 329 326 327 330 329 327 328 329 330 334 340 351 351 351 348 347 344 341 342 341 340 341 346 347 348 349 348 347 345 345 345 344 343 343 344 344 349 350 351 352 351
325 329 328 328 328 328 329 329 327 328 328 330 331 333 346 350 350 348 343 343 342 343 343 339 337 338 338 345 350 349 349 348 348 345 344 344 344 344 343 346 350 351 351 352
326 328 328 329 328 328 332 333 331 329 330 329 333 334 338 346 347 347 344 339 342 342 341 338 334 335 334 335 341 347 347 346 347 344 344 342 345 342 344 344 347 348 348 349
326 328 328 330 328 329 330 330 331 334 334 334 331 341 341 344 344 344 344 341 341 341 339 336 333 332 332 330 334 336 339 343 343 342 340 341 340 340 339 339 339 342 343 344
326 331 329 328 329 332 329 327 329 331 332 333 336 338 340 341 341 341 341 341 339 337 333 333 329 328 325 325 329 330 334 336 336 335 334 334 334 334 334 336 336 336 337 341
326 327 328 329 330 329 327 326 327 328 331 331 336 337 339 340 338 338 336 337 337 337 335 331 329 325 322 322 322 322 321 323 324 323 324 326 326 326 328 331 333 334 335 337
322 325 325 324 328 329 328 324 323 325 330 330 334 337 337 337 344 341 334 334 333 332 332 332 326 321 319 317 318 318 315 314 315 316 316 317 319 319 320 322 322 326 328 333
324 324 325 325 324 324 325 323 323 329 331 330 333 335 335 338 335 334 332 331 329 329 328 326 324 322 319 316 317 314 314 313 312 312 312 312 312 313 315 316 317 322 325 328
324 325 325 324 325 327 323 324 326 328 326 327 332 333 334 332 330 331 330 329 327 326 325 323 321 317 315 316 318 314 312 311 310 310 310 311 313 312 314 316 316 318 320 321
330 323 328 323 326 326 326 325 324 324 325 326 329 330 331 330 330 329 329 328 326 325 324 323 323 322 320 317 315 314 312 312 312 311 311 311 312 313 314 314 313 314 315 315
325 323 326 324 323 324 325 324 323 323 323 323 325 328 329 329 328 328 328 327 325 324 323 322 321 320 318 317 316 315 313 313 312 312 312 311 312 312 311 311 311 312 312 312
321 323 323 324 323 325 325 324 322 322 321 321 323 326 328 328 328 327 327 325 324 323 322 321 320 319 318 316 315 313 311 311 311 311 310 310 310 310 310 309 309 310 306 307
323 321 324 322 321 321 321 322 323 322 322 321 322 323 325 326 327 326 326 324 323 323 321 320 320 318 317 315 313 311 310 309 309 309 309 309 309 309 309 308 305 303 302 301

GFSCGP_925_thetae_099.txt.gz
Theta_e
323 335 345 344 345 351 355 357 360 363 357 356 358 355 357 353 350 353 347 346 346 343 343 344 344 344 345 347 347 347 349 350 352 351 348 348 348 347 347 351 351 352 351 352
325 331 337 343 341 341 349 357 357 361 356 353 358 358 356 354 349 349 352 347 346 345 346 345 344 344 344 346 347 349 350 354 353 351 350 349 348 348 347 351 351 352 351 353
325 326 330 340 342 339 342 356 353 355 359 353 357 360 359 355 348 349 353 349 345 346 347 346 345 344 345 347 347 349 350 354 352 352 350 354 352 351 351 352 351 352 352 352
325 327 328 342 343 338 341 351 355 359 360 372 357 366 360 355 353 352 354 349 346 346 345 347 346 346 345 349 350 350 350 353 353 351 350 350 349 347 351 351 351 353 352 351
324 325 328 336 338 339 339 338 358 360 358 358 360 357 359 354 355 352 356 350 347 347 347 349 346 346 345 348 350 351 352 352 353 352 353 351 351 349 350 351 352 351 353 352
324 326 327 332 333 337 338 336 338 351 354 362 353 352 358 355 355 352 351 352 350 349 348 349 345 347 347 348 351 351 354 353 353 353 353 353 352 352 350 349 351 350 353 352
324 328 329 330 331 335 339 338 343 346 363 353 349 350 350 350 349 351 352 354 350 347 347 348 348 348 349 349 351 352 355 355 354 354 352 351 352 353 352 353 349 349 350 351
323 326 329 328 331 334 338 338 342 348 347 348 350 351 350 345 344 344 350 352 353 350 348 347 349 349 350 350 350 352 355 355 354 353 353 352 351 349 349 352 352 350 350 349
325 325 327 328 329 331 333 340 338 341 341 349 346 353 352 345 345 349 352 351 353 352 349 349 349 351 353 352 352 353 356 355 354 353 353 354 353 352 352 353 353 353 353 353
329 328 327 326 326 327 328 333 340 339 345 348 347 347 347 355 354 352 353 354 354 353 352 350 353 352 350 349 355 350 350 351 354 354 353 353 353 352 350 351 352 352 352 354
328 328 328 326 326 327 327 329 334 336 337 340 348 349 347 354 355 356 355 355 353 354 354 356 353 352 354 353 352 348 353 351 351 354 353 353 352 350 351 350 349 351 352 354
327 328 329 327 326 325 327 326 329 333 339 336 337 356 347 352 354 356 358 357 358 358 356 354 352 354 353 352 347 348 344 347 347 352 350 353 350 351 351 350 350 349 352 353
327 327 330 330 326 325 325 327 326 328 329 333 335 348 348 354 354 354 355 353 354 353 354 354 354 355 355 351 349 348 347 344 343 343 346 351 351 351 352 351 351 350 350 353
327 327 328 332 330 328 326 327 327 327 329 328 334 352 353 354 356 354 353 350 348 348 348 349 351 352 352 352 352 350 349 346 344 347 347 346 346 345 344 344 348 350 350 351
326 329 329 329 331 330 327 325 327 328 330 331 330 338 350 353 353 353 350 348 347 348 347 344 345 345 348 352 351 350 348 348 349 349 348 347 342 342 344 344 345 347 351 351
329 332 332 330 330 328 328 328 328 327 327 328 330 340 347 350 352 352 350 350 350 348 347 344 339 339 339 343 352 351 351 349 348 350 349 348 348 349 348 347 343 348 349 350
329 334 335 335 329 330 331 331 330 329 328 329 333 342 341 348 350 352 350 347 347 346 344 342 340 337 335 333 338 344 349 349 350 348 348 347 346 346 346 346 344 346 346 347
329 334 333 336 335 332 332 330 331 333 334 333 337 340 342 344 345 347 346 347 346 343 341 340 336 331 328 328 331 334 339 340 340 339 340 341 340 340 340 342 340 338 341 345
326 328 335 335 336 333 332 331 331 331 333 333 337 338 341 342 344 345 343 343 343 340 339 338 333 329 324 325 326 326 328 329 329 331 330 333 335 336 336 337 341 340 341 343
324 327 331 331 335 336 333 327 327 327 334 332 334 338 341 341 345 346 341 340 340 338 336 334 329 324 322 320 323 323 320 321 321 321 322 325 324 326 329 332 333 334 337 340
326 327 327 328 327 334 330 326 325 328 334 333 333 335 338 342 343 340 339 337 336 335 334 330 326 322 319 318 317 316 315 314 314 314 315 315 318 319 321 322 321 327 330 335
328 329 328 328 333 331 326 324 327 332 329 331 333 335 336 336 336 337 336 335 334 333 330 330 328 325 320 318 316 314 314 313 311 312 312 312 313 315 318 320 321 322 324 328
329 326 330 327 334 329 327 330 328 328 329 329 330 332 334 333 335 335 335 334 332 331 329 326 324 322 320 321 321 315 312 311 310 310 310 311 313 314 316 318 318 318 319 321
324 327 327 327 326 325 324 325 325 325 325 325 327 329 330 332 333 334 334 333 331 329 328 326 326 324 322 319 318 317 317 316 315 315 315 312 312 313 314 314 316 316 316 317
323 327 324 326 326 326 325 324 324 323 322 322 324 327 329 330 331 332 332 332 330 329 327 326 324 324 322 321 320 318 316 315 315 315 314 314 314 312 315 314 312 312 311 310
324 323 323 324 324 326 324 324 323 323 322 322 322 324 327 329 330 330 331 330 329 328 326 325 324 324 322 321 319 317 315 315 315 314 314 313 313 313 313 312 308 307 304 303

GFSCGP_925_thetae_102.txt.gz
Theta_e
324 326 337 345 346 349 351 364 365 355 354 358 359 358 355 355 353 352 347 345 345 345 341 342 345 346 346 346 346 346 346 348 347 351 350 348 347 349 351 348 351 353 351 351
325 324 330 339 345 356 355 356 360 350 346 357 358 358 354 354 353 350 352 347 346 343 343 343 345 345 346 347 347 345 352 351 350 349 350 350 348 349 350 353 350 350 351 350
324 326 327 334 341 347 352 354 353 351 346 349 357 361 360 355 352 349 348 349 350 345 345 347 346 344 346 348 350 348 349 353 349 351 350 350 348 350 350 350 352 351 350 351
322 326 327 330 336 345 359 350 350 352 349 357 357 366 360 353 352 349 349 348 350 347 347 347 345 345 345 348 349 353 350 352 352 351 351 351 350 346 350 350 350 351 351 350
322 324 326 327 333 343 344 349 351 351 350 354 359 360 358 357 355 353 349 348 349 348 347 345 345 344 346 346 347 349 352 353 351 351 350 350 350 350 352 350 350 350 352 351
322 324 325 326 332 337 338 346 350 350 353 364 357 358 365 362 358 355 348 349 351 349 343 345 345 344 349 349 350 352 353 352 353 352 352 350 352 351 351 346 349 351 352 352
323 323 327 327 328 332 340 342 355 363 362 363 358 356 363 355 353 352 350 351 350 350 347 347 347 347 349 352 351 353 355 355 354 352 352 352 352 353 353 347 350 349 350 350
324 323 327 328 329 331 337 342 342 357 359 363 358 358 359 351 348 347 348 348 350 349 350 348 348 346 352 353 355 356 355 356 355 352 352 350 351 352 351 353 352 347 350 347
327 326 325 327 328 330 334 336 338 341 345 352 358 356 352 345 346 348 348 350 349 347 348 350 347 348 349 348 352 345 356 355 356 354 353 353 354 351 352 352 355 354 350 347
328 331 328 328 328 329 331 333 335 345 347 353 352 357 357 351 350 349 351 350 345 345 348 347 347 345 339 340 346 354 355 355 353 354 354 354 354 353 352 353 354 352 351 345
327 330 331 328 328 327 327 329 331 334 342 346 350 356 353 353 349 350 352 352 351 355 353 350 347 350 343 340 350 357 355 355 355 354 354 353 354 353 352 351 350 351 352 348
329 329 331 330 328 327 326 327 329 333 338 338 340 351 349 350 353 351 355 353 359 353 352 348 349 350 353 354 355 354 350 348 349 353 354 354 349 350 351 350 350 350 351 352
328 330 330 331 330 327 326 327 327 327 330 338 337 357 350 342 356 358 361 361 359 362 357 355 355 357 357 355 353 354 351 349 349 352 349 348 352 352 352 350 345 349 351 350
326 328 330 330 333 332 327 326 326 326 328 328 330 349 358 356 359 356 358 358 356 357 357 359 358 357 355 355 352 349 349 348 346 344 344 344 347 346 350 347 348 350 350 349
326 329 330 328 329 331 331 326 326 328 327 329 333 346 348 351 356 355 353 353 353 352 351 354 351 351 354 355 353 352 351 350 348 346 347 347 345 345 342 343 343 343 343 348
327 330 333 334 331 332 331 331 326 326 327 328 336 351 347 348 351 354 351 349 350 350 349 346 345 347 344 349 353 352 350 349 349 349 348 348 349 347 344 344 343 344 344 346
330 334 337 340 337 334 332 333 332 327 328 329 349 349 340 339 342 353 352 350 351 348 346 345 342 340 337 336 343 345 353 350 350 350 350 348 348 349 349 347 346 345 344 344
329 335 334 341 337 338 336 332 332 336 330 342 342 344 344 347 352 350 348 349 347 345 343 341 338 334 329 331 335 340 347 347 347 347 348 347 347 345 345 344 344 341 343 344
327 333 338 341 338 336 334 334 332 336 338 336 339 340 346 349 347 348 346 346 344 342 341 338 335 330 325 327 330 334 336 336 335 335 338 339 340 340 340 341 343 342 340 340
329 333 337 337 341 339 337 332 331 332 342 337 336 339 342 342 346 350 344 342 342 337 335 332 328 326 323 322 326 327 326 328 326 326 327 330 334 335 335 334 335 337 339 342
331 332 332 332 338 335 332 331 329 331 338 333 334 337 343 347 346 343 340 339 338 336 333 329 325 323 320 321 323 321 321 320 321 323 324 323 324 325 326 327 327 330 333 337
332 331 331 334 338 338 329 328 328 337 331 333 335 337 339 338 341 341 338 338 336 333 332 329 325 321 320 319 319 317 316 314 314 314 314 315 316 317 319 323 324 325 328 332
329 331 333 333 339 333 330 334 332 331 331 330 332 333 336 335 337 338 337 337 334 333 332 330 327 323 320 318 317 316 315 315 314 313 313 312 313 314 316 318 317 317 321 323
326 327 328 329 333 329 326 326 326 327 327 326 328 330 331 333 334 336 336 335 334 332 330 328 326 325 323 323 323 316 312 311 312 312 313 310 311 313 314 316 317 317 319 318
326 328 324 326 328 326 325 324 325 324 323 323 325 327 329 331 332 334 335 336 332 331 330 328 327 326 324 322 319 320 320 319 319 318 317 317 317 313 314 313 312 313 313 313
323 324 324 324 328 332 326 325 324 324 323 322 323 325 327 328 330 331 335 333 331 330 329 328 327 326 324 324 322 320 319 318 318 316 316 314 315 314 316 314 310 309 310 307

GFSCGP_925_thetae_105.txt.gz
Theta_e
324 323 324 327 333 339 356 360 356 356 349 350 359 359 357 354 353 352 346 344 343 340 340 345 345 345 343 345 346 348 347 346 347 348 349 348 348 348 349 349 350 350 350 351
321 321 322 325 342 351 352 353 356 351 347 346 350 360 355 353 353 350 350 350 345 340 340 344 346 346 343 344 347 348 347 347 348 349 349 348 349 349 349 349 350 353 349 350
319 322 323 324 348 348 353 355 355 354 349 345 350 361 357 353 352 350 349 347 348 346 342 344 346 346 346 347 347 348 347 346 347 349 349 348 349 349 349 352 350 350 349 349
318 321 323 324 344 346 355 351 350 350 350 355 351 366 360 356 353 351 349 348 348 347 343 343 345 346 347 346 344 347 348 346 346 349 350 347 348 348 349 348 349 351 350 350
318 319 320 323 327 347 354 349 348 346 349 354 356 363 360 353 354 351 350 347 347 348 345 343 343 346 347 348 346 345 348 345 347 348 350 350 348 346 349 348 348 347 351 352
320 320 320 323 328 344 347 349 349 349 352 357 355 358 362 355 350 348 348 347 347 349 348 345 345 345 349 350 351 348 348 347 352 352 350 349 350 350 350 349 349 350 349 349
324 321 320 323 335 346 348 351 358 356 352 354 351 356 355 353 352 347 348 346 347 349 347 346 344 344 346 348 353 353 350 350 352 351 349 349 352 350 350 345 347 350 350 349
324 322 321 326 326 342 350 343 348 356 361 359 355 362 357 349 349 349 347 345 348 348 348 348 342 345 347 349 351 351 355 351 352 353 353 352 351 349 351 351 351 346 348 345
325 326 326 325 326 326 332 338 337 347 349 355 358 354 350 350 350 349 348 348 347 347 348 348 348 347 349 351 354 354 354 353 353 351 352 349 352 351 351 352 351 350 346 340
322 326 327 328 324 326 327 331 332 341 355 357 359 358 360 348 350 349 347 346 346 344 346 347 349 347 350 350 353 355 354 353 353 353 352 353 353 351 353 352 349 351 349 345
327 326 326 328 326 326 325 328 329 337 339 349 359 357 349 349 347 347 346 345 344 344 344 347 348 347 344 346 348 350 353 354 354 355 352 351 350 349 352 351 351 351 349 347
326 326 327 328 328 326 325 324 324 327 334 338 338 361 351 350 348 345 347 348 346 343 342 347 347 345 345 341 345 338 340 352 354 354 353 351 341 352 350 350 350 350 349 350
324 327 328 328 327 328 324 324 323 322 322 328 337 355 346 348 347 346 354 350 347 343 346 347 347 346 345 344 344 345 343 353 351 353 351 350 349 344 351 350 349 348 349 352
324 324 326 328 329 328 332 326 324 323 322 325 326 353 349 343 338 355 354 354 354 347 348 347 346 346 345 346 352 352 352 352 351 350 348 347 347 348 349 350 349 344 348 349
323 325 326 328 331 328 329 330 326 323 324 328 348 352 350 350 354 353 351 352 352 353 353 349 347 350 348 352 352 351 349 348 347 345 343 343 344 345 344 345 345 345 344 343
324 327 335 335 336 336 335 331 332 329 324 344 355 353 346 346 345 350 349 349 350 349 348 347 345 346 346 350 350 350 350 350 348 344 345 346 345 345 344 341 342 343 343 343
329 333 334 338 334 336 338 334 334 338 338 337 347 347 340 341 341 345 349 347 349 348 343 343 341 337 337 341 348 350 350 349 348 347 348 348 348 347 348 347 346 346 343 342
329 333 333 337 336 340 336 331 332 338 338 336 341 340 337 336 333 333 347 348 346 344 342 337 334 331 332 336 342 348 351 350 350 351 350 348 348 346 345 344 343 341 344 344
326 330 334 336 336 337 337 335 333 333 337 337 340 346 346 345 351 350 346 343 341 339 337 333 330 327 328 331 335 340 344 345 346 344 345 345 344 342 342 342 343 341 340 342
333 334 334 332 337 341 338 332 331 329 341 334 339 343 347 347 352 351 342 339 335 333 330 328 327 325 327 328 332 335 332 334 332 333 335 338 338 337 337 337 339 339 339 342
331 330 333 335 338 336 333 332 330 340 340 334 337 333 339 334 343 340 336 335 333 331 327 326 325 323 324 326 328 327 327 326 327 329 330 331 332 332 331 330 332 334 337 338
334 333 335 329 331 336 330 330 329 333 332 334 341 339 343 340 340 338 335 334 332 329 326 323 321 320 321 324 327 323 323 322 322 324 323 322 324 325 325 325 326 328 333 334
332 332 335 333 332 325 328 332 332 331 329 329 330 338 338 339 339 337 335 332 332 330 327 324 322 321 320 320 321 318 315 315 314 314 314 315 315 315 317 315 317 316 324 326
330 329 332 333 331 332 331 326 327 326 324 325 325 328 332 335 336 335 333 331 332 331 328 324 322 320 319 318 317 317 315 314 312 312 312 312 312 314 316 317 318 318 318 318
329 327 325 333 332 327 326 326 325 323 323 323 324 328 329 332 334 334 334 331 330 330 327 326 325 323 322 323 319 312 311 311 313 313 312 312 311 313 313 313 313 314 313 312
324 326 324 330 330 328 327 326 326 323 322 323 324 326 326 329 335 334 330 331 330 330 329 328 326 324 322 319 319 320 320 320 320 318 317 316 316 315 313 313 311 312 312 311

GFSCGP_925_thetae_108.txt.gz
Theta_e
320 321 323 323 322 327 354 356 357 353 349 352 352 352 355 353 350 349 343 341 342 343 340 345 347 346 345 345 346 343 345 348 347 348 348 346 347 349 348 350 348 349 350 350
319 321 321 322 325 334 353 355 356 350 348 349 350 351 349 353 352 350 349 343 342 342 341 345 345 345 346 346 346 344 345 346 346 347 347 347 348 349 348 348 350 349 349 349
318 319 321 322 325 351 351 355 353 353 348 347 348 352 350 354 352 350 348 347 347 340 344 344 343 343 345 347 347 347 344 345 347 348 348 348 348 348 348 350 350 350 349 350
315 317 319 320 327 347 353 349 350 351 350 355 348 362 360 356 354 351 351 348 347 345 344 344 343 342 346 346 345 346 345 347 349 348 348 348 348 348 348 348 348 349 347 349
318 318 317 319 321 346 352 347 347 348 349 352 353 356 359 355 356 353 349 347 347 346 344 344 344 343 346 347 346 346 347 347 347 348 347 347 347 347 348 348 348 349 349 351
320 320 317 317 337 347 344 346 347 347 348 353 352 355 358 357 355 352 348 348 347 345 343 343 344 344 345 348 348 347 347 346 344 348 349 349 347 346 348 348 348 347 347 350
320 322 325 344 348 345 345 345 355 357 354 354 352 355 354 352 349 348 347 348 347 347 346 343 342 345 346 347 348 347 348 346 345 349 350 348 348 349 349 349 346 349 348 349
320 322 320 330 345 348 346 339 347 354 356 358 353 359 356 348 345 345 343 345 347 348 346 345 343 345 347 349 348 347 348 346 350 351 349 349 350 350 348 345 346 350 349 348
321 323 322 323 335 343 345 341 336 345 346 354 356 354 351 346 350 347 346 345 347 348 348 346 343 346 347 349 351 349 348 348 351 350 348 350 350 349 350 350 351 349 347 346
318 320 320 325 324 333 337 334 336 335 351 358 354 352 354 346 348 350 350 346 347 347 346 346 346 348 349 350 351 354 350 349 351 350 352 351 349 350 350 351 349 350 348 346
321 319 323 325 325 322 322 327 326 332 340 352 358 356 343 343 343 349 348 347 346 345 345 347 347 350 350 351 352 351 353 352 351 351 352 350 351 352 352 351 348 347 348 347
323 320 325 325 323 322 321 321 322 324 328 337 343 353 344 344 342 345 345 344 343 343 344 347 346 346 346 346 341 342 349 352 352 352 351 352 352 351 351 352 351 351 348 348
321 320 325 326 324 324 325 324 321 317 319 330 339 350 343 346 343 342 342 346 344 343 345 346 346 343 344 343 342 339 347 347 349 350 350 350 348 345 350 350 350 349 349 349
322 318 325 326 325 324 327 327 326 318 319 320 326 343 348 339 353 353 350 349 347 344 347 346 345 344 344 344 344 344 345 345 348 347 349 349 348 345 347 348 348 348 349 348
321 322 323 325 334 334 333 334 334 331 324 323 327 345 348 344 354 353 353 353 351 345 346 346 346 344 344 345 347 344 346 348 346 348 348 348 347 346 346 346 347 346 345 346
321 326 331 335 332 332 335 334 339 340 339 353 352 354 348 351 349 351 352 353 353 348 347 346 345 346 346 346 346 348 350 349 349 346 344 344 344 345 344 343 342 342 343 343
328 328 330 335 331 334 338 335 337 339 338 340 350 347 343 346 350 347 349 351 351 350 348 345 342 344 346 346 345 341 345 348 346 345 344 345 344 345 345 344 344 344 344 343
328 326 326 331 329 339 333 332 331 336 336 341 345 343 340 337 335 344 345 347 345 343 340 338 333 333 336 339 345 346 348 348 347 347 346 347 347 347 346 345 344 343 343 344
322 323 328 329 331 333 335 332 334 332 334 338 345 345 345 344 346 345 342 341 340 337 335 332 331 331 331 333 336 343 348 348 349 349 349 348 347 345 344 342 339 340 343 342
322 323 326 327 333 335 332 332 331 331 336 335 339 339 342 345 349 346 337 334 331 329 329 327 328 328 330 333 337 338 336 341 341 343 345 345 344 342 341 341 340 340 341 342
325 325 327 330 332 331 329 329 330 338 334 335 335 335 341 343 341 337 334 331 328 327 326 326 326 325 326 329 332 333 331 331 332 334 337 338 338 338 336 336 337 337 341 340
332 327 331 324 328 329 327 329 331 330 332 335 334 334 333 332 332 337 334 330 326 324 324 324 324 323 325 327 329 327 327 326 329 330 331 329 328 328 328 330 331 336 337 335
329 328 332 331 327 322 324 328 328 327 336 336 331 338 333 330 333 336 333 329 327 324 323 323 322 321 321 323 325 323 320 321 322 322 321 321 319 320 318 323 323 328 331 333
326 323 327 325 326 329 328 324 325 324 322 323 330 333 338 338 336 334 331 329 327 325 323 322 320 319 318 320 320 319 315 314 314 313 314 313 315 316 317 317 318 318 320 321
321 320 323 326 326 326 324 322 320 321 322 324 324 328 335 336 335 333 331 330 329 326 323 324 324 322 321 319 316 315 313 312 311 311 310 310 312 313 314 313 314 314 315 315
319 318 322 326 323 320 322 321 320 320 320 322 322 323 327 333 333 331 330 329 327 326 325 325 324 322 322 321 316 313 313 317 317 316 314 314 313 312 311 312 312 312 312 311

GFSCGP_925_thetae_111.txt.gz
Theta_e
318 318 319 321 321 327 353 356 356 352 351 351 352 352 351 351 350 345 342 342 342 343 344 346 346 344 345 344 344 345 345 346 346 347 347 347 347 347 347 348 348 349 348 346
318 320 319 322 323 331 353 354 353 350 349 349 351 351 347 348 352 350 343 342 342 341 344 347 346 345 345 343 343 343 344 347 346 346 346 347 347 348 347 349 348 349 347 349
318 319 320 321 327 352 350 352 351 352 348 347 349 353 353 350 352 350 348 343 342 340 345 347 345 345 344 342 342 343 346 346 346 347 346 346 348 348 348 347 348 348 348 348
316 316 319 319 321 346 350 350 350 350 350 354 349 359 355 352 353 352 351 348 342 340 344 346 344 344 344 344 345 342 347 345 346 346 347 346 347 348 348 348 348 349 350 344
318 319 319 317 318 343 348 347 348 348 347 351 354 354 356 354 354 352 351 347 344 341 344 345 343 343 344 346 346 344 345 346 347 347 347 346 347 347 347 346 347 348 349 347
318 319 319 319 336 340 343 345 345 344 346 354 353 354 354 357 352 349 351 349 347 344 343 343 342 342 345 346 347 346 345 346 348 347 347 347 346 347 347 347 348 347 348 349
320 321 342 341 345 343 342 339 342 348 349 355 349 353 349 349 352 350 351 350 347 346 344 343 341 341 346 347 347 346 346 346 348 347 346 347 347 347 346 347 347 347 347 347
321 321 342 341 343 345 343 336 339 347 352 353 352 357 353 347 347 349 347 347 347 348 343 343 343 342 345 347 347 347 347 347 346 345 347 348 348 346 346 348 348 346 348 346
319 321 320 338 341 341 345 341 334 343 343 349 354 353 348 345 344 345 346 345 348 347 347 344 343 343 344 345 347 347 346 346 346 345 348 349 348 348 349 348 345 346 349 349
321 321 319 321 337 340 337 334 340 337 351 357 351 353 352 350 349 350 346 345 346 347 348 345 342 344 345 346 346 346 346 346 345 345 350 348 348 350 349 349 349 349 348 346
320 316 319 323 324 333 325 331 326 331 338 349 352 351 344 341 341 350 346 344 345 347 348 347 344 346 346 347 348 347 347 347 347 348 350 348 349 349 350 350 350 348 349 347
321 318 323 323 322 321 321 324 324 328 328 339 342 345 345 341 340 345 348 344 343 345 346 346 347 348 347 348 349 350 350 349 348 349 350 351 351 350 351 351 350 347 347 347
321 319 323 325 325 324 324 326 320 315 317 331 337 338 345 343 341 343 345 344 345 344 346 346 346 347 347 347 348 350 350 351 350 351 349 348 347 348 348 350 350 350 350 348
323 317 323 326 327 325 332 333 331 315 317 318 326 326 344 345 350 341 343 342 343 346 346 346 345 343 344 344 343 343 341 344 348 349 348 348 347 345 342 346 346 347 347 348
322 322 321 322 332 332 335 338 339 335 336 319 321 322 341 349 351 348 346 345 344 346 347 347 345 343 343 344 343 343 342 344 345 346 347 344 343 347 345 343 345 347 346 346
321 328 329 332 331 333 334 334 338 338 341 339 347 349 348 350 350 351 350 349 345 346 345 344 345 344 343 344 345 343 344 345 346 345 347 344 344 346 346 345 346 345 344 344
326 327 328 332 329 330 332 333 335 337 341 342 345 345 342 343 346 345 348 348 348 345 346 345 344 344 344 344 347 348 347 346 347 346 346 345 346 345 345 343 342 341 342 342
324 324 326 328 328 334 329 331 333 333 336 342 346 342 340 345 345 344 344 345 344 342 340 339 336 340 342 344 345 344 343 344 346 345 344 344 343 343 344 345 345 344 344 343
319 322 326 328 329 330 335 333 331 331 332 338 344 342 346 346 345 342 339 337 336 336 333 332 331 332 335 335 336 342 343 342 343 345 344 345 345 346 346 344 342 342 343 342
321 318 324 326 330 335 331 330 330 329 334 337 339 345 345 341 348 345 336 331 329 327 327 329 328 330 331 331 333 339 340 340 340 338 344 346 347 346 344 341 339 341 342 339
323 323 326 328 329 327 325 328 327 334 331 335 337 340 341 343 339 336 332 329 326 326 325 327 327 325 326 329 332 332 331 329 331 336 338 343 343 340 340 340 339 340 341 338
328 326 326 321 326 327 324 327 329 327 334 333 333 335 335 337 336 333 330 326 324 323 324 324 324 323 326 328 330 326 325 326 329 332 332 333 333 332 333 334 334 338 340 336
330 325 327 326 325 320 321 326 325 328 333 333 335 331 329 332 336 333 330 327 325 323 323 324 323 322 322 325 326 325 321 324 324 327 327 327 328 327 328 328 329 335 334 332
322 322 326 324 325 327 325 324 324 327 329 330 333 330 328 333 335 332 329 326 324 323 323 323 323 321 320 321 321 320 318 317 318 318 317 317 319 318 318 319 320 327 328 328
322 321 324 323 325 325 325 321 321 323 325 329 331 333 336 334 332 329 328 325 324 323 321 321 319 318 317 317 317 316 315 314 313 312 312 312 313 313 314 314 315 316 316 318
317 316 323 323 321 320 321 319 320 323 323 324 326 328 332 333 331 330 327 327 324 322 321 322 322 322 321 317 313 311 311 312 313 311 311 312 311 311 311 311 311 311 311 311

GFSCGP_925_thetae_114.txt.gz
Theta_e
316 316 319 321 320 327 350 354 354 353 351 352 350 350 352 347 350 347 343 341 342 343 343 344 344 343 344 344 346 347 348 348 346 346 345 346 346 346 344 346 346 346 347 344
316 319 318 320 321 328 351 353 354 350 349 348 351 351 350 347 348 350 346 341 343 344 343 344 344 343 344 346 346 346 346 347 346 345 345 346 345 346 346 347 347 347 347 346
318 320 319 321 336 346 349 349 350 351 350 347 350 351 351 350 348 350 348 341 341 344 345 344 344 344 344 344 345 345 346 345 345 345 345 346 346 346 347 348 347 348 347 346
318 316 318 319 320 340 348 346 348 351 350 352 349 356 353 351 351 351 350 344 340 341 344 345 345 343 343 344 343 344 346 346 345 345 345 346 347 347 347 346 345 347 348 347
317 319 318 317 317 335 337 346 346 347 345 350 353 354 354 350 350 349 350 347 342 339 343 346 344 344 344 343 343 343 344 345 346 346 345 345 346 347 346 347 347 348 349 346
317 317 318 319 334 336 343 344 342 341 343 350 352 352 352 352 347 348 348 348 344 340 342 345 345 344 343 343 343 343 343 346 346 346 346 346 345 346 347 347 346 347 347 348
318 320 339 340 343 341 340 335 341 345 347 349 348 351 349 351 350 347 350 349 346 340 342 344 344 342 342 344 344 345 344 346 346 347 347 346 346 346 346 346 346 347 347 347
319 319 342 340 342 343 340 333 337 341 346 348 351 352 350 343 346 345 346 347 347 344 342 344 343 341 343 344 345 346 344 345 346 347 347 346 346 346 346 346 346 347 347 347
319 320 321 339 340 340 342 341 333 340 341 346 350 349 346 345 347 349 349 348 348 348 344 343 341 341 343 344 345 346 345 345 345 346 347 347 348 347 346 346 348 346 345 347
321 322 319 321 338 339 338 336 340 337 346 350 348 350 350 349 347 350 350 349 347 347 345 343 342 341 342 345 344 345 345 345 345 346 345 345 347 348 348 348 348 347 347 348
319 316 320 321 328 339 327 335 330 331 337 345 346 343 341 344 345 350 349 348 346 346 347 344 343 342 342 343 345 345 346 345 345 345 345 346 349 347 349 348 348 348 348 347
320 318 322 323 320 320 323 330 326 331 329 337 338 341 343 341 340 345 345 344 344 344 344 345 343 344 343 344 345 346 346 346 345 345 345 347 348 348 349 349 350 348 347 346
318 318 324 325 325 326 325 330 319 314 319 334 335 332 344 340 342 345 345 343 344 344 345 345 345 345 345 346 346 346 346 346 345 346 346 349 348 349 349 350 349 348 347 347
320 317 323 326 326 326 334 335 335 313 316 319 328 322 344 345 344 344 344 344 344 344 346 347 346 346 346 346 347 348 347 347 347 347 348 348 349 349 348 342 341 343 346 347
318 320 322 322 329 333 335 335 338 334 335 319 331 342 349 348 350 344 342 343 345 346 346 346 345 344 345 345 345 346 347 347 348 349 349 348 346 346 344 344 343 342 343 345
320 324 329 332 329 332 333 333 337 338 343 341 341 348 348 347 350 351 347 344 346 346 345 345 344 343 343 343 343 343 342 341 345 348 348 347 343 342 343 343 345 342 342 345
325 326 326 329 329 330 334 332 334 336 340 341 346 341 343 345 346 348 350 346 344 346 345 344 342 343 343 343 343 343 343 341 343 345 345 345 344 345 344 344 344 345 344 343
323 324 327 329 328 334 329 330 330 332 334 339 344 342 346 344 343 342 342 344 345 343 343 339 338 339 340 343 346 346 345 344 344 344 344 345 345 344 344 345 344 343 342 342
317 322 325 328 329 328 335 334 331 330 332 336 342 343 346 344 341 341 337 335 336 335 333 332 332 333 334 337 341 344 344 344 344 344 345 345 345 344 344 344 343 343 343 343
319 317 322 324 329 333 329 330 329 328 335 334 339 344 347 340 346 346 335 331 329 328 328 328 328 329 331 332 337 342 343 344 343 344 344 344 344 344 343 343 340 341 342 340
322 321 324 326 326 326 323 328 329 335 331 335 340 341 339 340 338 338 331 327 325 325 326 327 326 325 327 329 332 331 334 332 336 340 336 338 343 344 342 339 339 341 339 336
323 324 324 321 324 324 323 327 332 327 332 334 335 336 336 336 334 331 327 326 325 325 325 325 324 324 326 327 329 325 325 328 330 331 336 334 335 332 336 337 338 339 338 334
327 322 324 322 322 318 319 324 324 326 331 331 333 330 335 334 333 329 326 324 324 323 323 324 323 321 322 325 326 325 324 327 328 328 328 329 333 328 328 331 334 338 335 332
322 320 324 322 324 324 324 323 326 330 331 331 330 329 329 334 331 328 326 324 323 323 322 322 322 320 318 319 320 319 320 321 321 319 318 319 320 322 324 324 329 331 331 330
320 321 321 322 324 325 323 323 321 326 328 332 328 328 332 332 330 327 325 324 322 322 321 320 317 317 317 318 317 315 315 314 314 313 313 313 314 314 314 315 315 319 323 323
316 320 323 323 321 320 320 320 321 328 330 331 331 334 332 330 329 326 325 323 321 320 320 320 319 318 315 315 313 311 311 311 309 309 310 310 310 310 311 311 311 312 312 312

GFSCGP_925_thetae_117.txt.gz
Theta_e
319 325 331 326 326 331 339 350 354 355 352 354 350 352 351 349 349 349 350 349 349 348 346 346 347 346 346 346 346 346 347 346 347 349 349 349 346 349 347 344 345 344 346 346
322 327 323 323 324 337 341 347 355 352 350 351 351 350 351 349 350 348 347 347 348 348 347 346 346 346 346 346 347 347 346 347 346 348 348 348 349 349 348 347 346 346 345 344
324 323 321 323 332 337 343 338 352 352 351 348 350 352 351 351 348 349 349 346 344 346 348 348 347 346 346 346 347 347 348 348 348 347 346 345 346 345 348 349 348 346 345 347
323 319 320 321 322 329 333 343 347 353 353 355 350 359 353 352 353 351 350 349 346 345 346 348 347 346 346 346 347 348 348 348 346 346 348 346 348 349 348 346 348 349 347 345
322 320 321 322 321 325 327 346 349 351 350 351 353 359 354 351 354 353 349 347 349 344 345 347 347 346 346 346 346 347 348 347 348 346 347 346 345 349 347 348 345 348 347 347
321 319 321 322 336 327 344 346 346 347 350 357 350 354 354 356 351 349 349 345 347 346 344 345 345 346 346 346 346 345 347 347 346 346 345 345 344 345 349 346 350 349 350 349
322 322 331 339 342 342 344 345 345 349 355 349 352 356 353 350 347 347 345 345 347 345 344 346 348 347 346 346 346 346 346 348 348 348 348 346 345 345 345 345 347 348 347 347
324 323 340 341 338 341 343 336 331 336 344 350 352 358 350 345 345 343 342 344 349 345 343 345 347 346 346 346 347 346 346 347 349 349 348 346 346 349 349 349 348 350 350 350
324 324 325 342 341 341 345 344 336 345 347 353 354 351 346 346 347 348 346 347 350 345 344 345 346 346 346 346 346 346 346 347 349 349 350 349 347 347 349 346 346 349 347 350
324 328 323 329 341 340 342 339 345 347 343 344 348 352 352 352 351 348 348 350 349 346 344 345 346 345 346 347 347 347 347 347 348 349 350 349 350 347 347 346 347 347 346 345
323 324 327 323 335 336 340 341 340 342 346 342 344 340 344 347 349 351 349 349 349 348 345 345 345 344 345 347 347 348 349 349 348 349 349 349 349 348 348 348 349 348 347 348
323 325 328 327 324 323 335 337 338 340 340 344 346 338 347 344 344 349 350 349 347 347 346 345 344 343 344 346 347 348 349 349 349 349 350 346 345 348 349 349 350 348 348 347
323 325 327 328 328 329 332 336 330 326 331 340 338 334 344 345 343 347 350 350 348 347 347 347 344 344 345 345 346 348 348 349 349 349 350 348 345 348 351 350 349 349 348 347
323 324 327 326 330 331 339 338 339 331 330 333 333 334 336 350 352 347 348 347 347 347 348 349 347 344 345 346 348 348 348 346 348 349 350 350 350 351 351 350 348 345 344 345
324 327 326 326 332 334 334 336 341 336 340 327 331 345 351 351 352 351 347 347 348 349 348 349 350 349 346 346 347 349 347 346 349 348 350 351 347 349 350 348 343 341 341 344
326 329 330 333 331 330 335 332 338 343 345 346 345 349 347 348 350 350 347 348 348 349 349 349 349 347 345 345 346 347 349 347 347 350 351 348 348 348 348 344 343 342 343 342
331 333 332 330 330 330 334 333 332 339 341 344 348 347 344 348 350 350 348 348 349 348 348 348 347 345 344 344 343 344 344 344 345 348 348 347 347 346 343 343 344 344 344 343
330 332 334 332 331 333 331 331 332 334 336 341 345 344 346 345 343 342 345 345 346 343 343 344 344 342 342 344 344 344 342 341 342 343 342 346 345 343 342 343 344 344 343 344
324 330 332 333 334 330 334 332 333 332 332 337 344 345 345 342 341 342 338 337 337 336 334 333 334 336 337 341 345 344 344 344 344 343 344 344 344 344 344 342 344 344 343 343
325 326 330 331 332 332 332 331 330 330 336 334 344 344 346 345 347 344 335 334 333 332 331 330 329 330 333 336 341 343 345 345 344 344 344 344 344 344 343 343 343 342 342 342
330 330 332 334 334 330 327 328 330 337 335 337 343 342 347 347 345 337 332 330 330 330 329 327 327 327 328 331 335 339 339 340 341 342 341 340 340 342 342 342 342 341 339 334
332 335 337 331 335 331 326 329 335 332 334 339 342 341 341 337 336 334 331 331 329 329 328 328 327 324 326 327 329 327 328 332 336 336 336 336 337 338 338 338 338 338 335 327
336 330 336 332 331 328 327 329 329 330 337 338 340 338 336 336 336 334 332 332 331 329 327 326 324 323 322 325 327 324 324 327 327 326 327 328 332 334 335 335 335 335 333 331
328 326 332 330 330 329 329 328 328 333 335 337 338 337 336 335 333 333 332 332 330 329 327 326 324 320 319 318 320 321 322 325 326 323 322 324 327 328 328 330 327 330 329 328
327 328 331 330 329 329 329 329 328 332 335 334 334 335 335 334 333 332 333 331 329 327 323 322 323 321 319 317 315 314 314 315 316 315 314 314 315 319 319 318 319 323 324 327
326 331 331 325 332 332 332 327 330 336 337 334 333 334 334 332 332 329 329 326 324 323 322 321 319 317 316 315 314 312 311 312 313 313 313 311 310 310 310 310 311 312 312 312

GFSCGP_925_thetae_120.txt.gz
Theta_e
321 324 328 333 334 333 336 340 343 356 355 357 357 357 355 352 352 355 352 348 346 346 346 347 347 346 345 345 346 348 349 350 350 350 349 348 348 349 348 348 351 351 352 353
322 323 327 330 330 334 336 338 343 355 354 354 355 356 351 354 351 353 353 351 348 346 347 347 348 347 346 346 347 349 349 350 352 350 350 349 347 348 348 348 350 350 353 353
322 325 326 328 330 332 335 336 337 347 354 352 353 356 355 353 352 351 351 351 347 346 347 348 348 348 347 347 347 348 350 350 350 350 350 350 351 349 350 350 349 350 351 352
324 324 325 327 328 330 331 334 335 351 351 352 352 350 357 355 358 354 351 351 347 345 346 347 348 348 347 347 348 347 349 351 349 350 350 350 347 347 349 350 349 350 351 351
325 324 324 324 324 325 327 332 336 347 348 349 352 355 346 353 360 356 353 352 346 345 345 347 347 347 347 348 348 348 350 352 351 353 351 348 347 347 348 349 351 350 352 352
324 322 323 324 326 324 331 336 344 348 347 348 342 352 348 357 354 352 350 350 349 349 346 346 346 347 347 347 348 348 350 352 350 353 348 350 348 349 349 349 349 349 349 350
323 323 322 324 328 329 334 335 339 342 344 341 349 348 348 347 349 349 350 350 350 349 347 347 348 347 348 348 348 349 349 351 351 353 351 348 348 349 348 348 348 349 349 350
325 326 325 328 329 331 334 332 332 336 335 337 350 348 346 347 345 346 349 349 350 349 348 347 347 347 348 348 348 349 349 350 350 351 349 350 349 349 348 348 349 348 349 349
325 325 327 333 333 334 334 340 332 333 333 337 338 345 345 345 345 346 346 345 345 345 347 348 346 347 348 349 349 349 349 350 349 349 351 352 352 351 350 351 351 349 350 350
327 327 326 331 338 338 341 339 337 334 338 339 336 342 344 344 347 347 348 347 346 346 347 349 347 348 349 349 349 349 349 349 349 349 350 351 351 352 352 352 353 352 352 352
328 328 328 329 334 332 339 341 339 337 339 338 342 341 341 344 347 349 348 348 347 350 348 348 347 348 349 349 349 350 350 349 349 349 350 350 350 351 352 352 354 354 355 355
326 326 328 328 328 328 328 335 335 338 337 339 339 348 344 346 347 347 348 348 347 350 348 346 348 348 349 349 349 351 350 350 350 349 350 352 351 352 351 352 352 354 354 354
325 324 327 327 328 330 330 334 336 334 336 343 339 340 341 347 346 347 349 351 348 349 349 348 348 350 349 348 350 350 351 351 351 351 352 352 352 352 351 352 353 354 354 354
324 321 322 325 328 332 337 337 338 337 335 333 334 336 334 350 352 350 350 350 350 350 350 347 346 347 347 346 347 350 351 351 352 352 352 352 352 351 352 352 353 354 353 354
326 326 323 323 324 330 333 335 337 337 336 337 332 335 338 350 351 355 350 350 350 350 350 350 347 345 345 346 347 350 351 352 352 352 352 352 352 352 353 352 353 353 352 351
328 329 327 327 325 329 331 331 332 337 339 340 341 341 349 348 349 354 350 350 350 350 349 351 350 347 345 346 347 347 351 353 351 350 349 351 353 353 353 351 353 352 350 350
329 330 332 330 327 329 330 329 331 333 335 337 340 343 345 350 350 350 352 351 351 351 351 349 350 349 348 346 346 346 350 351 350 348 348 351 352 351 351 351 352 349 345 348
328 329 329 330 331 337 328 330 330 331 332 334 335 341 347 347 344 344 348 349 348 348 350 350 349 349 344 344 345 344 344 347 350 348 348 349 347 349 350 347 344 343 344 345
325 328 328 332 332 328 328 331 333 334 332 330 332 344 346 343 346 343 339 339 339 339 339 338 339 342 345 343 343 343 342 343 342 343 344 345 343 346 346 343 342 342 343 344
326 330 331 329 334 332 335 333 331 331 335 332 335 345 348 347 353 346 335 334 334 332 333 333 333 336 338 342 346 344 342 343 344 343 344 344 345 345 344 344 344 343 344 342
330 331 330 329 333 329 330 331 331 337 339 339 342 346 348 350 345 337 334 333 331 331 330 330 328 328 330 335 340 345 346 345 344 344 343 342 340 341 343 343 342 342 340 338
331 333 332 331 334 334 329 331 336 336 338 341 344 346 341 341 340 337 335 333 332 331 331 330 328 325 325 328 332 330 331 334 337 338 337 337 338 339 339 339 337 333 332 332
335 331 334 331 333 334 332 332 332 333 340 342 343 342 342 339 338 338 335 335 334 332 329 326 325 323 323 325 326 326 326 329 331 333 332 331 333 335 335 335 335 335 332 330
331 332 331 333 333 333 333 332 332 336 339 342 339 340 337 337 336 335 335 334 333 332 331 327 327 324 320 320 323 323 325 326 327 325 325 326 326 327 330 332 331 331 330 328
331 332 329 328 331 333 334 336 336 337 340 340 337 335 335 335 335 336 336 336 333 329 328 329 326 324 321 319 319 319 319 319 316 317 318 317 319 321 323 325 325 326 325 327
331 330 327 328 327 335 334 334 336 339 338 338 337 336 333 333 333 332 331 327 325 324 323 322 320 318 317 317 318 318 317 317 316 315 314 313 311 312 312 313 313 314 316 316